[[{"header":{"parameterUnit":"m.s-1","parameterCategory":1,"la1":31.0,"la2":29.5877,"lo1":-88.7671,"lo2":-86.6584,"dy":0.0162,"dx":0.0185,"nx":115,"ny":88,"refTime":"2023-05-24T06:00:00:Z","depth":0,"parameterNumber":2,"parameterNumberName":"U-component_of_WINDS"},"data":[0.0,0.0,0.0,0.0,0.0,0.0,0.0,0.0,0.0,0.0,0.0,0.0,0.0,0.0,0.0,0.0,0.0,0.0,0.0,0.0,0.0,0.0,0.0,0.0,0.0,0.0,0.0,0.0,0.0,0.0,0.0,0.0,0.0,0.0,0.0,0.0,0.0,0.0,0.0,0.0,0.0,0.0,0.0,0.0,0.0,0.0,0.0,0.0,0.0,0.0,0.0,0.0,0.0,0.0,0.0,0.0,0.0,0.0,0.0,0.0,0.0,0.0,0.0,0.0,0.0,0.0,0.0,0.0,0.0,0.0,0.0,0.0,0.0,0.0,0.0,0.0,0.0,0.0,0.0,0.0,0.0,0.0,0.0,0.0,0.0,0.0,0.0,0.0,0.0,0.0,0.0,0.0,0.0,0.0,0.0,0.0,0.0,0.0,0.0,0.0,0.0,0.0,0.0,0.0,0.0,0.0,0.0,0.0,0.0,0.0,0.0,0.0,0.0,0.0,0.0,0.0,0.0,0.0,0.0,0.0,0.0,0.0,0.0,0.0,0.0,0.0,0.0,0.0,0.0,0.0,0.0,0.0,0.0,0.0,0.0,0.0,0.0,0.0,0.0,0.0,0.0,0.0,0.0,0.0,0.0,0.0,0.0,0.0,0.0,0.0,0.0,0.0,0.0,0.0,0.0,0.0,0.0,0.0,0.0,0.0,0.0,0.0,0.0,0.0,0.0,0.0,0.0,0.0,0.0,0.0,0.0,0.0,0.0,0.0,0.0,0.0,0.0,0.0,0.0,0.0,0.0,0.0,0.0,0.0,0.0,0.0,0.0,0.0,0.0,0.0,0.0,0.0,0.0,0.0,0.0,0.0,0.0,0.0,0.0,0.0,0.0,0.0,0.0,0.0,0.0,0.0,0.0,0.0,0.0,0.0,0.0,0.0,0.0,0.0,0.0,0.0,0.0,0.0,0.0,0.0,0.0,0.0,0.0,0.0,0.0,0.0,0.0,0.0,0.0,0.0,0.0,0.0,0.0,0.0,0.0,0.0,0.0,0.0,0.0,0.0,0.0,0.0,0.0,0.0,0.0,0.0,0.0,0.0,0.0,0.0,0.0,0.0,0.0,0.0,0.0,0.0,0.0,0.0,0.0,0.0,0.0,0.0,0.0,0.0,0.0,0.0,0.0,0.0,0.0,0.0,0.0,0.0,0.0,0.0,0.0,0.0,0.0,0.0,0.0,0.0,0.0,0.0,0.0,0.0,0.0,0.0,0.0,0.0,0.0,0.0,0.0,0.0,0.0,0.0,0.0,0.0,0.0,0.0,0.0,0.0,0.0,0.0,0.0,0.0,0.0,0.0,0.0,0.0,0.0,0.0,0.0,0.0,0.0,0.0,0.0,0.0,0.0,0.0,0.0,0.0,0.0,0.0,0.0,0.0,0.0,0.0,0.0,0.0,0.0,0.0,0.0,0.0,0.0,0.0,0.0,0.0,0.0,0.0,0.0,0.0,0.0,0.0,0.0,0.0,0.0,0.0,0.0,0.0,0.0,0.0,0.0,0.0,0.0,0.0,0.0,0.0,0.0,0.0,0.0,0.0,0.0,0.0,0.0,0.0,0.0,0.0,0.0,0.0,0.0,0.0,0.0,0.0,0.0,0.0,0.0,0.0,0.0,0.0,0.0,0.0,0.0,0.0,0.0,0.0,0.0,0.0,0.0,0.0,0.0,0.0,0.0,0.0,0.0,0.0,0.0,0.0,0.0,0.0,0.0,0.0,0.0,0.0,0.0,0.0,0.0,0.0,0.0,0.0,0.0,0.0,0.0,0.0,0.0,0.0,0.0,0.0,0.0,0.0,0.0,0.0,0.0,0.0,0.0,0.0,0.0,0.0,0.0,0.0,0.0,0.0,0.0,0.0,0.0,0.0,0.0,0.0,0.0,0.0,0.0,0.0,0.0,0.0,0.0,0.0,0.0,0.0,0.0,0.0,0.0,0.0,0.0,0.0,0.0,0.0,0.0,0.0,0.0,0.0,0.0,0.0,0.0,0.0,0.0,0.0,0.0,0.0,0.0,0.0,0.0,0.0,0.0,0.0,0.0,0.0,0.0,0.0,0.0,0.0,0.0,0.0,0.0,0.0,0.0,0.0,0.0,0.0,0.0,0.0,0.0,0.0,0.0,0.0,0.0,0.0,0.0,0.0,0.0,0.0,0.0,0.0,0.0,0.0,0.0,0.0,0.0,0.0,0.0,0.0,0.0,0.0,0.0,0.0,0.0,0.0,0.0,0.0,0.0,0.0,0.0,0.0,0.0,0.0,0.0,0.0,0.0,0.0,0.0,0.0,0.0,0.0,0.0,0.0,0.0,0.0,0.0,0.0,0.0,0.0,0.0,0.0,0.0,0.0,0.0,0.0,0.0,0.0,0.0,0.0,0.0,0.0,0.0,0.0,0.0,0.0,0.0,0.0,0.0,0.0,0.0,0.0,0.0,0.0,0.0,0.0,0.0,0.0,0.0,0.0,0.0,0.0,0.0,0.0,0.0,0.0,0.0,0.0,0.0,0.0,0.0,0.0,0.0,0.0,0.0,0.0,0.0,0.0,0.0,0.0,0.0,0.0,0.0,0.0,0.0,0.0,0.0,0.0,0.0,0.0,0.0,0.0,0.0,0.0,0.0,0.0,0.0,0.0,0.0,0.0,0.0,0.0,0.0,0.0,0.0,0.0,0.0,0.0,0.0,0.0,0.0,0.0,0.0,0.0,0.0,0.0,0.0,0.0,0.0,0.0,0.0,0.0,0.0,0.0,0.0,0.0,0.0,0.0,0.0,0.0,0.0,0.0,0.0,0.0,0.0,0.0,0.0,0.0,0.0,0.0,0.0,0.0,0.0,0.0,0.0,0.0,0.0,0.0,0.0,0.0,0.0,0.0,0.0,0.0,0.0,0.0,0.0,0.0,0.0,0.0,0.0,0.0,0.0,0.0,0.0,0.0,0.0,0.0,0.0,0.0,0.0,0.0,0.0,0.0,0.0,0.0,0.0,0.0,0.0,0.0,0.0,0.0,0.0,0.0,0.0,0.0,0.0,0.0,0.0,0.0,0.0,0.0,0.0,0.0,0.0,0.0,0.0,0.0,0.0,0.0,0.0,0.0,0.0,0.0,0.0,0.0,0.0,0.0,0.0,0.0,0.0,0.0,0.0,0.0,0.0,0.0,0.0,0.0,0.0,0.0,0.0,0.0,0.0,0.0,0.0,0.0,0.0,0.0,0.0,0.0,0.0,0.0,0.0,0.0,0.0,0.0,0.0,0.0,0.0,0.0,0.0,0.0,0.0,0.0,0.0,0.0,0.0,0.0,0.0,0.0,0.0,0.0,0.0,0.0,0.0,0.0,0.0,0.0,0.0,0.0,0.0,0.0,0.0,0.0,0.0,0.0,0.0,0.0,0.0,0.0,0.0,0.0,0.0,0.0,0.0,0.0,0.0,0.0,0.0,0.0,0.0,0.0,0.0,0.0,0.0,0.0,0.0,0.0,0.0,0.0,0.0,0.0,0.0,0.0,0.0,0.0,0.0,0.0,0.0,0.0,0.0,0.0,0.0,0.0,0.0,0.0,0.0,0.0,0.0,0.0,0.0,0.0,0.0,0.0,0.0,0.0,0.0,0.0,0.0,0.0,0.0,0.0,0.0,0.0,0.0,0.0,0.0,0.0,0.0,0.0,0.0,0.0,0.0,0.0,0.0,0.0,0.0,0.0,0.0,0.0,0.0,0.0,0.0,0.0,0.0,0.0,0.0,0.0,0.0,0.0,0.0,0.0,0.0,0.0,0.0,0.0,0.0,0.0,0.0,0.0,0.0,0.0,0.0,0.0,0.0,0.0,0.0,0.0,0.0,0.0,0.0,0.0,0.0,0.0,0.0,0.0,0.0,0.0,0.0,0.0,0.0,0.0,0.0,0.0,0.0,0.0,0.0,0.0,0.0,0.0,0.0,0.0,0.0,0.0,0.0,0.0,0.0,0.0,0.0,0.0,0.0,0.0,0.0,0.0,0.0,0.0,0.0,0.0,0.0,0.0,0.0,0.0,0.0,0.0,0.0,0.0,0.0,0.0,0.0,0.0,0.0,0.0,0.0,0.0,0.0,0.0,0.0,0.0,0.0,0.0,0.0,0.0,0.0,0.0,0.0,0.0,0.0,0.0,0.0,0.0,0.0,0.0,0.0,0.0,0.0,0.0,0.0,0.0,0.0,0.0,0.0,0.0,0.0,0.0,0.0,0.0,0.0,0.0,-0.8501,0.0,0.0,0.0,0.0,0.0,0.0,0.0,0.0,0.0,0.0,0.0,0.0,0.0,0.0,0.0,0.0,0.0,0.0,0.0,0.0,0.0,0.0,0.0,0.0,0.0,0.0,0.0,0.0,0.0,0.0,0.0,0.0,0.0,0.0,0.0,0.0,0.0,0.0,0.0,0.0,0.0,0.0,0.0,0.0,0.0,0.0,0.0,0.0,0.0,0.0,0.0,0.0,0.0,0.0,0.0,0.0,0.0,0.0,0.0,0.0,0.0,0.0,0.0,0.0,0.0,0.0,0.0,0.0,0.0,0.0,0.0,0.0,0.0,0.0,0.0,0.0,0.0,0.0,0.0,0.0,0.0,0.0,0.0,0.0,0.0,0.0,0.0,0.0,0.0,0.0,0.0,0.0,0.0,0.0,0.0,0.0,0.0,0.0,0.0,0.0,0.0,0.0,0.0,0.0,0.0,0.0,0.0,0.0,0.0,0.0,-1.1368,-1.0575,-0.9733,-0.9062,-0.8635,0.0,0.0,0.0,0.0,0.0,0.0,0.0,0.0,0.0,0.0,0.0,0.0,0.0,0.0,0.0,0.0,0.0,0.0,0.0,0.0,0.0,0.0,0.0,0.0,0.0,0.0,0.0,0.0,0.0,0.0,0.0,0.0,0.0,0.0,0.0,0.0,0.0,0.0,0.0,0.0,0.0,0.0,0.0,0.0,0.0,0.0,0.0,0.0,0.0,0.0,0.0,0.0,0.0,0.0,0.0,0.0,0.0,0.0,0.0,0.0,0.0,0.0,0.0,0.0,0.0,0.0,0.0,0.0,0.0,0.0,0.0,0.0,0.0,0.0,0.0,0.0,0.0,0.0,0.0,0.0,0.0,0.0,0.0,0.0,0.0,0.0,0.0,0.0,0.0,0.0,0.0,0.0,0.0,0.0,0.0,0.0,0.0,0.0,0.0,0.0,0.0,0.0,0.0,0.0,0.0,0.0,0.0,0.0,0.0,0.0,0.0,0.0,-0.9957,-0.9125,-0.8662,0.0,0.0,0.0,0.0,0.0,0.0,0.0,0.0,0.0,0.0,0.0,0.0,0.0,0.0,0.0,0.0,0.0,0.0,0.0,0.0,0.0,0.0,0.0,0.0,0.0,0.0,0.0,0.0,0.0,0.0,0.0,0.0,0.0,0.0,0.0,0.0,0.0,0.0,0.0,0.0,0.0,0.0,0.0,0.0,0.0,0.0,0.0,0.0,0.0,0.0,0.0,0.0,0.0,0.0,0.0,0.0,0.0,0.0,0.0,0.0,0.0,0.0,0.0,0.0,0.0,0.0,0.0,0.0,0.0,0.0,0.0,0.0,0.0,0.0,0.0,0.0,0.0,0.0,0.0,0.0,0.0,0.0,0.0,0.0,0.0,0.0,0.0,0.0,0.0,0.0,0.0,0.0,0.0,0.0,0.0,0.0,0.0,0.0,0.0,0.0,0.0,0.0,0.0,0.0,0.0,0.0,0.0,0.0,0.0,0.0,-1.1555,-1.0773,-1.0514,0.0,-0.8352,0.0,0.0,0.0,0.0,0.0,0.0,0.0,0.0,0.0,0.0,0.0,0.0,0.0,0.0,0.0,0.0,0.0,0.0,0.0,0.0,0.0,0.0,0.0,0.0,0.0,0.0,0.0,0.0,0.0,0.0,0.0,0.0,0.0,0.0,0.0,0.0,0.0,0.0,0.0,0.0,0.0,0.0,0.0,0.0,0.0,0.0,0.0,0.0,0.0,0.0,0.0,0.0,0.0,0.0,0.0,0.0,0.0,0.0,0.0,0.0,0.0,0.0,0.0,0.0,0.0,0.0,0.0,0.0,0.0,0.0,0.0,0.0,0.0,0.0,0.0,0.0,0.0,0.0,0.0,0.0,0.0,0.0,0.0,0.0,0.0,0.0,0.0,0.0,0.0,0.0,0.0,0.0,0.0,0.0,0.0,0.0,0.0,0.0,0.0,0.0,0.0,0.0,0.0,0.0,0.0,0.0,0.0,0.0,0.0,0.0,-1.149,-1.1075,-1.0463,-0.9605,0.0,0.0,0.0,0.0,0.0,0.0,0.0,0.0,0.0,0.0,0.0,0.0,0.0,0.0,0.0,0.0,0.0,0.0,0.0,0.0,0.0,0.0,0.0,0.0,0.0,0.0,0.0,0.0,0.0,0.0,0.0,0.0,0.0,0.0,0.0,0.0,0.0,0.0,0.0,0.0,0.0,0.0,0.0,0.0,0.0,0.0,0.0,0.0,0.0,0.0,0.0,0.0,0.0,0.0,0.0,0.0,0.0,0.0,0.0,0.0,0.0,0.0,0.0,0.0,0.0,0.0,0.0,0.0,0.0,0.0,0.0,0.0,0.0,0.0,0.0,0.0,0.0,0.0,0.0,0.0,0.0,0.0,0.0,0.0,0.0,0.0,0.0,0.0,0.0,0.0,0.0,0.0,0.0,0.0,0.0,0.0,0.0,0.0,0.0,0.0,0.0,0.0,0.0,0.0,0.0,0.0,0.0,0.0,0.0,0.0,-1.1556,-1.1316,-1.1118,-1.0436,-0.9671,-0.8856,0.0,0.0,0.0,0.0,0.0,0.0,0.0,0.0,0.0,0.0,0.0,0.0,0.0,0.0,0.0,0.0,0.0,0.0,0.0,0.0,0.0,0.0,0.0,0.0,0.0,0.0,0.0,0.0,0.0,0.0,0.0,0.0,0.0,0.0,0.0,0.0,0.0,0.0,0.0,0.0,0.0,0.0,0.0,0.0,0.0,0.0,0.0,0.0,0.0,0.0,0.0,0.0,0.0,0.0,0.0,0.0,0.0,0.0,0.0,0.0,0.0,0.0,0.0,0.0,0.0,0.0,0.0,0.0,0.0,0.0,0.0,0.0,0.0,0.0,0.0,0.0,0.0,0.0,0.0,0.0,0.0,0.0,0.0,0.0,0.0,0.0,0.0,0.0,0.0,0.0,0.0,0.0,0.0,0.0,0.0,0.0,0.0,0.0,0.0,0.0,0.0,0.0,0.0,0.0,0.0,0.0,0.0,0.0,-1.1511,-1.1293,-1.1038,-1.0729,-1.0508,-1.0097,0.0,0.0,0.0,0.0,0.0,0.0,0.0,0.0,0.0,0.0,0.0,0.0,0.0,0.0,0.0,0.0,0.0,0.0,0.0,0.0,0.0,0.0,0.0,0.0,0.0,0.0,0.0,0.0,0.0,0.0,0.0,0.0,0.0,0.0,0.0,0.0,0.0,0.0,0.0,0.0,0.0,0.0,0.0,0.0,0.0,0.0,0.0,0.0,0.0,0.0,0.0,0.0,0.0,0.0,0.0,0.0,0.0,0.0,0.0,0.0,0.0,0.0,0.0,0.0,0.0,0.0,0.0,0.0,0.0,0.0,0.0,0.0,0.0,0.0,0.0,0.0,0.0,0.0,0.0,0.0,0.0,0.0,0.0,0.0,0.0,0.0,0.0,0.0,0.0,0.0,0.0,0.0,0.0,0.0,0.0,0.0,0.0,0.0,0.0,0.0,0.0,0.0,0.0,0.0,0.0,0.0,0.0,0.0,0.0,-1.1307,-1.1015,-1.0767,-1.0449,-1.0374,-1.0183,0.0,0.0,0.0,0.0,0.0,0.0,0.0,0.0,0.0,0.0,0.0,0.0,0.0,0.0,0.0,0.0,0.0,0.0,0.0,0.0,0.0,0.0,0.0,0.0,0.0,0.0,0.0,0.0,0.0,0.0,0.0,0.0,0.0,0.0,0.0,0.0,0.0,0.0,0.0,0.0,0.0,0.0,0.0,0.0,0.0,0.0,0.0,0.0,0.0,0.0,0.0,0.0,0.0,0.0,0.0,0.0,0.0,0.0,0.0,0.0,0.0,0.0,0.0,0.0,0.0,0.0,0.0,0.0,0.0,0.0,0.0,0.0,0.0,0.0,0.0,0.0,0.0,0.0,0.0,0.0,0.0,0.0,0.0,0.0,0.0,0.0,0.0,0.0,0.0,0.0,0.0,0.0,0.0,0.0,0.0,0.0,0.0,0.0,0.0,0.0,0.0,0.0,0.0,0.0,0.0,0.0,0.0,0.0,0.0,-1.1601,0.0,-1.103,-1.086,-1.0754,-1.0532,0.0,0.0,0.0,0.0,0.0,0.0,0.0,0.0,0.0,0.0,0.0,0.0,0.0,0.0,0.0,0.0,0.0,0.0,0.0,0.0,0.0,0.0,0.0,0.0,0.0,0.0,0.0,0.0,0.0,0.0,0.0,0.0,0.0,0.0,0.0,0.0,0.0,0.0,0.0,0.0,0.0,0.0,0.0,0.0,0.0,0.0,0.0,0.0,0.0,0.0,0.0,0.0,0.0,0.0,0.0,0.0,0.0,0.0,0.0,0.0,0.0,0.0,0.0,0.0,0.0,0.0,0.0,0.0,0.0,0.0,0.0,0.0,0.0,0.0,0.0,0.0,0.0,0.0,0.0,0.0,0.0,0.0,0.0,0.0,0.0,0.0,0.0,0.0,0.0,0.0,0.0,0.0,0.0,0.0,0.0,0.0,0.0,0.0,0.0,0.0,0.0,0.0,0.0,0.0,0.0,0.0,0.0,0.0,-1.239,-1.2454,-1.2166,-1.2007,-1.1991,-1.1657,-1.1257,0.0,0.0,0.0,0.0,0.0,0.0,0.0,0.0,0.0,0.0,0.0,0.0,0.0,0.0,0.0,0.0,0.0,0.0,0.0,0.0,0.0,0.0,0.0,0.0,0.0,0.0,0.0,0.0,0.0,0.0,0.0,0.0,0.0,0.0,0.0,0.0,0.0,0.0,0.0,0.0,0.0,0.0,0.0,0.0,0.0,0.0,0.0,0.0,0.0,0.0,0.0,0.0,0.0,0.0,0.0,0.0,0.0,0.0,0.0,0.0,0.0,0.0,0.0,0.0,0.0,0.0,0.0,0.0,0.0,0.0,0.0,0.0,0.0,0.0,0.0,0.0,0.0,0.0,0.0,0.0,0.0,0.0,0.0,0.0,0.0,0.0,0.0,0.0,0.0,0.0,0.0,0.0,0.0,0.0,0.0,0.0,0.0,0.0,0.0,0.0,0.0,0.0,0.0,0.0,0.0,0.0,0.0,0.0,0.0,-1.2725,-1.3017,-1.3065,-1.2837,-1.2373,-1.197,0.0,0.0,0.0,0.0,0.0,0.0,0.0,0.0,0.0,0.0,0.0,0.0,0.0,0.0,0.0,0.0,0.0,0.0,0.0,0.0,0.0,0.0,0.0,0.0,0.0,0.0,0.0,0.0,0.0,0.0,0.0,0.0,0.0,0.0,0.0,0.0,0.0,0.0,0.0,0.0,0.0,0.0,0.0,0.0,0.0,0.0,0.0,0.0,0.0,0.0,0.0,0.0,0.0,0.0,0.0,0.0,0.0,0.0,0.0,0.0,0.0,0.0,0.0,0.0,0.0,0.0,0.0,0.0,0.0,0.0,0.0,0.0,0.0,0.0,0.0,0.0,0.0,0.0,0.0,0.0,0.0,0.0,0.0,0.0,0.0,0.0,0.0,0.0,0.0,0.0,0.0,0.0,0.0,0.0,0.0,0.0,0.0,0.0,0.0,0.0,0.0,0.0,0.0,0.0,0.0,0.0,0.0,0.0,0.0,-1.4618,-1.4914,-1.498,-1.4726,-1.4088,-1.3397,-1.2643,0.0,0.0,0.0,0.0,0.0,0.0,0.0,0.0,0.0,0.0,0.0,0.0,0.0,0.0,0.0,0.0,0.0,0.0,0.0,0.0,0.0,0.0,0.0,0.0,0.0,0.0,0.0,0.0,0.0,0.0,0.0,0.0,0.0,0.0,0.0,0.0,0.0,0.0,0.0,0.0,0.0,0.0,0.0,0.0,0.0,0.0,0.0,0.0,0.0,0.0,0.0,0.0,0.0,0.0,0.0,0.0,0.0,0.0,0.0,0.0,0.0,0.0,0.0,0.0,0.0,0.0,0.0,0.0,0.0,0.0,0.0,0.0,0.0,0.0,0.0,0.0,0.0,0.0,0.0,0.0,0.0,0.0,0.0,0.0,0.0,0.0,0.0,0.0,0.0,0.0,0.0,0.0,0.0,0.0,0.0,0.0,0.0,0.0,0.0,0.0,0.0,0.0,0.0,0.0,0.0,0.0,0.0,0.0,-1.7688,-1.7751,-1.7634,-1.7314,-1.6451,-1.5235,0.0,0.0,0.0,0.0,0.0,0.0,0.0,0.0,0.0,0.0,0.0,0.0,0.0,0.0,0.0,0.0,0.0,0.0,0.0,0.0,0.0,0.0,0.0,0.0,0.0,0.0,0.0,0.0,0.0,0.0,0.0,0.0,0.0,0.0,0.0,0.0,0.0,0.0,0.0,0.0,0.0,0.0,0.0,0.0,0.0,0.0,0.0,0.0,0.0,0.0,0.0,0.0,0.0,0.0,0.0,0.0,0.0,0.0,0.0,0.0,0.0,0.0,0.0,0.0,0.0,0.0,0.0,0.0,0.0,0.0,0.0,0.0,0.0,0.0,0.0,0.0,0.0,0.0,0.0,0.0,0.0,0.0,0.0,0.0,0.0,0.0,0.0,0.0,0.0,0.0,0.0,0.0,0.0,0.0,0.0,0.0,0.0,0.0,0.0,0.0,0.0,0.0,0.0,0.0,0.0,0.0,0.0,0.0,0.0,-1.9914,-2.0643,-2.0106,-1.8156,-1.7087,-1.5792,0.0,0.0,0.0,0.0,0.0,0.0,0.0,0.0,0.0,0.0,0.0,0.0,0.0,0.0,0.0,0.0,0.0,0.0,0.0,0.0,0.0,0.0,0.0,0.0,0.0,0.0,0.0,0.0,0.0,0.0,0.0,0.0,0.0,0.0,0.0,0.0,0.0,0.0,0.0,0.0,0.0,0.0,0.0,0.0,0.0,0.0,0.0,0.0,0.0,0.0,0.0,0.0,0.0,0.0,0.0,0.0,0.0,0.0,0.0,0.0,0.0,0.0,0.0,0.0,0.0,0.0,0.0,0.0,0.0,0.0,0.0,0.0,0.0,0.0,0.0,0.0,0.0,0.0,0.0,0.0,0.0,0.0,0.0,0.0,0.0,0.0,0.0,0.0,0.0,0.0,0.0,0.0,0.0,0.0,0.0,0.0,0.0,0.0,0.0,0.0,0.0,0.0,0.0,0.0,0.0,0.0,0.0,0.0,-1.9282,-2.0031,-2.1427,-2.1033,-1.884,-1.8165,-1.6968,0.0,0.0,0.0,0.0,0.0,0.0,0.0,0.0,0.0,0.0,0.0,0.0,0.0,0.0,0.0,0.0,0.0,0.0,0.0,0.0,0.0,0.0,0.0,0.0,0.0,0.0,0.0,0.0,0.0,0.0,0.0,0.0,0.0,0.0,0.0,0.0,0.0,0.0,0.0,0.0,0.0,0.0,0.0,0.0,0.0,0.0,0.0,0.0,0.0,0.0,0.0,0.0,0.0,0.0,0.0,0.0,0.0,0.0,0.0,0.0,0.0,0.0,0.0,0.0,0.0,0.0,0.0,0.0,0.0,0.0,0.0,0.0,0.0,0.0,0.0,0.0,0.0,0.0,0.0,0.0,0.0,0.0,0.0,0.0,0.0,0.0,0.0,0.0,0.0,0.0,0.0,0.0,0.0,0.0,0.0,0.0,0.0,0.0,0.0,0.0,0.0,0.0,0.0,0.0,0.0,0.0,0.0,0.0,-1.9497,-1.9091,-2.0827,-2.0974,-1.9388,-1.9264,-1.8162,0.0,0.0,0.0,0.0,0.0,0.0,0.0,0.0,0.0,0.0,0.0,0.0,0.0,0.0,0.0,0.0,0.0,0.0,0.0,0.0,0.0,0.0,0.0,0.0,0.0,0.0,0.0,0.0,0.0,0.0,0.0,0.0,0.0,0.0,0.0,0.0,0.0,0.0,0.0,0.0,0.0,0.0,0.0,0.0,0.0,0.0,0.0,0.0,0.0,0.0,0.0,0.0,0.0,0.0,0.0,0.0,0.0,0.0,0.0,0.0,0.0,0.0,0.0,0.0,0.0,0.0,0.0,0.0,0.0,0.0,0.0,0.0,0.0,0.0,0.0,0.0,0.0,0.0,0.0,0.0,0.0,0.0,0.0,0.0,0.0,0.0,0.0,0.0,0.0,0.0,0.0,0.0,0.0,0.0,0.0,0.0,0.0,0.0,0.0,0.0,0.0,0.0,0.0,0.0,0.0,0.0,0.0,0.0,-1.9298,-1.9576,-2.0409,-2.0398,-1.9288,-1.8627,-1.7396,0.0,0.0,0.0,0.0,0.0,0.0,0.0,0.0,0.0,0.0,0.0,0.0,0.0,0.0,0.0,0.0,0.0,0.0,0.0,0.0,0.0,0.0,0.0,0.0,0.0,0.0,0.0,0.0,0.0,0.0,0.0,0.0,0.0,0.0,0.0,0.0,0.0,0.0,0.0,0.0,0.0,0.0,0.0,0.0,0.0,0.0,0.0,0.0,-1.2173,0.0,0.0,0.0,0.0,0.0,0.0,0.0,0.0,0.0,0.0,0.0,0.0,0.0,0.0,0.0,0.0,0.0,0.0,0.0,0.0,0.0,0.0,0.0,0.0,0.0,0.0,0.0,0.0,0.0,0.0,0.0,0.0,0.0,0.0,0.0,0.0,0.0,0.0,0.0,0.0,0.0,0.0,0.0,0.0,0.0,0.0,0.0,0.0,0.0,0.0,0.0,0.0,0.0,0.0,0.0,0.0,0.0,0.0,0.0,-1.91,-1.9497,-1.9823,-1.9562,-1.8757,-1.8143,-1.7129,0.0,0.0,0.0,0.0,0.0,0.0,0.0,0.0,0.0,0.0,0.0,0.0,0.0,0.0,0.0,0.0,0.0,0.0,0.0,0.0,0.0,0.0,0.0,0.0,0.0,0.0,0.0,0.0,0.0,0.0,0.0,0.0,0.0,0.0,0.0,0.0,0.0,0.0,0.0,0.0,0.0,0.0,0.0,0.0,0.0,0.0,0.0,0.0,0.0,0.0,0.0,0.0,0.0,0.0,0.0,0.0,0.0,0.0,0.0,0.0,0.0,0.0,0.0,0.0,0.0,0.0,0.0,0.0,0.0,0.0,0.0,0.0,0.0,0.0,0.0,0.0,0.0,0.0,0.0,0.0,0.0,0.0,0.0,0.0,0.0,0.0,0.0,0.0,0.0,0.0,0.0,0.0,0.0,0.0,0.0,0.0,0.0,0.0,0.0,0.0,0.0,0.0,0.0,0.0,0.0,0.0,0.0,-1.8565,-1.891,-1.9211,-1.9131,-1.871,-1.8008,-1.7721,-1.7063,-1.6002,0.0,0.0,0.0,0.0,0.0,0.0,0.0,0.0,0.0,0.0,0.0,0.0,0.0,0.0,0.0,0.0,0.0,0.0,0.0,0.0,0.0,0.0,0.0,0.0,0.0,0.0,0.0,0.0,0.0,0.0,0.0,0.0,0.0,0.0,0.0,0.0,0.0,0.0,-1.1815,-1.2839,0.0,0.0,0.0,0.0,0.0,0.0,0.0,0.0,-1.1969,0.0,0.0,0.0,0.0,0.0,0.0,0.0,0.0,0.0,0.0,0.0,0.0,0.0,0.0,0.0,0.0,0.0,0.0,0.0,0.0,0.0,0.0,0.0,0.0,0.0,0.0,0.0,0.0,0.0,0.0,0.0,0.0,0.0,0.0,0.0,0.0,0.0,0.0,0.0,0.0,0.0,0.0,0.0,0.0,0.0,0.0,0.0,0.0,0.0,0.0,0.0,0.0,0.0,0.0,0.0,0.0,-1.8094,-1.8433,-1.8653,-1.8725,-1.8418,-1.8134,-1.7998,-1.7598,-1.6894,-1.5712,0.0,0.0,0.0,0.0,0.0,0.0,0.0,0.0,0.0,0.0,0.0,0.0,0.0,0.0,0.0,0.0,0.0,0.0,0.0,0.0,0.0,0.0,0.0,0.0,0.0,0.0,0.0,0.0,0.0,0.0,0.0,0.0,0.0,0.0,0.0,0.0,0.0,0.0,0.0,-1.3345,-1.3519,0.0,0.0,0.0,0.0,0.0,0.0,0.0,0.0,-1.2382,0.0,0.0,0.0,0.0,0.0,0.0,0.0,0.0,0.0,0.0,0.0,0.0,0.0,0.0,0.0,0.0,0.0,0.0,0.0,0.0,0.0,0.0,0.0,0.0,0.0,0.0,0.0,0.0,0.0,0.0,0.0,0.0,0.0,0.0,0.0,0.0,0.0,0.0,0.0,0.0,0.0,0.0,0.0,0.0,0.0,0.0,0.0,0.0,0.0,0.0,0.0,0.0,0.0,0.0,0.0,-1.8479,-1.8804,-1.9213,-1.9616,-1.8755,-1.833,-1.832,-1.7725,-1.6939,0.0,0.0,0.0,0.0,0.0,0.0,0.0,0.0,0.0,0.0,0.0,0.0,0.0,0.0,0.0,0.0,0.0,0.0,0.0,0.0,0.0,0.0,0.0,0.0,0.0,0.0,0.0,0.0,0.0,0.0,0.0,0.0,0.0,0.0,0.0,0.0,0.0,0.0,0.0,0.0,-1.3773,-1.4093,-1.4098,0.0,0.0,0.0,0.0,0.0,0.0,-1.2225,-1.1756,0.0,0.0,0.0,0.0,0.0,0.0,0.0,0.0,0.0,0.0,0.0,0.0,0.0,0.0,0.0,0.0,0.0,0.0,0.0,0.0,0.0,0.0,0.0,0.0,0.0,0.0,0.0,0.0,0.0,0.0,0.0,0.0,0.0,0.0,0.0,0.0,0.0,0.0,0.0,0.0,0.0,0.0,0.0,0.0,0.0,0.0,0.0,0.0,0.0,0.0,0.0,0.0,0.0,0.0,0.0,-1.908,-1.9339,-1.9748,-2.035,-1.9332,-1.8721,-1.8623,-1.7822,-1.6973,0.0,0.0,0.0,0.0,0.0,0.0,0.0,0.0,0.0,0.0,0.0,0.0,0.0,0.0,0.0,0.0,0.0,0.0,0.0,0.0,0.0,0.0,0.0,0.0,0.0,0.0,0.0,0.0,0.0,0.0,0.0,0.0,0.0,0.0,0.0,0.0,0.0,0.0,0.0,0.0,0.0,-1.4581,-1.4663,-1.4639,0.0,0.0,0.0,0.0,-1.2894,-1.2049,0.0,0.0,0.0,0.0,0.0,0.0,0.0,0.0,0.0,0.0,0.0,0.0,0.0,0.0,0.0,0.0,0.0,0.0,0.0,0.0,0.0,0.0,0.0,0.0,0.0,0.0,0.0,0.0,0.0,0.0,0.0,0.0,0.0,0.0,0.0,0.0,0.0,0.0,0.0,0.0,0.0,0.0,0.0,0.0,0.0,0.0,0.0,0.0,0.0,0.0,0.0,0.0,0.0,0.0,0.0,0.0,-1.9536,-1.9646,-1.978,-1.9934,-1.9507,-1.9023,-1.8643,-1.7822,-1.6973,0.0,0.0,0.0,0.0,0.0,0.0,0.0,0.0,0.0,0.0,0.0,0.0,0.0,0.0,0.0,0.0,0.0,0.0,0.0,0.0,0.0,0.0,0.0,0.0,0.0,0.0,0.0,0.0,0.0,0.0,0.0,0.0,0.0,0.0,0.0,0.0,0.0,0.0,0.0,0.0,0.0,-1.4378,-1.4516,-1.4354,-1.4087,0.0,0.0,-1.4026,-1.3035,-1.2802,0.0,0.0,0.0,0.0,0.0,0.0,0.0,0.0,0.0,0.0,0.0,0.0,0.0,0.0,0.0,0.0,0.0,0.0,0.0,0.0,0.0,0.0,0.0,0.0,0.0,0.0,0.0,0.0,0.0,0.0,0.0,0.0,0.0,0.0,0.0,0.0,0.0,0.0,0.0,0.0,0.0,0.0,0.0,0.0,0.0,0.0,0.0,0.0,0.0,0.0,0.0,0.0,0.0,0.0,0.0,-1.8835,-1.9481,-1.9992,-2.0249,-2.0264,-1.9873,-1.9434,-1.9014,-1.8184,-1.7217,0.0,0.0,0.0,0.0,0.0,0.0,0.0,0.0,0.0,0.0,0.0,0.0,0.0,0.0,0.0,0.0,0.0,0.0,0.0,0.0,0.0,0.0,0.0,0.0,0.0,0.0,0.0,0.0,0.0,0.0,0.0,0.0,0.0,0.0,0.0,0.0,0.0,0.0,0.0,0.0,0.0,0.0,-1.4725,-1.4772,0.0,0.0,0.0,-1.3364,-1.2778,0.0,0.0,0.0,0.0,0.0,0.0,0.0,0.0,0.0,0.0,0.0,0.0,0.0,0.0,0.0,0.0,0.0,0.0,0.0,0.0,0.0,0.0,0.0,0.0,0.0,0.0,0.0,0.0,0.0,0.0,0.0,0.0,0.0,0.0,0.0,0.0,0.0,0.0,0.0,0.0,0.0,0.0,0.0,0.0,0.0,0.0,0.0,0.0,0.0,0.0,0.0,0.0,0.0,0.0,0.0,0.0,0.0,-1.9525,-2.0197,-2.0576,-2.0557,-2.0254,-1.9873,-1.9443,-1.8613,0.0,0.0,0.0,0.0,0.0,0.0,0.0,0.0,0.0,0.0,0.0,0.0,0.0,0.0,0.0,0.0,0.0,0.0,0.0,0.0,0.0,0.0,0.0,0.0,0.0,0.0,0.0,-1.1619,0.0,0.0,0.0,0.0,0.0,0.0,0.0,0.0,0.0,0.0,0.0,0.0,0.0,0.0,-1.4735,-1.5117,-1.5264,-1.516,0.0,0.0,-1.3165,-1.2798,-1.1769,-1.1124,0.0,0.0,0.0,0.0,0.0,0.0,0.0,0.0,0.0,0.0,0.0,0.0,0.0,0.0,0.0,0.0,0.0,0.0,0.0,0.0,0.0,0.0,0.0,0.0,0.0,0.0,0.0,0.0,0.0,0.0,0.0,0.0,0.0,0.0,0.0,0.0,0.0,0.0,0.0,0.0,0.0,0.0,0.0,0.0,0.0,0.0,0.0,0.0,0.0,0.0,0.0,0.0,0.0,0.0,0.0,-1.9745,-2.0345,-2.0576,-2.0566,-2.0537,-2.0312,-1.9873,-1.8971,-1.8193,0.0,0.0,0.0,0.0,0.0,0.0,0.0,0.0,0.0,0.0,0.0,0.0,0.0,0.0,0.0,0.0,0.0,0.0,0.0,0.0,0.0,0.0,0.0,0.0,0.0,0.0,0.0,0.0,0.0,0.0,0.0,0.0,0.0,0.0,0.0,0.0,0.0,0.0,0.0,0.0,0.0,-1.5137,-1.5496,-1.5573,-1.5362,0.0,0.0,-1.4343,-1.3481,-1.2876,-1.2409,-1.1987,0.0,0.0,0.0,0.0,0.0,0.0,0.0,0.0,0.0,0.0,0.0,0.0,0.0,0.0,0.0,0.0,0.0,0.0,0.0,0.0,0.0,0.0,0.0,0.0,0.0,0.0,0.0,0.0,0.0,0.0,0.0,0.0,0.0,0.0,0.0,0.0,0.0,0.0,0.0,0.0,0.0,0.0,0.0,0.0,0.0,0.0,0.0,0.0,0.0,0.0,0.0,0.0,0.0,-1.9188,-1.9785,-2.0355,-2.0576,-2.0566,-1.9923,-1.9394,-1.8917,-1.8601,-1.7933,0.0,0.0,0.0,0.0,0.0,0.0,0.0,0.0,0.0,0.0,0.0,0.0,0.0,0.0,0.0,0.0,0.0,0.0,0.0,0.0,0.0,0.0,0.0,0.0,0.0,0.0,0.0,0.0,-1.4009,-1.4225,-1.4064,0.0,0.0,0.0,0.0,0.0,0.0,0.0,0.0,0.0,0.0,-1.5488,-1.6194,-1.6181,0.0,0.0,-1.5283,-1.4754,-1.376,-1.3294,-1.2749,-1.1854,-1.1206,0.0,0.0,0.0,0.0,0.0,0.0,0.0,0.0,0.0,0.0,0.0,0.0,0.0,0.0,0.0,0.0,0.0,0.0,0.0,0.0,0.0,0.0,0.0,0.0,0.0,0.0,0.0,0.0,0.0,0.0,0.0,0.0,0.0,0.0,0.0,0.0,0.0,0.0,0.0,0.0,0.0,0.0,0.0,0.0,0.0,0.0,0.0,0.0,0.0,0.0,0.0,0.0,-1.9192,-1.9723,-2.0289,-2.0401,-2.0089,-1.9362,-1.8831,-1.8551,-1.8348,-1.7986,0.0,0.0,0.0,0.0,0.0,0.0,0.0,0.0,0.0,0.0,0.0,0.0,0.0,0.0,0.0,0.0,0.0,0.0,0.0,0.0,0.0,0.0,0.0,0.0,0.0,0.0,0.0,0.0,-1.4596,-1.471,-1.3974,0.0,0.0,0.0,0.0,0.0,0.0,0.0,0.0,0.0,0.0,-1.5628,-1.6222,-1.6187,-1.603,-1.5869,-1.5508,-1.4832,-1.381,-1.3401,-1.2885,-1.1903,0.0,0.0,0.0,0.0,0.0,0.0,0.0,0.0,0.0,0.0,0.0,0.0,0.0,0.0,0.0,0.0,0.0,0.0,0.0,0.0,0.0,0.0,0.0,0.0,0.0,0.0,0.0,0.0,0.0,0.0,-2.2278,0.0,0.0,0.0,0.0,0.0,0.0,0.0,0.0,0.0,0.0,0.0,0.0,0.0,0.0,0.0,0.0,0.0,0.0,0.0,0.0,0.0,0.0,-1.9435,-1.9618,-2.0289,-2.0079,-1.9116,-1.9045,-1.8948,-1.893,-1.8569,-1.8552,-1.9165,0.0,0.0,0.0,0.0,0.0,0.0,0.0,0.0,0.0,0.0,0.0,0.0,0.0,0.0,0.0,0.0,0.0,0.0,0.0,0.0,0.0,0.0,0.0,0.0,0.0,0.0,-1.4544,-1.4859,-1.462,0.0,0.0,0.0,0.0,0.0,0.0,0.0,0.0,0.0,0.0,-1.4559,-1.5316,-1.544,-1.5248,-1.524,-1.5511,-1.5217,-1.4593,-1.3665,-1.3375,-1.2991,0.0,0.0,0.0,0.0,0.0,0.0,0.0,0.0,0.0,0.0,0.0,0.0,0.0,0.0,0.0,0.0,0.0,0.0,0.0,0.0,0.0,0.0,0.0,0.0,0.0,0.0,0.0,-2.6101,-2.5872,0.0,0.0,0.0,0.0,0.0,0.0,0.0,0.0,0.0,0.0,0.0,-2.3054,-2.2725,0.0,0.0,0.0,0.0,0.0,0.0,0.0,0.0,0.0,0.0,0.0,0.0,-1.9364,-1.9618,-2.0223,-2.0079,-1.9036,-1.8238,-1.7908,-1.7827,-1.77,-1.8133,-1.9224,0.0,0.0,0.0,0.0,0.0,0.0,0.0,0.0,0.0,0.0,0.0,0.0,0.0,0.0,0.0,0.0,0.0,0.0,0.0,0.0,0.0,0.0,0.0,0.0,0.0,-1.436,0.0,0.0,0.0,0.0,0.0,0.0,0.0,0.0,0.0,0.0,0.0,-1.3878,-1.4212,-1.4705,-1.5205,-1.5566,-1.5557,-1.5539,0.0,0.0,0.0,0.0,0.0,0.0,0.0,0.0,0.0,0.0,0.0,0.0,0.0,0.0,-1.0053,-0.9768,-0.986,-0.9973,-0.9973,0.0,0.0,0.0,0.0,0.0,0.0,0.0,0.0,0.0,0.0,0.0,0.0,0.0,0.0,0.0,0.0,-2.5959,0.0,0.0,0.0,0.0,0.0,0.0,0.0,0.0,-2.4226,-2.4155,-2.3966,-2.3325,-2.2674,0.0,-2.1382,-2.0381,0.0,0.0,0.0,0.0,0.0,0.0,0.0,0.0,-1.9226,-1.9216,-1.9736,-1.9353,-1.79,-1.709,-1.6764,-1.6764,-1.7496,-1.8415,-1.9457,-1.8828,-1.7997,0.0,0.0,0.0,0.0,0.0,0.0,0.0,0.0,0.0,0.0,0.0,0.0,0.0,0.0,0.0,0.0,0.0,0.0,0.0,0.0,0.0,0.0,0.0,-1.473,0.0,0.0,0.0,0.0,0.0,0.0,0.0,0.0,0.0,-1.2621,-1.3116,-1.3518,-1.3815,-1.4258,-1.4566,-1.4791,0.0,0.0,0.0,0.0,0.0,0.0,0.0,-1.3621,-1.2699,-1.2456,-1.2172,-1.168,-1.1328,-1.1162,-1.1155,0.0,0.0,-1.0661,-1.0728,-1.0862,-1.0862,-1.0862,-1.0855,-1.0862,-1.0862,-1.0862,0.0,0.0,0.0,0.0,0.0,0.0,0.0,0.0,-2.9748,-2.9062,0.0,-2.7336,0.0,0.0,0.0,0.0,0.0,-2.5336,0.0,0.0,-2.5159,-2.4801,-2.4369,-2.3069,-2.238,-2.2165,-2.1375,-2.0736,-2.0379,-1.9561,0.0,0.0,0.0,0.0,0.0,0.0,-1.9216,-1.843,-1.8906,-1.798,-1.5944,-1.5786,-1.5786,-1.5869,-1.79,-1.9325,-1.9866,-1.9521,-1.8978,-1.8241,-1.707,0.0,0.0,0.0,0.0,0.0,0.0,0.0,0.0,0.0,0.0,0.0,0.0,0.0,0.0,0.0,0.0,0.0,0.0,0.0,0.0,-1.5349,0.0,0.0,0.0,0.0,0.0,0.0,0.0,0.0,0.0,0.0,-1.221,-1.3216,-1.3623,-1.272,0.0,0.0,0.0,0.0,-1.3411,-1.3985,-1.3905,-1.3695,-1.3492,-1.3266,-1.3039,-1.2666,0.0,0.0,-1.2037,-1.1662,-1.1447,-1.139,-1.172,-1.1797,-1.1496,-1.1443,-1.145,-1.145,-1.145,-1.145,-1.145,-1.1456,-1.1456,-3.3291,0.0,0.0,0.0,0.0,-2.9626,-2.9445,-2.9563,-2.8347,-2.7751,-2.7654,-2.691,0.0,0.0,0.0,0.0,0.0,0.0,-2.5896,-2.5739,-2.5265,-2.4933,-2.4778,-2.3674,-2.2791,-2.2062,-2.1787,-2.1298,-2.0556,-2.0252,-1.9892,-1.9304,0.0,0.0,0.0,0.0,-1.9814,-1.9468,-1.9869,-1.9036,-1.6846,-1.6846,-1.6846,-1.6846,-1.8948,-2.0187,-2.0371,-1.9961,-1.9482,-1.8997,-1.8162,0.0,0.0,0.0,0.0,0.0,0.0,0.0,0.0,0.0,0.0,0.0,0.0,0.0,0.0,0.0,0.0,0.0,0.0,0.0,-1.5775,-1.5762,-1.537,0.0,0.0,0.0,0.0,0.0,0.0,0.0,0.0,0.0,-1.2197,-1.2657,-1.2898,0.0,0.0,-1.3112,-1.3134,-1.3053,-1.3046,-1.3127,0.0,0.0,0.0,-1.282,-1.2746,-1.2599,-1.2445,-1.2372,-1.2218,-1.2085,-1.2064,-1.2038,-1.2158,-1.2144,-1.2078,-1.2051,-1.2044,-1.2051,-1.2051,-1.2051,-1.2051,-1.2051,-1.2051,-3.3646,-3.2494,-3.1847,-3.1241,-3.0691,-3.0323,-2.9912,-2.9351,-2.8608,-2.8075,-2.7722,-2.7092,-2.6596,-2.6138,-2.6074,0.0,0.0,0.0,-2.6059,-2.5531,-2.4767,-2.4181,-2.3745,-2.2787,-2.2038,-2.1441,-2.1441,-2.1155,-2.0576,-2.0576,-2.0466,-2.0093,0.0,0.0,-1.9708,-1.9954,-1.9687,-1.8907,-1.9146,-1.8221,-1.6124,-1.6041,-1.6198,-1.6683,-1.8381,-1.9511,-1.9913,-2.0082,-1.998,-1.9541,-1.8938,-1.8192,0.0,0.0,0.0,0.0,0.0,0.0,0.0,0.0,0.0,0.0,0.0,-1.4852,0.0,0.0,0.0,0.0,-1.6346,-1.6215,-1.596,-1.5905,0.0,0.0,0.0,0.0,0.0,0.0,0.0,-1.2687,-1.2459,-1.2267,-1.2312,-1.241,-1.2452,-1.2452,-1.2599,-1.268,-1.276,0.0,-1.2606,-1.2526,-1.2606,-1.2599,-1.2526,-1.2452,-1.2445,-1.2452,-1.2372,-1.2305,-1.2305,-1.2305,-1.2305,-1.2305,-1.2305,-1.2305,-1.2305,-1.2305,-1.2305,-1.2305,-1.2305,-1.2305,-1.2305,-1.2305,-1.2305,-3.3894,-3.3077,-3.25,-3.1642,-3.0746,-3.1293,-3.0522,-2.9058,-2.9718,-2.9178,-2.7855,-2.767,-2.7064,-2.6138,-2.6138,0.0,-2.5978,-2.635,-2.6,-2.4945,-2.3891,-2.2925,-2.1952,-2.1088,-2.0576,-2.0576,-2.0576,-2.0576,-2.0566,-2.0576,-2.0576,-2.0557,-2.0166,-1.9971,-1.9961,-1.9885,-1.9053,-1.7488,-1.7342,-1.6281,-1.4334,-1.425,-1.4727,-1.5779,-1.6764,-1.79,-1.9125,-1.9991,-2.0304,-1.998,-1.9561,-1.9027,-1.831,0.0,0.0,0.0,0.0,0.0,0.0,0.0,0.0,0.0,0.0,0.0,0.0,0.0,0.0,0.0,-1.7307,0.0,-1.6184,-1.5919,0.0,0.0,0.0,-1.2871,-1.2524,-1.2319,-1.2358,-1.2657,0.0,0.0,-1.2558,0.0,-1.2305,-1.2305,-1.2305,-1.2305,-1.2305,-1.2305,-1.2305,-1.2305,-1.2305,-1.2305,-1.2305,-1.2305,-1.2305,-1.2305,-1.2305,-1.2305,-1.2305,-1.2305,-1.2305,-1.2305,-1.2305,-1.2305,-1.2305,-1.2305,-1.2305,-1.2305,-1.2305,-1.2305,-1.2305,-1.2305,-1.2305,-3.3331,-3.2985,-3.1596,-3.0881,-3.0512,-2.9649,-2.8998,-2.8585,-2.7788,-2.7229,-2.6837,-2.6782,-2.665,-2.64,-2.6388,-2.6388,-2.6332,-2.5673,-2.53,-2.4862,-2.3147,-2.2253,-2.1952,-2.1078,-2.0576,-2.0576,-2.0576,-2.0576,-2.0576,-2.0576,-2.0576,-2.0566,-2.0459,-2.041,-2.041,-1.9615,-1.9025,-1.863,-1.7747,-1.669,-1.5379,-1.5296,-1.5869,-1.6854,-1.7172,-1.8221,-2.0079,-1.9678,-1.9709,-2.04,-2.0,-1.9531,-1.9066,-1.8135,0.0,0.0,0.0,0.0,0.0,0.0,0.0,0.0,0.0,-1.6158,-1.6218,0.0,-1.7238,0.0,-1.7607,-1.7697,-1.7157,-1.6296,0.0,0.0,-1.3795,-1.3114,-1.3042,-1.2748,-1.2559,-1.2629,-1.2417,-1.2298,-1.2365,-1.2298,-1.2305,-1.2305,-1.2305,-1.2305,-1.2305,-1.2305,-1.2305,-1.2305,-1.2305,-1.2305,-1.2305,-1.2305,-1.2305,-1.2305,-1.2305,-1.2305,-1.2305,-1.2305,-1.2305,-1.2305,-1.2305,-1.2305,-1.2305,-1.2305,-1.2305,-1.2305,-1.2305,-1.2305,-1.2305,-1.2305,-1.2305,-3.3254,-3.272,-3.1402,-3.0646,-3.0177,-2.9653,-2.9019,-2.8267,-2.7901,-2.7589,-2.7193,-2.7193,-2.7193,-2.7193,-2.7193,-2.7193,-2.7122,-2.6154,-2.5401,-2.4934,-2.3318,-2.2346,-2.1896,-2.1461,-2.1055,-2.0869,-2.0859,-2.0762,-2.0576,-2.0576,-2.0576,-2.0576,-2.0576,-2.0411,-1.9913,-1.9274,-1.855,-1.7488,-1.6437,-1.5545,-1.4977,-1.4977,-1.5296,-1.6034,-1.669,-1.7666,-1.8957,-1.9213,-1.9539,-2.0245,-2.0188,-1.9934,-1.958,-1.8936,-1.8193,0.0,0.0,0.0,0.0,0.0,0.0,0.0,0.0,0.0,0.0,0.0,-1.7666,-1.7666,-1.7513,-1.7217,-1.6872,-1.5737,-1.4887,-1.4338,-1.3557,-1.2973,-1.2826,-1.2599,-1.2452,-1.2452,-1.2378,-1.2305,-1.2305,-1.2305,-1.2305,-1.2305,-1.2305,-1.2305,-1.2305,-1.2305,-1.2305,-1.2305,-1.2305,-1.2305,-1.2305,-1.2305,-1.2305,-1.2305,-1.2305,-1.2305,-1.2305,-1.2305,-1.2305,-1.2305,-1.2305,-1.2305,-1.2305,-1.2305,-1.2305,-1.2305,-1.2305,-1.2305,-1.2305,-1.2305,-1.2305,-3.331,-3.2307,-3.1402,-3.0558,-2.9871,-3.0326,-2.9636,-2.827,-2.8951,-2.8782,-2.8109,-2.8109,-2.8109,-2.8109,-2.795,-2.7877,-2.7804,-2.6637,-2.5635,-2.4759,-2.3652,-2.2717,-2.1885,-2.1894,-2.1689,-2.1328,-2.1328,-2.1113,-2.0742,-2.0732,-2.0732,-2.0732,-2.0684,-2.0165,-1.9109,-1.8904,-1.7738,-1.5696,-1.4657,-1.4088,-1.4088,-1.4088,-1.4243,-1.4643,-1.5794,-1.6698,-1.7196,-1.8585,-1.9548,-1.9863,-2.0186,-2.0246,-2.001,-1.959,-1.9033,0.0,-1.7812,0.0,0.0,0.0,0.0,0.0,0.0,0.0,0.0,-1.7773,-1.8008,-1.8008,-1.7139,-1.6428,-1.607,-1.4942,-1.3962,-1.3331,-1.2973,-1.2673,-1.2378,-1.2305,-1.2305,-1.2305,-1.2305,-1.2311,-1.2365,-1.2358,-1.2365,-1.2438,-1.2438,-1.2438,-1.2432,-1.2425,-1.2412,-1.2365,-1.2392,-1.2492,-1.2478,-1.2452,-1.2452,-1.2438,-1.2465,-1.2418,-1.2458,-1.2445,-1.2432,-1.2438,-1.2465,-1.2445,-1.2418,-1.2438,-1.2438,-1.2465,-1.2472,-1.2438,-1.2331,-1.2305,-1.2305,-3.2321,-3.1402,-3.0495,-2.9921,-2.9844,-2.9923,-2.9491,-2.875,-2.8445,-2.823,-2.8109,-2.8109,-2.8109,-2.8036,-2.7186,-2.6812,-2.6649,-2.4826,-2.3801,-2.3562,-2.2656,-2.203,-2.1894,-2.1894,-2.1846,-2.1768,-2.1758,-2.1719,-2.1641,-2.1641,-2.1641,-2.1621,-2.1289,-2.0514,-1.9498,0.0,0.0,0.0,-1.465,-1.4088,-1.4088,-1.4088,-1.4657,-1.5628,-1.5304,0.0,-1.8256,-1.8184,-1.8656,-1.9863,-2.0186,0.0,0.0,0.0,0.0,0.0,0.0,0.0,0.0,0.0,0.0,0.0,-1.7451,-1.736,-1.7383,-1.7773,-1.8008,-1.8008,-1.7148,-1.6558,-1.6498,-1.4879,-1.3738,-1.3608,-1.2886,-1.2372,-1.2305,-1.2311,-1.2305,-1.2305,-1.2311,-1.2405,-1.2625,-1.2735,-1.2759,-1.2953,-1.3067,-1.3054,-1.3006,-1.2802,-1.2689,-1.2699,-1.2839,-1.3013,-1.3039,-1.3013,-1.2979,-1.3039,-1.3039,-1.3019,-1.3006,-1.3013,-1.3026,-1.3013,-1.3046,-1.3019,-1.3019,-1.3039,-1.2999,-1.3039,-1.3026,-1.2893,-1.2412,-1.2311,-1.2305,-3.2654,0.0,-3.0355,-2.9779,0.0,-2.9779,-2.9628,-2.934,-2.9063,-2.895,-2.8938,-2.8938,-2.8938,-2.8938,-2.8383,-2.8154,-2.8078,-2.6438,-2.5378,-2.4822,-2.3784,-2.2988,-2.251,-2.25,-2.2402,-2.2197,-2.2197,-2.209,-2.1894,-2.1894,-2.1894,-2.1885,-2.166,-2.0696,-1.897,-1.6952,-1.5624,-1.4894,-1.4419,-1.4088,-1.4088,-1.4088,-1.4496,-1.5137,0.0,0.0,0.0,0.0,0.0,0.0,0.0,0.0,0.0,0.0,0.0,-1.9922,-1.9502,-1.918,-1.8965,-1.8555,-1.8418,-1.8613,-1.8252,-1.792,-1.7715,-1.7891,-1.8008,-1.794,-1.6715,-1.593,-1.586,-1.4163,-1.3025,-1.2952,-1.2592,-1.2351,-1.2485,-1.2525,-1.2585,-1.2726,-1.2752,-1.2812,-1.2959,-1.2979,-1.3033,-1.318,-1.3218,-1.3198,-1.3193,-1.3041,-1.2975,-1.2999,-1.3093,-1.3206,-1.3206,-1.3206,-1.3213,-1.3206,-1.3206,-1.3206,-1.3206,-1.3206,-1.3206,-1.3206,-1.3206,-1.3206,-1.3206,-1.3206,-1.3206,-1.3206,-1.3206,-1.3133,-1.2806,-1.2752,-1.2752,-3.3234,-3.2272,-3.0611,-2.9942,-2.993,-2.9842,-2.9779,-2.9779,0.0,0.0,0.0,-2.9779,-2.9779,-2.9792,-2.9611,-2.9378,-2.9131,-2.8016,-2.6942,-2.5891,-2.4967,-2.3963,-2.3135,-2.3144,-2.2969,-2.2627,-2.2627,-2.2441,-2.2119,-2.2109,-2.2109,-2.21,-2.2041,-2.0913,-1.8742,-1.6586,-1.5205,-1.4501,-1.4193,-1.4166,-1.4412,-1.4166,-1.4159,-1.4398,-1.4824,-1.5575,-1.6706,-1.7521,-1.8487,-1.9529,-2.0029,-2.042,-2.0566,-2.0576,-2.041,-2.0068,-2.0029,-1.9873,-1.9541,-1.9443,-1.9365,-1.9297,-1.8744,-1.8168,-1.7764,-1.794,-1.7872,-1.751,-1.6088,-1.5171,-1.495,-1.3441,-1.2378,-1.2378,-1.2432,-1.2572,-1.2792,-1.2903,-1.2926,-1.316,-1.318,-1.3233,-1.328,-1.3287,-1.3313,-1.336,-1.3407,-1.3367,-1.3373,-1.3286,-1.3299,-1.3407,-1.3434,-1.3394,-1.3373,-1.34,-1.3367,-1.3414,-1.34,-1.3367,-1.3367,-1.3367,-1.3367,-1.3414,-1.3367,-1.3387,-1.338,-1.3407,-1.3367,-1.336,-1.336,-1.3367,-1.3367,-1.3367,-1.332,-3.3252,-3.15,-3.075,-3.0495,-3.0457,-2.9993,-2.9779,-2.9779,-2.9779,-2.9779,-2.9779,-2.9779,-2.9779,-2.9714,-2.8779,-2.7855,-2.6883,-2.5797,-2.4628,0.0,-2.3377,-2.3309,-2.3135,-2.3144,-2.3105,-2.3057,-2.3047,-2.3018,-2.2969,-2.2959,-2.2959,-2.291,-2.2598,-2.1532,-2.0054,-1.9542,-1.8304,-1.6037,-1.4698,-1.4573,-1.5455,-1.4573,-1.4243,-1.4391,-1.465,-1.4985,-1.5643,-1.7033,-1.8006,-1.855,-1.9687,-2.0411,-2.0566,-2.0576,-2.0537,-2.0478,-2.0469,-2.0449,-2.0371,-2.0039,-1.9668,-1.9307,-1.814,-1.7222,-1.689,-1.7579,-1.7373,-1.5807,-1.5313,-1.4807,-1.4042,-1.3198,-1.2685,-1.2705,-1.2919,-1.31,-1.314,-1.3146,-1.3173,-1.324,-1.3206,-1.3333,-1.354,-1.3499,-1.3674,-1.3881,-1.3868,-1.3935,-1.3881,-1.3761,-1.3658,-1.3901,-1.3961,-1.3961,-1.3895,-1.3955,-1.3915,-1.3961,-1.3928,-1.3895,-1.3888,-1.3888,-1.3895,-1.3941,-1.3901,-1.3915,-1.3921,-1.3961,-1.3915,-1.3895,-1.3888,-1.3908,-1.3895,-1.3908,-1.3781,-3.4706,-3.3052,-3.2202,-3.157,-3.0997,-3.047,-3.0068,-2.9804,-2.9779,-2.9779,-2.9779,-2.9779,-2.9779,-2.9792,-2.9275,-2.8779,-2.8211,-2.7105,-2.6036,-2.4978,-2.4307,-2.3714,-2.3135,-2.3144,-2.3144,-2.3144,-2.3144,-2.3144,-2.3144,-2.3144,-2.3144,-2.3028,-2.2301,-2.1475,-2.0839,-2.0026,-1.8961,-1.766,-1.6056,-1.5148,-1.4817,-1.4328,-1.4405,-1.5047,-1.465,-1.5304,-1.7253,-1.7432,-1.8149,-1.9511,-2.0157,-2.0489,-2.0566,-2.0576,-2.0576,-2.0576,-2.0576,-2.0576,-2.0576,-2.0381,-1.985,-1.8826,-1.8154,-1.7121,-1.5618,-1.6102,-1.6088,-1.5242,-1.4905,-1.4529,-1.4022,-1.3425,-1.2993,-1.2999,-1.3133,-1.3273,-1.3414,-1.3447,-1.3507,-1.3654,-1.3687,-1.3741,-1.3868,-1.3881,-1.3915,-1.4068,-1.4088,-1.4088,-1.4088,-1.3975,-1.3921,-1.4055,-1.4088,-1.4082,-1.4088,-1.4088,-1.4088,-1.4088,-1.4088,-1.4088,-1.4088,-1.4088,-1.4088,-1.4088,-1.4088,-1.4088,-1.4088,-1.4088,-1.4088,-1.4088,-1.4088,-1.4088,-1.4088,-1.4088,-1.3988,-3.6258,-3.4727,-3.3617,-3.2525,-3.1348,-3.0959,-3.047,-3.0005,-2.998,-2.9905,-2.9792,-2.9779,-2.9779,-2.9779,-2.9779,-2.9624,-2.9287,-2.8518,-2.736,-2.6141,-2.521,-2.4211,-2.3222,-2.3144,-2.3144,-2.3144,-2.3144,-2.3144,-2.3144,-2.3144,-2.3144,-2.3047,-2.212,-2.1747,-2.1658,-2.0563,-1.9752,-1.9184,-1.7699,-1.6126,-1.4606,-1.4345,-1.4558,-1.522,-1.4573,-1.5387,-1.798,-1.7415,-1.7971,-2.0079,-2.0245,-2.0323,-2.0566,-2.0576,-2.0576,-2.0576,-2.0576,-2.0479,-2.0245,-1.9991,-1.9381,-1.8213,-1.7865,-1.6838,-1.5063,-1.4757,-1.4767,-1.4718,-1.4433,-1.4275,-1.3939,-1.359,-1.3307,-1.3307,-1.3373,-1.3514,-1.3701,-1.3741,-1.3821,-1.4048,-1.4088,-1.4075,-1.4088,-1.4088,-1.4082,-1.4075,-1.4088,-1.4088,-1.4088,-1.4088,-1.4088,-1.4088,-1.4088,-1.4088,-1.4088,-1.4088,-1.4088,-1.4088,-1.4088,-1.4088,-1.4088,-1.4088,-1.4088,-1.4088,-1.4088,-1.4088,-1.4088,-1.4088,-1.4088,-1.4088,-1.4088,-1.4088,-1.4088,-1.4088,-1.4088,-3.7048,-3.5871,-3.4432,-3.2836,-3.1493,-3.1348,-3.1022,-3.057,-3.0545,-3.0256,-2.9842,-2.9792,-2.9804,-2.9779,-2.9779,-2.9275,-2.8438,-2.8176,-2.7023,-2.521,-2.4872,-2.4221,-2.3212,-2.3144,-2.3144,-2.3144,-2.3144,-2.3144,-2.3144,-2.3144,-2.3144,-2.3144,-2.296,-2.2862,-2.2853,-2.2726,-2.207,-2.0725,-1.9511,-1.7906,-1.6019,-1.4981,-1.4355,-1.4264,-1.4166,-1.4657,-1.6191,-1.5861,-1.6919,-1.8877,-1.9204,-1.9599,-2.0411,-2.0566,-2.0576,-2.0566,-2.0566,-2.0157,-1.9204,-1.823,-1.7641,-1.7357,-1.6541,-1.5808,-1.5165,-1.4266,-1.3618,-1.3597,-1.4144,-1.4151,-1.3416,-1.3434,-1.3601,-1.3614,-1.3814,-1.4021,-1.4021,-1.4048,-1.4062,-1.4075,-1.4088,-1.4088,-1.4088,-1.4088,-1.4088,-1.4088,-1.4088,-1.4088,-1.4088,-1.4088,-1.4088,-1.4088,-1.4088,-1.4088,-1.4088,-1.4088,-1.4088,-1.4088,-1.4088,-1.4088,-1.4088,-1.4088,-1.4088,-1.4088,-1.4088,-1.4088,-1.4088,-1.4088,-1.4088,-1.4088,-1.4088,-1.4088,-1.4088,-1.4088,-1.4088,-3.8144,-3.7007,-3.5778,-3.3938,-3.1984,-3.1876,-3.1574,-3.1085,-3.1072,-3.0771,-3.0306,-3.0281,-3.0105,-2.9792,-2.9779,-2.9534,-2.9106,-2.8426,-2.7671,-2.6685,-2.5452,-2.4542,-2.4135,-2.3387,-2.3144,-2.3144,-2.3144,-2.3144,-2.3144,-2.3144,-2.3144,-2.3144,-2.3144,-2.3144,-2.3144,-2.3144,-2.2406,-2.1146,-2.0696,-1.955,-1.7922,-1.6305,-1.5376,-1.5326,-1.5732,-1.6527,-1.7488,-1.7658,-1.8381,-1.9766,-1.9923,-1.9844,-1.9687,-2.0245,-2.0323,-1.9766,-1.9678,-1.9195,-1.806,-1.7585,-1.7009,-1.6437,-1.6114,-1.5643,-1.471,-1.4125,-1.3823,-1.379,-1.3885,-1.3849,-1.3487,-1.3734,-1.3908,-1.3921,-1.4015,-1.4088,-1.4088,-1.4088,-1.4088,-1.4088,-1.4088,-1.4088,-1.4088,-1.4088,-1.4088,-1.4088,-1.4088,-1.4088,-1.4088,-1.4088,-1.4088,-1.4088,-1.4088,-1.4088,-1.4088,-1.4088,-1.4088,-1.4088,-1.4088,-1.4088,-1.4088,-1.4088,-1.4088,-1.4088,-1.4088,-1.4088,-1.4088,-1.4088,-1.4088,-1.4088,-1.4088,-1.4088,-1.4088,-1.4088,-1.4088,-3.8943,-3.8144,-3.7084,-3.5183,-3.2931,-3.2918,-3.2364,-3.165,-3.1612,-3.1323,-3.0834,-3.0683,-3.0394,-3.003,-2.9867,-2.9779,-2.9702,-2.8949,-2.8438,-2.7924,-2.6119,-2.5126,-2.4702,-2.3637,-2.3144,-2.3144,-2.3144,-2.3144,-2.3144,-2.3144,-2.3144,-2.3144,-2.3144,-2.3144,-2.3144,-2.3144,-2.2677,-2.1845,-2.148,-2.0793,-1.9672,-1.8135,-1.7126,-1.6776,-1.721,-1.7938,-1.8966,-1.8718,-1.9036,-2.0089,-2.0157,-1.9844,-1.9116,-2.0001,-2.0157,-1.9116,-1.839,-1.7738,-1.6927,-1.6609,-1.6124,-1.5387,-1.5499,-1.518,-1.4341,-1.4088,-1.4088,-1.4055,-1.3888,-1.3761,-1.3788,-1.3961,-1.4082,-1.4088,-1.4088,-1.4088,-1.4088,-1.4088,-1.4088,-1.4088,-1.4088,-1.4088,-1.4088,-1.4088,-1.4088,-1.4088,-1.4088,-1.4088,-1.4088,-1.4088,-1.4088,-1.4088,-1.4088,-1.4088,-1.4088,-1.4088,-1.4088,-1.4088,-1.4088,-1.4088,-1.4088,-1.4088,-1.4088,-1.4088,-1.4088,-1.4088,-1.4088,-1.4088,-1.4088,-1.4088,-1.4088,-1.4088,-1.4088,-1.4088,-1.4088,-3.9352,-3.9104,-3.8159,-3.6448,-3.4541,-3.4528,-3.3649,-3.219,-3.2177,-3.1876,-3.1323,-3.0884,-3.062,-3.052,-3.0055,-2.9804,-2.9792,-2.9702,-2.9118,-2.8176,-2.6953,-2.588,-2.4798,-2.3637,-2.3135,-2.3222,-2.3309,-2.3222,-2.3135,-2.3144,-2.3144,-2.3144,-2.3144,-2.3144,-2.3144,-2.3144,-2.3047,-2.2775,-2.1943,-2.1275,-2.1123,-2.0676,-1.96,-1.8255,-1.8037,-1.8422,-1.886,-1.7997,-1.798,-1.9036,-1.9195,-1.9116,-1.9125,-1.9913,-2.0001,-1.8877,-1.7001,-1.5861,-1.5696,-1.4985,-1.4334,-1.425,-1.4334,-1.4257,-1.4173,-1.4088,-1.4088,-1.4088,-1.4055,-1.4035,-1.4035,-1.4055,-1.4088,-1.4088,-1.4088,-1.4088,-1.4088,-1.4088,-1.4088,-1.4088,-1.4088,-1.4088,-1.4088,-1.4088,-1.4088,-1.4088,-1.4088,-1.4088,-1.4088,-1.4088,-1.4088,-1.4088,-1.4088,-1.4088,-1.4088,-1.4088,-1.4088,-1.4088,-1.4088,-1.4088,-1.4088,-1.4088,-1.4088,-1.4088,-1.4088,-1.4088,-1.4088,-1.4088,-1.4088,-1.4088,-1.4088,-1.4088,-1.4088,-1.4088,-1.3997,-3.9031,-3.8397,-3.7994,-3.6568,-3.4746,-3.4677,-3.3978,-3.2852,-3.2767,-3.2453,-3.1951,-3.1712,-3.126,-3.0608,-3.0407,-3.0131,-2.9804,-2.9779,-2.9546,-2.904,-2.8028,-2.7267,-2.686,-2.5797,-2.4893,-2.4296,-2.4221,-2.38,-2.3135,-2.3144,-2.3144,-2.3144,-2.3144,-2.3144,-2.3144,-2.3144,-2.3144,-2.3047,-2.2589,-2.2492,-2.2394,-2.2339,-2.1738,-2.0931,-2.0329,-1.9824,-1.9408,-1.9412,-1.9599,-2.001,-2.0001,-1.9687,-1.9036,-1.8709,-1.798,-1.7001,-1.6108,-1.5379,-1.4734,-1.4328,-1.4088,-1.4088,-1.4088,-1.4088,-1.4088,-1.4088,-1.4088,-1.4088,-1.4088,-1.4088,-1.4088,-1.4088,-1.4088,-1.4088,-1.4088,-1.4088,-1.4088,-1.4088,-1.4088,-1.4088,-1.4088,-1.4088,-1.4088,-1.4088,-1.4088,-1.4088,-1.4088,-1.4088,-1.4088,-1.4088,-1.4088,-1.4088,-1.4088,-1.4088,-1.4088,-1.4088,-1.4088,-1.4088,-1.4088,-1.4088,-1.4088,-1.4088,-1.4088,-1.4088,-1.4088,-1.4088,-1.4088,-1.4088,-1.4088,-1.4088,-1.4088,-1.4088,-1.4088,-1.4088,-1.373,-3.8943,-3.8383,-3.8308,-3.7357,-3.5775,-3.5292,-3.4568,-3.3641,-3.3227,-3.2855,-3.2516,-3.229,-3.18,-3.1135,-3.0783,-3.0432,-3.0055,-2.988,-2.9779,-2.9702,-2.8597,-2.8084,-2.7936,-2.7046,-2.6141,-2.5378,-2.4957,-2.4211,-2.3222,-2.3144,-2.3144,-2.3144,-2.3144,-2.3144,-2.3144,-2.3144,-2.3144,-2.3144,-2.3144,-2.3047,-2.3144,-2.3144,-2.3008,-2.2666,-2.2012,-2.1149,-2.0151,-2.0466,-2.0401,-2.0167,-2.0401,-2.0079,-1.9036,-1.7908,-1.6846,-1.5869,-1.5379,-1.4901,-1.425,-1.4088,-1.4088,-1.4088,-1.4088,-1.4088,-1.4088,-1.4088,-1.4088,-1.4088,-1.4088,-1.4108,-1.4208,-1.4229,-1.4188,-1.4115,-1.4088,-1.4128,-1.4117,-1.4229,-1.4235,-1.4249,-1.4249,-1.4202,-1.4108,-1.4088,-1.4088,-1.4088,-1.4088,-1.4088,-1.4088,-1.4088,-1.4088,-1.4088,-1.4088,-1.4088,-1.4088,-1.4088,-1.4088,-1.4088,-1.4088,-1.4088,-1.4088,-1.4088,-1.4088,-1.4088,-1.4088,-1.4088,-1.4088,-1.4088,-1.4088,-1.4088,-1.4088,-1.4088,-1.4088,-1.4088,-1.3555,-3.9424,-3.9352,-3.9352,-3.862,-3.7434,-3.6618,-3.5668,-3.4664,-3.37,-3.3348,-3.3136,-3.2563,-3.2382,-3.1951,-3.1173,-3.067,-3.047,-3.008,-2.9842,-2.9714,-2.8767,-2.8255,-2.8187,-2.7371,-2.673,-2.6472,-2.5378,-2.4296,-2.3299,-2.3299,-2.3222,-2.3135,-2.3144,-2.3144,-2.3144,-2.3144,-2.3144,-2.3144,-2.3144,-2.3144,-2.3144,-2.3144,-2.3125,-2.3057,-2.2646,-2.1977,-2.1238,-2.085,-2.0205,-1.9441,-2.0089,-2.0079,-1.9036,-1.7989,-1.6927,-1.5869,-1.4817,-1.425,-1.4166,-1.4166,-1.4088,-1.4088,-1.4088,-1.4088,-1.4088,-1.4088,-1.4088,-1.4088,-1.4128,-1.4215,-1.4442,-1.4516,-1.4436,-1.4162,-1.4195,-1.4203,-1.4262,-1.4328,-1.4516,-1.4516,-1.4522,-1.4402,-1.4202,-1.4195,-1.4222,-1.4215,-1.4182,-1.4188,-1.4215,-1.4208,-1.4122,-1.4115,-1.4108,-1.4088,-1.4088,-1.4088,-1.4088,-1.4088,-1.4088,-1.4088,-1.4088,-1.4088,-1.4088,-1.4088,-1.4088,-1.4088,-1.4088,-1.4088,-1.4088,-1.4088,-1.4088,-1.4088,-1.4088,-1.3997,-1.3209,-3.9828,-3.9439,-3.9424,-3.8797,-3.7829,-3.742,-3.671,-3.5748,-3.5346,-3.4897,-3.4223,-3.3996,-3.3296,-3.2298,-3.1825,-3.1311,-3.0633,-3.0419,-3.0168,-2.9764,-2.9443,-2.9197,-2.9197,-2.887,-2.8371,-2.7533,-2.6461,-2.5389,-2.4467,-2.4296,-2.3877,-2.3222,-2.3135,-2.3144,-2.3144,-2.3144,-2.3144,-2.3144,-2.3144,-2.3144,-2.3144,-2.3144,-2.3144,-2.3096,-2.2734,-2.2363,-2.21,-2.1416,-2.0731,-2.0117,-2.0411,-2.0089,-1.9195,-1.863,-1.798,-1.6846,-1.5786,-1.5213,-1.5047,-1.4489,-1.4088,-1.4088,-1.4088,-1.4088,-1.4088,-1.4088,-1.4088,-1.4115,-1.4262,-1.4442,-1.4529,-1.4716,-1.477,-1.4696,-1.4689,-1.4689,-1.4694,-1.483,-1.4823,-1.4823,-1.4823,-1.4776,-1.4716,-1.4676,-1.4643,-1.4629,-1.465,-1.4703,-1.471,-1.4516,-1.4362,-1.4402,-1.4269,-1.4168,-1.4222,-1.4262,-1.4255,-1.4208,-1.4162,-1.4095,-1.4088,-1.4088,-1.4088,-1.4088,-1.4088,-1.4088,-1.4088,-1.4088,-1.4088,-1.4088,-1.4088,-1.4088,-1.4088,-1.3737,-1.3209,-4.0157,-3.9768,-3.9514,-3.9031,-3.8383,-3.7994,-3.7434,-3.6774,-3.6355,-3.5668,-3.4897,-3.5129,-3.4219,-3.284,-3.2708,-3.211,-3.0934,-3.0721,-3.0331,-2.9854,-2.9779,-2.9779,-2.9779,-2.9779,-2.9197,-2.8176,-2.7441,-2.6543,-2.5462,-2.4957,-2.4457,-2.38,-2.3299,-2.3144,-2.3144,-2.3144,-2.3144,-2.3144,-2.3144,-2.3144,-2.3144,-2.3144,-2.3144,-2.3096,-2.2881,-2.2685,-2.25,-2.1982,-2.1426,-2.0908,-2.0674,-2.0079,-1.9125,-1.8966,-1.8301,-1.6927,-1.6108,-1.5538,-1.5137,-1.4412,-1.4088,-1.4088,-1.4088,-1.4088,-1.4088,-1.4088,-1.4115,-1.4262,-1.4409,-1.4609,-1.483,-1.4997,-1.5164,-1.5277,-1.5064,-1.503,-1.509,-1.5224,-1.5217,-1.517,-1.513,-1.5077,-1.4997,-1.506,-1.506,-1.5033,-1.5055,-1.5001,-1.4999,-1.4836,-1.4756,-1.4683,-1.4609,-1.4522,-1.4449,-1.4442,-1.4442,-1.4355,-1.4269,-1.4162,-1.4088,-1.4088,-1.4088,-1.4088,-1.4088,-1.4088,-1.4088,-1.4088,-1.4088,-1.4088,-1.4142,-1.4088,-1.4088,-1.4088,-1.3476,-4.0487,-4.0322,-3.9738,-3.9412,-3.9192,-3.8383,-3.7979,-3.7738,-3.693,-3.6067,-3.5373,-3.5748,-3.5021,-3.3643,-3.348,-3.2692,-3.1562,-3.0934,-3.0444,-3.0018,-2.9829,-2.9779,-2.9779,-2.9779,-2.9275,-2.8426,-2.8255,-2.7602,-2.6554,-2.5786,-2.4872,-2.4628,-2.38,-2.3135,-2.3135,-2.3144,-2.3144,-2.3144,-2.3144,-2.3144,-2.3144,-2.3144,-2.3144,-2.3144,-2.3105,-2.2939,-2.2646,-2.2383,-2.1982,-2.1289,-2.0791,-2.0167,-1.9362,-1.9125,-1.8301,-1.6593,-1.6026,-1.5538,-1.4734,-1.4334,-1.4166,-1.4334,-1.4166,-1.4088,-1.4088,-1.4142,-1.4249,-1.4449,-1.4583,-1.4823,-1.5224,-1.5398,-1.5524,-1.5691,-1.5378,-1.5231,-1.5398,-1.5638,-1.5611,-1.5464,-1.5404,-1.5337,-1.5124,-1.5097,-1.509,-1.5084,-1.5174,-1.5201,-1.5174,-1.5097,-1.501,-1.495,-1.489,-1.479,-1.4689,-1.4689,-1.4683,-1.4629,-1.4516,-1.4382,-1.4188,-1.4142,-1.4088,-1.4088,-1.4168,-1.4148,-1.4168,-1.4235,-1.4282,-1.4342,-1.4302,-1.4168,-1.4188,-1.4282,-1.3774,-4.128,-4.0397,-4.0217,-3.9858,-3.9382,-3.9104,-3.8943,-3.8943,-3.8694,-3.7814,-3.7035,-3.6383,-3.5588,-3.4319,-3.3546,-3.2769,-3.2009,-3.1399,-3.0909,-3.0394,-2.9955,-2.9804,-2.9779,-2.9779,-2.9624,-2.9287,-2.9197,-2.8767,-2.7775,-2.7267,-2.6356,-2.4787,-2.4532,-2.3877,-2.3222,-2.3135,-2.3144,-2.3144,-2.3144,-2.3144,-2.3144,-2.3144,-2.3144,-2.3144,-2.3144,-2.3086,-2.291,-2.2373,-2.1816,-2.1269,-2.081,-2.0489,-2.0157,-2.0079,-1.9678,-1.8948,-1.7649,-1.7172,-1.709,-1.5394,-1.458,-1.5144,-1.4496,-1.4088,-1.4095,-1.4289,-1.4422,-1.4596,-1.4877,-1.5211,-1.5404,-1.5585,-1.5738,-1.5785,-1.5638,-1.5585,-1.5685,-1.5772,-1.5785,-1.5725,-1.5698,-1.5631,-1.5585,-1.5551,-1.5551,-1.5551,-1.5545,-1.5545,-1.5458,-1.5364,-1.5284,-1.5197,-1.5124,-1.5017,-1.5026,-1.5026,-1.493,-1.4897,-1.481,-1.4703,-1.4469,-1.4269,-1.4168,-1.4088,-1.4362,-1.4422,-1.4509,-1.4596,-1.4623,-1.4609,-1.4636,-1.4596,-1.4683,-1.477,-1.4097,-4.1908,-4.1175,-4.0636,-4.0187,-3.9798,-3.9529,-3.9424,-3.9424,-3.9352,-3.8797,-3.7904,-3.7724,-3.6696,-3.5359,-3.4719,-3.384,-3.2885,-3.1858,-3.1097,-3.0583,-3.0043,-2.9804,-2.9779,-2.9779,-2.9779,-2.9779,-2.9779,-2.9443,-2.8779,-2.8347,-2.7348,-2.6273,-2.5199,-2.4457,-2.3877,-2.3299,-2.3144,-2.3144,-2.3144,-2.3144,-2.3144,-2.3144,-2.3144,-2.3144,-2.3144,-2.3144,-2.3047,-2.249,-2.1885,-2.1309,-2.083,-2.0576,-2.0576,-2.0576,-2.0411,-2.0001,-1.8709,-1.8149,-1.7819,-1.6034,-1.5137,-1.5379,-1.4734,-1.4166,-1.4135,-1.4349,-1.4536,-1.475,-1.515,-1.5411,-1.5585,-1.5738,-1.5812,-1.5825,-1.5825,-1.5825,-1.5825,-1.5818,-1.5825,-1.5825,-1.5825,-1.5825,-1.5825,-1.5825,-1.5825,-1.5812,-1.5772,-1.5778,-1.5765,-1.5651,-1.5551,-1.5464,-1.5438,-1.5378,-1.5344,-1.5344,-1.5317,-1.5271,-1.5144,-1.503,-1.4783,-1.4529,-1.4482,-1.4469,-1.4616,-1.4736,-1.483,-1.4877,-1.4836,-1.4856,-1.5046,-1.499,-1.501,-1.509,-1.4417,-4.2417,-4.2252,-4.101,-4.0457,-4.0277,-3.9709,-3.9424,-3.9424,-3.9424,-3.8943,-3.8308,-3.887,-3.7814,-3.6369,-3.5974,-3.5289,-3.3765,-3.2371,-3.1263,-3.0574,-3.0018,-2.9779,-2.9779,-2.9779,-2.9779,-2.9779,-2.9779,-2.9779,-2.9443,-2.8767,-2.8255,-2.751,-2.6025,-2.5126,-2.4628,-2.3963,-2.3387,-2.3135,-2.3387,-2.3309,-2.3135,-2.3144,-2.3144,-2.3144,-2.3144,-2.3144,-2.3037,-2.2685,-2.2168,-2.1426,-2.0908,-2.0674,-2.0615,-2.0576,-2.0245,-1.952,-1.9116,-1.855,-1.7819,-1.6838,-1.5869,-1.5869,-1.4977,-1.42,-1.4287,-1.4442,-1.4723,-1.499,-1.5277,-1.5558,-1.5738,-1.5825,-1.5825,-1.5825,-1.5825,-1.5825,-1.5825,-1.5825,-1.5825,-1.5825,-1.5825,-1.5825,-1.5825,-1.5825,-1.5825,-1.5825,-1.5825,-1.5825,-1.5825,-1.5758,-1.5725,-1.5725,-1.5738,-1.5778,-1.5765,-1.5765,-1.5725,-1.5678,-1.5511,-1.5357,-1.5214,-1.5033,-1.5013,-1.4937,-1.4943,-1.5017,-1.5046,-1.504,-1.511,-1.5157,-1.5291,-1.5197,-1.5117,-1.5257,-1.4923,-4.2836,-4.2297,-4.1504,-4.0876,-4.0337,-3.9709,-3.9424,-3.9424,-3.9424,-3.9265,-3.8943,-3.8472,-3.7979,-3.7434,-3.6604,-3.5573,-3.4512,-3.3158,-3.1745,-3.0018,-2.988,-2.9792,-2.9779,-2.9779,-2.9779,-2.9779,-2.9779,-2.9779,-2.9611,-2.9443,-2.8937,-2.8096,-2.751,-2.6521,-2.5115,-2.5305,-2.4723,-2.3637,-2.3887,-2.38,-2.3222,-2.3144,-2.3144,-2.3144,-2.3144,-2.3144,-2.3057,-2.2734,-2.2432,-2.21,-2.1523,-2.0967,-2.0693,-2.0586,-2.0411,-2.0079,-1.9441,-1.9274,-1.9353,-1.806,-1.6927,-1.6764,-1.5884,-1.5084,-1.4429,-1.4676,-1.4977,-1.5277,-1.5558,-1.5738,-1.5812,-1.5825,-1.5825,-1.5825,-1.5825,-1.5825,-1.5825,-1.5825,-1.5825,-1.5825,-1.5825,-1.5825,-1.5825,-1.5825,-1.5825,-1.5825,-1.5825,-1.5825,-1.5825,-1.5825,-1.5825,-1.5825,-1.5825,-1.5825,-1.5825,-1.5825,-1.5825,-1.5825,-1.5725,-1.5645,-1.551,-1.5342,-1.5197,-1.5177,-1.5177,-1.5277,-1.5312,-1.5438,-1.5531,-1.5578,-1.5585,-1.5524,-1.5478,-1.5545,-1.4859,-4.3135,-4.2716,-4.1788,-4.119,-4.0741,-3.9843,-3.9424,-3.9424,-3.9424,-3.9424,-3.9265,-3.8782,-3.8546,-3.8472,-3.7496,-3.6632,-3.5727,-3.3846,-3.1811,-3.0226,-2.9792,-2.9792,-2.9779,-2.9779,-2.9779,-2.9779,-2.9779,-2.9779,-2.9779,-2.9779,-2.9456,-2.8858,-2.8426,-2.751,-2.6273,-2.6036,-2.5052,-2.4135,-2.3877,-2.3627,-2.3222,-2.3144,-2.3144,-2.3144,-2.3144,-2.3144,-2.3105,-2.2949,-2.2715,-2.2412,-2.1894,-2.1338,-2.0918,-2.0684,-2.0576,-2.0479,-2.0157,-1.9923,-2.0001,-1.9116,-1.7827,-1.7261,-1.6273,-1.53,-1.472,-1.4696,-1.5003,-1.5244,-1.5538,-1.5825,-1.5825,-1.5825,-1.5825,-1.5825,-1.5825,-1.5825,-1.5825,-1.5825,-1.5825,-1.5825,-1.5825,-1.5825,-1.5825,-1.5825,-1.5825,-1.5825,-1.5825,-1.5825,-1.5825,-1.5825,-1.5825,-1.5825,-1.5825,-1.5825,-1.5825,-1.5825,-1.5825,-1.5825,-1.5798,-1.5765,-1.5671,-1.5538,-1.5418,-1.5431,-1.5458,-1.5538,-1.5665,-1.5798,-1.5825,-1.5765,-1.5738,-1.5798,-1.5798,-1.5712,-1.4539,-4.3344,-4.3225,-4.1923,-4.1384,-4.1175,-3.9978,-3.9424,-3.9424,-3.9424,-3.9424,-3.9424,-3.9424,-3.9265,-3.9177,-3.8457,-3.7922,-3.6684,-3.4458,-3.1876,-3.0394,-2.9869,-2.9779,-2.9779,-2.9779,-2.9779,-2.9779,-2.9779,-2.9779,-2.9779,-2.9779,-2.9702,-2.9534,-2.8937,-2.8187,-2.7591,-2.6696,-2.5703,-2.5126,-2.4702,-2.4039,-2.3637,-2.3474,-2.3387,-2.3144,-2.3144,-2.3144,-2.3144,-2.3076,-2.2969,-2.2607,-2.2148,-2.1728,-2.1338,-2.085,-2.0576,-2.0576,-2.0489,-2.0489,-2.0323,-1.952,-1.839,-1.7342,-1.6355,-1.5264,-1.4617,-1.4649,-1.4963,-1.5217,-1.5504,-1.5825,-1.5825,-1.5825,-1.5825,-1.5825,-1.5825,-1.5825,-1.5825,-1.5825,-1.5825,-1.5825,-1.5825,-1.5825,-1.5825,-1.5825,-1.5825,-1.5825,-1.5825,-1.5825,-1.5825,-1.5825,-1.5825,-1.5825,-1.5825,-1.5825,-1.5825,-1.5825,-1.5825,-1.5825,-1.5825,-1.5825,-1.5825,-1.5732,-1.5625,-1.5705,-1.5758,-1.5785,-1.5778,-1.5812,-1.5825,-1.5825,-1.5825,-1.5825,-1.5825,-1.5825,-1.4465,-4.3344,-4.3225,-4.1923,-4.1384,-4.1175,-3.9978,-3.9424,-3.9424,-3.9424,-3.9424,-3.9424,-3.9424,-3.9424,-3.9352,-3.9265,-3.8135,-3.6284,-3.4093,-3.2315,-3.0927,-3.0216,-2.9779,-2.9779,-2.9779,-2.9779,-2.9779,-2.9779,-2.9779,-2.9779,-2.9779,-2.9779,-2.9714,-2.9534,-2.9106,-2.8609,-2.8371,-2.7533,-2.6449,-2.6367,-2.587,-2.4787,-2.4382,-2.3963,-2.3387,-2.3222,-2.3144,-2.3144,-2.3144,-2.3105,-2.2969,-2.2295,-2.1924,-2.1611,-2.1006,-2.0654,-2.0576,-2.0576,-2.0576,-2.0489,-1.9678,-1.855,-1.7415,-1.6437,-1.5427,-1.4833,-1.475,-1.5044,-1.5344,-1.5591,-1.5825,-1.5825,-1.5825,-1.5825,-1.5825,-1.5825,-1.5825,-1.5825,-1.5825,-1.5825,-1.5825,-1.5825,-1.5825,-1.5825,-1.5825,-1.5825,-1.5825,-1.5825,-1.5825,-1.5825,-1.5825,-1.5825,-1.5825,-1.5825,-1.5825,-1.5825,-1.5825,-1.5825,-1.5825,-1.5825,-1.5825,-1.5825,-1.5825,-1.5825,-1.5825,-1.5825,-1.5812,-1.5818,-1.5825,-1.5825,-1.5825,-1.5825,-1.5825,-1.5825,-1.573,-1.514,-4.3344,-4.3195,-4.1938,-4.1384,-4.1145,-3.9978,-3.9424,-3.9424,-3.9424,-3.9424,-3.9424,-3.9424,-3.9424,-3.9424,-3.9424,-3.8132,-3.6042,-3.4566,-3.2858,-3.1404,-3.0279,-2.9779,-2.9779,-2.9779,-2.9779,-2.9779,-2.9779,-2.9779,-2.9779,-2.9779,-2.9779,-2.9779,-2.9779,-2.9534,-2.9028,-2.8767,-2.8438,-2.7533,-2.729,-2.6871,-2.5714,-2.521,-2.4457,-2.4049,-2.3387,-2.3135,-2.3144,-2.3144,-2.3144,-2.3018,-2.2549,-2.2158,-2.1758,-2.1328,-2.0801,-2.0625,-2.0576,-2.0576,-2.0566,-2.0001,-1.9362,-1.831,-1.7172,-1.6095,-1.5362,-1.5108,-1.5221,-1.5511,-1.5685,-1.5825,-1.5825,-1.5825,-1.5825,-1.5825,-1.5825,-1.5825,-1.5825,-1.5825,-1.5825,-1.5825,-1.5825,-1.5825,-1.5825,-1.5825,-1.5825,-1.5825,-1.5825,-1.5825,-1.5825,-1.5825,-1.5825,-1.5825,-1.5825,-1.5825,-1.5825,-1.5825,-1.5825,-1.5825,-1.5825,-1.5825,-1.5825,-1.5825,-1.5825,-1.5825,-1.5825,-1.5825,-1.5825,-1.5825,-1.5825,-1.5825,-1.5825,-1.5825,-1.5825,-1.5629,-1.5045,-4.3344,-4.3225,-4.1923,-4.1384,-4.1175,-3.9978,-3.9424,-3.9424,-3.9424,-3.9424,-3.9424,-3.9424,-3.9424,-3.9424,-3.9188,-3.8233,-3.6286,-3.5319,-3.3652,-3.1736,-3.062,-3.0062,-2.9779,-2.9779,-2.9779,-2.9779,-2.9779,-2.9779,-2.9779,-2.9779,-2.9779,-2.9779,-2.9779,-2.9779,-2.9611,-2.9106,-2.8518,-2.8187,-2.7706,-2.7139,-2.6637,-2.5797,-2.5126,-2.5041,-2.4049,-2.3464,-2.3551,-2.3222,-2.3135,-2.3027,-2.2715,-2.2324,-2.1894,-2.1475,-2.1035,-2.0654,-2.0576,-2.0576,-2.0566,-2.0157,-1.9599,-1.8798,-1.7908,-1.6935,-1.6285,-1.5742,-1.5513,-1.5705,-1.5812,-1.5825,-1.5825,-1.5825,-1.5825,-1.5825,-1.5825,-1.5825,-1.5825,-1.5825,-1.5825,-1.5825,-1.5825,-1.5825,-1.5825,-1.5825,-1.5825,-1.5825,-1.5825,-1.5825,-1.5825,-1.5825,-1.5825,-1.5825,-1.5825,-1.5825,-1.5825,-1.5825,-1.5825,-1.5825,-1.5825,-1.5825,-1.5825,-1.5825,-1.5825,-1.5825,-1.5825,-1.5825,-1.5825,-1.5825,-1.5825,-1.5825,-1.5825,-1.5825,-1.5825,-1.573,-1.5439,-4.3344,-4.3225,-4.1923,-4.1384,-4.116,-3.9963,-3.9424,-3.9424,-3.9424,-3.9424,-3.9424,-3.9424,-3.9424,-3.9409,-3.9364,-3.8531,-3.7286,-3.5969,-3.4425,-3.2503,-3.1402,-3.0482,-2.9921,-2.9779,-2.9779,-2.9779,-2.9779,-2.9779,-2.9779,-2.9779,-2.9779,-2.9779,-2.9779,-2.9779,-2.9702,-2.9456,-2.9624,-2.9546,-2.9378,-2.887,-2.7936,-2.6883,-2.6378,-2.5964,-2.5294,-2.4542,-2.4296,-2.3714,-2.3222,-2.3086,-2.2744,-2.2334,-2.1904,-2.1465,-2.1035,-2.0713,-2.0576,-2.0576,-2.0479,-2.0001,-1.952,-1.9116,-1.806,-1.7415,-1.6988,-1.6637,-1.6238,-1.5391,-1.5759,-1.5818,-1.5825,-1.5825,-1.5825,-1.5825,-1.5825,-1.5825,-1.5825,-1.5825,-1.5825,-1.5825,-1.5825,-1.5825,-1.5825,-1.5825,-1.5825,-1.5825,-1.5825,-1.5825,-1.5825,-1.5825,-1.5825,-1.5825,-1.5825,-1.5825,-1.5825,-1.5825,-1.5825,-1.5825,-1.5825,-1.5825,-1.5825,-1.5825,-1.5825,-1.5825,-1.5825,-1.5825,-1.5825,-1.5825,-1.5825,-1.5825,-1.5825,-1.5825,-1.5825,-1.573,-1.5635,-4.2791,-4.2701,-4.1773,-4.116,-4.0726,-3.9798,-3.9424,-3.9424,-3.9424,-3.9424,-3.9424,-3.9424,-3.9424,-3.9364,-3.9065,-3.8317,-3.7258,-3.6091,-3.4765,-3.3269,-3.2033,-3.1044,-3.0558,-3.0062,-2.9779,-2.9779,-2.9779,-2.9779,-2.9779,-2.9779,-2.9779,-2.9779,-2.9779,-2.9779,-2.9779,-2.9779,-2.9779,-2.9779,-2.9702,-2.9546,-2.8949,-2.8028,-2.7441,-2.7371,-2.6284,-2.5535,-2.4872,-2.4467,-2.3627,-2.327,-2.292,-2.2539,-2.2041,-2.166,-2.1338,-2.0635,-2.0576,-2.0576,-2.0566,-2.0079,-1.9923,-1.9599,-1.8886,-1.8164,-1.7763,-1.7576,-1.7244,-1.6435,-1.6665,-1.6546,-1.592,-1.5825,-1.5825,-1.5825,-1.5825,-1.5825,-1.5825,-1.5825,-1.5825,-1.5825,-1.5825,-1.5825,-1.5825,-1.5825,-1.5825,-1.5825,-1.5825,-1.5825,-1.5825,-1.5825,-1.5825,-1.5825,-1.5825,-1.5825,-1.5825,-1.5825,-1.5825,-1.5825,-1.5825,-1.5825,-1.5825,-1.5825,-1.5825,-1.5825,-1.5825,-1.5825,-1.5825,-1.5825,-1.5825,-1.5825,-1.5825,-1.5825,-1.5825,-1.5825,-1.573,-4.2177,-4.1833,-4.1339,-4.0846,-4.0337,-3.9694,-3.9424,-3.9424,-3.9424,-3.9424,-3.9424,-3.9424,-3.9424,-3.926,-3.8736,-3.8078,-3.7306,-3.5991,-3.4907,-3.3703,-3.2664,-3.1742,-3.1119,-3.0406,-3.0062,-2.9779,-2.9779,-2.9779,-2.9779,-2.9779,-2.9779,-2.9779,-2.9779,-2.9779,-2.9779,-2.9779,-2.9779,-2.9779,-2.9779,-2.9779,-2.9534,-2.8937,-2.8597,-2.8187,-2.7441,-2.6461,-2.5786,-2.5294,-2.4713,-2.379,-2.3617,-2.3198,-2.2197,-2.1816,-2.1396,-2.0791,-2.0576,-2.0576,-2.0576,-2.0489,-2.0576,-2.0323,-2.001,-1.9056,-1.8331,-1.8414,-1.7991,-1.6892,-1.7135,-1.67,-1.6177,-1.5825,-1.5825,-1.5825,-1.5825,-1.5825,-1.5825,-1.5825,-1.5825,-1.5825,-1.5825,-1.5825,-1.5825,-1.5825,-1.5825,-1.5825,-1.5825,-1.5825,-1.5825,-1.5825,-1.5825,-1.5825,-1.5825,-1.5825,-1.5825,-1.5825,-1.5825,-1.5825,-1.5825,-1.5825,-1.5825,-1.5825,-1.5825,-1.5825,-1.5825,-1.5825,-1.5825,-1.5825,-1.5825,-1.5825,-1.5825,-1.5825,-1.5825,-1.5825,-1.5825,-4.1639,-4.0531,-4.0487,-4.0427,-4.0322,-3.9694,-3.9424,-3.9424,-3.9424,-3.9424,-3.9424,-3.9424,-3.9409,-3.9185,-3.8586,-3.7928,-3.7345,-3.6694,-3.548,-3.4472,-3.3739,-3.2749,-3.1901,-3.1193,-3.0633,-2.9998,-2.9856,-2.9779,-2.9779,-2.9779,-2.9779,-2.9779,-2.9779,-2.9779,-2.9779,-2.9779,-2.9779,-2.9779,-2.9779,-2.9779,-2.9779,-2.9611,-2.9534,-2.9365,-2.8597,-2.7924,-2.7763,-2.6871,-2.5891,-2.4798,-2.4457,-2.3716,-2.2539,-2.1987,-2.1526,-2.0801,-2.0576,-2.0576,-2.0576,-2.0576,-2.0576,-2.0566,-2.0411,-1.9863,-1.911,-1.9227,-1.849,-1.7175,-1.7379,-1.6849,-1.6188,-1.5825,-1.5825,-1.5825,-1.5825,-1.5825,-1.5825,-1.5825,-1.5825,-1.5825,-1.5825,-1.5825,-1.5825,-1.5825,-1.5825,-1.5825,-1.5825,-1.5825,-1.5825,-1.5825,-1.5825,-1.5825,-1.5825,-1.5825,-1.5825,-1.5825,-1.5825,-1.5825,-1.5825,-1.5825,-1.5825,-1.5825,-1.5825,-1.5825,-1.5825,-1.5825,-1.5825,-1.5825,-1.5825,-1.5825,-1.5825,-1.5825,-1.5825,-1.5825,-1.5825,-4.0861,-4.0367,-3.9963,-3.9798,-3.9798,-3.9529,-3.9424,-3.9424,-3.9424,-3.9424,-3.9424,-3.9409,-3.917,-3.8706,-3.8093,-3.7434,-3.6806,-3.6178,-3.5466,-3.4927,-3.4259,-3.3602,-3.2678,-3.1756,-3.0957,-3.0558,-3.0139,-2.9779,-2.9779,-2.9779,-2.9779,-2.9779,-2.9779,-2.9779,-2.9779,-2.9779,-2.9779,-2.9779,-2.9779,-2.9779,-2.9779,-2.9779,-2.9779,-2.9702,-2.9534,-2.8688,-2.8187,-2.7775,-2.6871,-2.6047,-2.5294,-2.4179,-2.3012,-2.2327,-2.1526,-2.082,-2.0615,-2.0576,-2.0576,-2.0576,-2.0576,-2.0576,-2.0566,-2.0401,-1.9863,-2.0212,-1.9448,-1.8476,-1.7848,-1.7447,-1.6035,-1.5825,-1.5825,-1.5825,-1.5825,-1.5825,-1.5825,-1.5825,-1.5825,-1.5825,-1.5825,-1.5825,-1.5825,-1.5825,-1.5825,-1.5825,-1.5825,-1.5825,-1.5825,-1.5825,-1.5825,-1.5825,-1.5825,-1.5825,-1.5825,-1.5825,-1.5825,-1.5825,-1.5825,-1.5825,-1.5825,-1.5825,-1.5825,-1.5825,-1.5825,-1.5825,-1.5825,-1.5825,-1.5825,-1.5825,-1.5825,-1.5825,-1.5825,-1.5825,-1.5825,-4.0482,-4.0068,-3.9619,-3.9424,-3.9424,-3.9424,-3.9424,-3.9424,-3.9424,-3.9424,-3.9409,-3.9215,-3.8871,-3.8272,-3.7479,-3.6971,-3.6447,-3.5908,-3.5609,-3.5198,-3.4839,-3.4312,-3.3533,-3.2607,-3.1523,-3.1106,-3.0343,-2.9779,-2.9779,-2.9779,-2.9779,-2.9779,-2.9779,-2.9779,-2.9779,-2.9779,-2.9779,-2.9779,-2.9779,-2.9779,-2.9779,-2.9779,-2.9779,-2.9779,-2.9702,-2.9456,-2.8937,-2.8609,-2.8039,-2.7128,-2.6278,-2.5103,-2.3966,-2.2798,-2.1859,-2.1164,-2.0644,-2.0576,-2.0576,-2.0576,-2.0576,-2.0576,-2.0576,-2.0566,-2.0654,-2.08,-1.9842,-1.8452,-1.8329,-1.792,-1.6101,-1.5825,-1.5825,-1.5825,-1.5825,-1.5825,-1.5825,-1.5825,-1.5825,-1.5825,-1.5825,-1.5825,-1.5825,-1.5825,-1.5825,-1.5825,-1.5825,-1.5825,-1.5825,-1.5825,-1.5825,-1.5825,-1.5825,-1.5825,-1.5825,-1.5825,-1.5825,-1.5825,-1.5825,-1.5825,-1.5825,-1.5825,-1.5825,-1.5825,-1.5825,-1.5825,-1.5825,-1.5825,-1.5825,-1.5825,-1.5825,-1.5825,-1.5825,-1.5825,-1.5825,-4.0827,-3.9454,-3.9424,-3.9424,-3.9424,-3.9424,-3.9424,-3.9424,-3.9424,-3.9424,-3.9334,-3.8826,-3.8437,-3.8048,-3.712,-3.6552,-3.6267,-3.5759,-3.5489,-3.5424,-3.5279,-3.4824,-3.3959,-3.3031,-3.1947,-3.1106,-3.0343,-2.9779,-2.9779,-2.9779,-2.9779,-2.9779,-2.9779,-2.9779,-2.9779,-2.9779,-2.9779,-2.9779,-2.9779,-2.9779,-2.9779,-2.9779,-2.9779,-2.9779,-2.9779,-2.9624,-2.9456,-2.9443,-2.8949,-2.8187,-2.7683,-2.653,-2.4789,-2.3763,-2.2633,-2.1511,-2.084,-2.0596,-2.0576,-2.0576,-2.0576,-2.0576,-2.0576,-2.0576,-2.0576,-2.0527,-2.0028,-1.8479,-1.8238,-1.7512,-1.6487,-1.5825,-1.5825,-1.5825,-1.5825,-1.5825,-1.5825,-1.5825,-1.5825,-1.5825,-1.5825,-1.5825,-1.5825,-1.5825,-1.5825,-1.5825,-1.5825,-1.5825,-1.5825,-1.5825,-1.5825,-1.5825,-1.5825,-1.5825,-1.5825,-1.5825,-1.5825,-1.5825,-1.5825,-1.5825,-1.5825,-1.5825,-1.5825,-1.5825,-1.5825,-1.5825,-1.5825,-1.5825,-1.5825,-1.5825,-1.5825,-1.5825,-1.5825,-1.5825,-1.5825,-4.1232,-4.0239,-4.0239,-3.992,-3.9409,-3.9424,-3.9424,-3.9424,-3.9424,-3.9424,-3.9275,-3.8691,-3.8093,-3.7569,-3.6911,-3.6237,-3.5833,-3.5729,-3.5489,-3.5489,-3.5489,-3.5344,-3.4624,-3.3463,-3.2451,-3.1756,-3.0771,-2.9934,-2.9779,-2.9856,-2.9856,-2.9779,-2.9779,-2.9779,-2.9779,-2.9779,-2.9779,-2.9779,-2.9779,-2.9779,-2.9779,-2.9779,-2.9779,-2.9779,-2.9779,-2.9779,-2.9779,-2.9779,-2.9534,-2.9028,-2.8676,-2.7528,-2.5926,-2.4889,-2.3154,-2.2097,-2.1426,-2.0586,-2.0576,-2.0576,-2.0576,-2.0576,-2.0576,-2.0576,-2.0576,-2.0576,-1.9723,-1.8625,-1.8235,-1.7303,-1.6227,-1.5893,-1.5825,-1.5825,-1.5825,-1.5825,-1.5825,-1.5825,-1.5825,-1.5825,-1.5825,-1.5825,-1.5825,-1.5825,-1.5825,-1.5825,-1.5825,-1.5825,-1.5825,-1.5825,-1.5825,-1.5825,-1.5825,-1.5825,-1.5825,-1.5825,-1.5825,-1.5825,-1.5825,-1.5825,-1.5825,-1.5825,-1.5825,-1.5825,-1.5825,-1.5825,-1.5825,-1.5825,-1.5825,-1.5825,-1.5825,-1.5825,-1.5825,-1.5825,-1.5825,-4.1739,-4.0743,-4.069,-4.017,-3.9481,-3.9424,-3.9424,-3.9379,-3.9185,-3.9065,-3.8856,-3.8138,-3.7509,-3.6985,-3.6432,-3.5998,-3.5504,-3.5489,-3.5489,-3.5489,-3.5489,-3.5424,-3.4905,-3.3891,-3.3017,-3.2393,-3.1549,-3.0646,-2.9856,-3.0139,-3.0075,-2.9856,-2.9779,-2.9779,-2.9779,-2.9779,-2.9779,-2.9779,-2.9779,-2.9779,-2.9779,-2.9779,-2.9779,-2.9779,-2.9779,-2.9779,-2.9779,-2.9779,-2.9779,-2.9534,-2.9045,-2.8112,-2.6939,-2.5431,-2.3647,-2.2556,-2.1429,-2.0722,-2.0576,-2.0576,-2.0576,-2.0576,-2.0576,-2.0576,-2.0576,-2.0576,-1.9661,-1.8752,-1.8374,-1.7251,-1.6234,-1.5967,-1.592,-1.592,-1.5825,-1.5825,-1.5825,-1.5825,-1.5825,-1.5825,-1.5825,-1.5825,-1.5825,-1.5825,-1.5825,-1.5825,-1.5825,-1.5825,-1.5825,-1.5825,-1.5825,-1.5825,-1.5825,-1.5825,-1.5825,-1.5825,-1.5825,-1.5825,-1.5825,-1.5825,-1.5825,-1.5825,-1.5825,-1.5825,-1.5825,-1.5825,-1.5825,-1.5825,-1.5825,-1.5825,-1.5825,-1.5825,-1.5825,-1.5825,-1.5825,-4.2332,-4.0878,-4.0743,-4.0239,-3.9538,-3.9334,-3.9334,-3.9305,-3.8706,-3.8422,-3.8287,-3.712,-3.6671,-3.6432,-3.5848,-3.5564,-3.5519,-3.5504,-3.5489,-3.5489,-3.5489,-3.5489,-3.5198,-3.4394,-3.3533,-3.2947,-3.2249,-3.1267,-3.0139,-3.0279,-3.0279,-2.9921,-2.9779,-2.9779,-2.9779,-2.9779,-2.9779,-2.9779,-2.9779,-2.9779,-2.9779,-2.9779,-2.9779,-2.9779,-2.9779,-2.9779,-2.9779,-2.9779,-2.9779,-2.9702,-2.9689,-2.8347,-2.7024,-2.5678,-2.4015,-2.2281,-2.0977,-2.0762,-2.0576,-2.0576,-2.0576,-2.0576,-2.0576,-2.0576,-2.0576,-2.0528,-1.9876,-1.9155,-1.8612,-1.7394,-1.6427,-1.6223,-1.6021,-1.592,-1.5825,-1.5825,-1.5825,-1.5825,-1.5825,-1.5825,-1.5825,-1.5825,-1.5825,-1.5825,-1.5825,-1.5825,-1.5825,-1.5825,-1.5825,-1.5825,-1.5825,-1.5825,-1.5825,-1.5825,-1.5825,-1.5825,-1.5825,-1.5825,-1.5825,-1.5825,-1.5825,-1.5825,-1.5825,-1.5825,-1.5825,-1.5825,-1.5825,-1.5825,-1.5825,-1.5825,-1.5825,-1.5825,-1.5825,-1.5825,-1.573,-4.3545,-4.252,-4.1869,-4.1162,-4.0247,-3.9139,-3.8676,-3.8631,-3.8437,-3.8167,-3.7644,-3.6851,-3.6432,-3.6432,-3.5818,-3.5564,-3.5489,-3.5489,-3.5489,-3.5489,-3.5489,-3.5489,-3.5133,-3.4543,-3.3891,-3.3463,-3.289,-3.2164,-3.0908,-3.0771,-3.0279,-2.9869,-2.9779,-2.9779,-2.9779,-2.9779,-2.9779,-2.9779,-2.9779,-2.9779,-2.9779,-2.9779,-2.9779,-2.9779,-2.9779,-2.9779,-2.9779,-2.9779,-2.9779,-2.9779,-2.9779,-2.8851,-2.7411,-2.5879,-2.4089,-2.1372,-2.0742,-2.0576,-2.0576,-2.0576,-2.0576,-2.0576,-2.0576,-2.0576,-2.0576,-2.0508,-2.0151,-1.938,-1.8948,-1.7935,-1.6914,-1.6539,-1.6204,-1.592,-1.5825,-1.5825,-1.5825,-1.5825,-1.5825,-1.5825,-1.5825,-1.5825,-1.5825,-1.5825,-1.5825,-1.5825,-1.5825,-1.5825,-1.5825,-1.5825,-1.5825,-1.5825,-1.5825,-1.5825,-1.5825,-1.5825,-1.5825,-1.5825,-1.5825,-1.5825,-1.5825,-1.5825,-1.5825,-1.5825,-1.5825,-1.5825,-1.5825,-1.5825,-1.5825,-1.5825,-1.5825,-1.5825,-1.5825,-1.5825,-1.5629,-4.408,-4.3257,-4.2398,-4.1247,-3.9771,-3.8553,-3.7883,-3.7689,-3.7644,-3.7389,-3.7,-3.6357,-3.6088,-3.6028,-3.5669,-3.5489,-3.5489,-3.5489,-3.5489,-3.5489,-3.5489,-3.5489,-3.5198,-3.4839,-3.4409,-3.4041,-3.3685,-3.3241,-3.1901,-3.0833,-3.0355,-2.9792,-2.9779,-2.9779,-2.9779,-2.9779,-2.9779,-2.9779,-2.9779,-2.9779,-2.9779,-2.9779,-2.9779,-2.9779,-2.9779,-2.9779,-2.9779,-2.9779,-2.9779,-2.9779,-2.9779,-2.8782,-2.6898,-2.4802,-2.3144,-2.0811,-2.0596,-2.0576,-2.0576,-2.0576,-2.0576,-2.0576,-2.0576,-2.0576,-2.0576,-2.0537,-1.9878,-1.9251,-1.9093,-1.8655,-1.769,-1.6857,-1.6386,-1.592,-1.5825,-1.5825,-1.5825,-1.5825,-1.5825,-1.5825,-1.5825,-1.5825,-1.5825,-1.5825,-1.5825,-1.5825,-1.5825,-1.5825,-1.5825,-1.5825,-1.5825,-1.5825,-1.5825,-1.5825,-1.5825,-1.5825,-1.5825,-1.5825,-1.5825,-1.5825,-1.5825,-1.5825,-1.5825,-1.5825,-1.5825,-1.5825,-1.5825,-1.5825,-1.5825,-1.5825,-1.5825,-1.5825,-1.5825,-1.5825,-1.5534,-4.397,-4.3145,-4.2341,-4.0539,-3.8481,-3.7586,-3.7,-3.6447,-3.6477,-3.6417,-3.6282,-3.5789,-3.5579,-3.5624,-3.5504,-3.5489,-3.5489,-3.5489,-3.5489,-3.5489,-3.5489,-3.5489,-3.5489,-3.5424,-3.492,-3.4706,-3.4476,-3.4124,-3.282,-3.1756,-3.0908,-2.9921,-2.9998,-2.9998,-2.9792,-2.9779,-2.9779,-2.9779,-2.9779,-2.9779,-2.9779,-2.9779,-2.9779,-2.9779,-2.9779,-2.9779,-2.9779,-2.9779,-2.9779,-2.9779,-2.9471,-2.8524,-2.5916,-2.3092,-2.145,-2.082,-2.0586,-2.0576,-2.0576,-2.0576,-2.0576,-2.0576,-2.0576,-2.0576,-2.0576,-2.0576,-2.0028,-1.9838,-1.9657,-1.8962,-1.8063,-1.7174,-1.6574,-1.6109,-1.5825,-1.5825,-1.5825,-1.5825,-1.5825,-1.5825,-1.5825,-1.5825,-1.5825,-1.5825,-1.5825,-1.5825,-1.5825,-1.5825,-1.5825,-1.5825,-1.5825,-1.5825,-1.5825,-1.5825,-1.5825,-1.5825,-1.5825,-1.5825,-1.5825,-1.5825,-1.5825,-1.5825,-1.5825,-1.5825,-1.5825,-1.5825,-1.5825,-1.5825,-1.5825,-1.5825,-1.5825,-1.5825,-1.573,-1.5629,-1.514,-4.3225,-4.2411,-4.1004,-3.9141,-3.7116,-3.6768,-3.6342,-3.5744,-3.5744,-3.5759,-3.5714,-3.5579,-3.5489,-3.5489,-3.5489,-3.5489,-3.5489,-3.5489,-3.5489,-3.5489,-3.5489,-3.5489,-3.5489,-3.5489,-3.5294,-3.5294,-3.5213,-3.4854,-3.3616,-3.2607,-3.1815,-3.097,-3.0758,-3.0482,-2.9934,-2.9934,-2.9779,-2.9779,-2.9779,-2.9779,-2.9779,-2.9779,-2.9779,-2.9779,-2.9779,-2.9779,-2.9779,-2.9779,-2.9779,-2.9779,-2.9779,-2.8215,-2.5464,-2.2428,-2.0899,-2.0586,-2.0576,-2.0576,-2.0576,-2.0576,-2.0576,-2.0576,-2.0576,-2.0576,-2.0576,-2.0576,-2.0534,-2.0484,-1.9942,-1.9104,-1.8352,-1.7494,-1.6756,-1.6292,-1.5825,-1.5825,-1.5825,-1.5825,-1.5825,-1.5825,-1.5825,-1.5825,-1.5825,-1.5825,-1.5825,-1.5825,-1.5825,-1.5825,-1.5825,-1.5825,-1.5825,-1.5825,-1.5825,-1.5825,-1.5825,-1.5825,-1.5825,-1.5825,-1.5825,-1.5825,-1.5825,-1.5825,-1.5825,-1.5825,-1.5825,-1.5825,-1.5825,-1.5825,-1.5825,-1.5825,-1.573,-1.573,-1.5337,-1.5045,-1.4555,-4.2675,-4.2129,-4.0623,-3.8858,-3.7234,-3.6682,-3.6179,-3.5599,-3.5489,-3.5489,-3.5489,-3.5489,-3.5489,-3.5489,-3.5489,-3.5489,-3.5489,-3.5489,-3.5489,-3.5489,-3.5489,-3.5489,-3.5489,-3.5489,-3.5489,-3.5504,-3.5439,-3.5001,-3.4109,-3.3533,-3.2806,-3.1888,-3.1523,-3.097,-3.0355,-3.0062,-2.9856,-2.9779,-2.9779,-2.9779,-2.9779,-2.9779,-2.9779,-2.9779,-2.9779,-2.9779,-2.9779,-2.9779,-2.9779,-2.913,-2.8497,-2.7263,-2.4837,-2.2304,-2.0888,-2.0576,-2.0576,-2.0576,-2.0576,-2.0576,-2.0576,-2.0576,-2.0576,-2.0576,-2.0576,-2.0615,-2.0471,-2.0274,-1.9332,-1.8466,-1.7896,-1.7117,-1.648,-1.592,-1.5825,-1.5825,-1.5825,-1.5825,-1.5825,-1.5825,-1.5825,-1.5825,-1.5825,-1.5825,-1.5825,-1.5825,-1.5825,-1.5825,-1.5825,-1.5825,-1.5825,-1.5825,-1.5825,-1.5825,-1.5825,-1.5825,-1.5825,-1.5825,-1.5825,-1.5825,-1.5825,-1.5825,-1.5825,-1.5825,-1.5825,-1.5825,-1.5825,-1.5825,-1.5825,-1.5825,-1.573,-1.5629,-1.5045,-1.4364,-1.3488,-4.2013,-4.1685,-4.0326,-3.8975,-3.7637,-3.6753,-3.607,-3.5554,-3.5489,-3.5489,-3.5489,-3.5489,-3.5489,-3.5489,-3.5489,-3.5489,-3.5489,-3.5489,-3.5489,-3.5489,-3.5489,-3.5489,-3.5489,-3.5489,-3.5489,-3.5489,-3.5489,-3.5052,-3.4394,-3.4109,-3.3754,-3.2806,-3.2092,-3.1462,-3.1044,-3.0495,-3.0075,-2.9856,-2.9779,-2.9779,-2.9779,-2.9779,-2.9779,-2.9779,-2.9779,-2.9779,-2.9779,-2.9779,-2.9779,-2.875,-2.7299,-2.5988,-2.447,-2.2372,-2.1191,-2.0576,-2.0576,-2.0576,-2.0576,-2.0576,-2.0576,-2.0576,-2.0576,-2.0576,-2.0576,-2.0497,-2.0424,-2.0136,-1.9195,-1.8592,-1.8024,-1.7131,-1.648,-1.6015,-1.592,-1.5825,-1.5825,-1.5825,-1.5825,-1.5825,-1.5825,-1.5825,-1.5825,-1.5825,-1.5825,-1.5825,-1.5825,-1.5825,-1.5825,-1.5825,-1.5825,-1.5825,-1.5825,-1.5825,-1.5825,-1.5825,-1.5825,-1.5825,-1.5825,-1.5825,-1.5825,-1.5825,-1.5825,-1.5825,-1.5825,-1.5825,-1.5825,-1.5825,-1.5825,-1.5825,-1.573,-1.5534,-1.4459,-1.3584,-1.2328,-4.0687,-3.9483,-3.8618,-3.7685,-3.6814,-3.607,-3.5604,-3.5489,-3.5489,-3.5489,-3.5489,-3.5489,-3.5489,-3.5489,-3.5489,-3.5489,-3.5489,-3.5489,-3.5489,-3.5489,-3.5489,-3.5489,-3.5489,-3.5489,-3.5489,-3.5489,-3.5489,-3.5344,-3.4905,-3.4986,-3.4691,-3.3739,-3.3587,-3.2593,-3.1254,-3.0771,-3.0343,-2.9998,-2.9779,-2.9779,-2.9779,-2.9779,-2.9779,-2.9779,-2.9779,-2.9779,-2.9779,-2.9779,-2.9779,-2.8889,-2.7037,-2.5618,-2.4105,-2.2439,-2.0995,-2.0576,-2.0576,-2.0576,-2.0576,-2.0576,-2.0576,-2.0576,-2.0576,-2.0576,-2.0576,-2.0576,-2.0707,-2.123,-2.0585,-2.0199,-1.9477,-1.7987,-1.7131,-1.6662,-1.648,-1.6015,-1.5825,-1.5825,-1.5825,-1.5825,-1.5825,-1.5825,-1.5825,-1.5825,-1.5825,-1.5825,-1.5825,-1.5825,-1.5825,-1.5825,-1.5825,-1.5825,-1.5825,-1.5825,-1.5825,-1.5825,-1.5825,-1.5825,-1.5825,-1.5825,-1.5825,-1.5825,-1.5825,-1.5825,-1.5825,-1.5825,-1.5825,-1.5825,-1.5825,-1.5825,-1.5825,-1.5439,-1.4268,-1.3199,-1.2328]},{"header":{"parameterUnit":"m.s-1","parameterCategory":1,"la1":31.0,"la2":29.5877,"lo1":-88.7671,"lo2":-86.6584,"dy":0.0162,"dx":0.0185,"nx":115,"ny":88,"refTime":"2023-05-24T06:00:00:Z","depth":0,"parameterNumber":3,"parameterNumberName":"V-component_of_WINDS"},"data":[0.0,0.0,0.0,0.0,0.0,0.0,0.0,0.0,0.0,0.0,0.0,0.0,0.0,0.0,0.0,0.0,0.0,0.0,0.0,0.0,0.0,0.0,0.0,0.0,0.0,0.0,0.0,0.0,0.0,0.0,0.0,0.0,0.0,0.0,0.0,0.0,0.0,0.0,0.0,0.0,0.0,0.0,0.0,0.0,0.0,0.0,0.0,0.0,0.0,0.0,0.0,0.0,0.0,0.0,0.0,0.0,0.0,0.0,0.0,0.0,0.0,0.0,0.0,0.0,0.0,0.0,0.0,0.0,0.0,0.0,0.0,0.0,0.0,0.0,0.0,0.0,0.0,0.0,0.0,0.0,0.0,0.0,0.0,0.0,0.0,0.0,0.0,0.0,0.0,0.0,0.0,0.0,0.0,0.0,0.0,0.0,0.0,0.0,0.0,0.0,0.0,0.0,0.0,0.0,0.0,0.0,0.0,0.0,0.0,0.0,0.0,0.0,0.0,0.0,0.0,0.0,0.0,0.0,0.0,0.0,0.0,0.0,0.0,0.0,0.0,0.0,0.0,0.0,0.0,0.0,0.0,0.0,0.0,0.0,0.0,0.0,0.0,0.0,0.0,0.0,0.0,0.0,0.0,0.0,0.0,0.0,0.0,0.0,0.0,0.0,0.0,0.0,0.0,0.0,0.0,0.0,0.0,0.0,0.0,0.0,0.0,0.0,0.0,0.0,0.0,0.0,0.0,0.0,0.0,0.0,0.0,0.0,0.0,0.0,0.0,0.0,0.0,0.0,0.0,0.0,0.0,0.0,0.0,0.0,0.0,0.0,0.0,0.0,0.0,0.0,0.0,0.0,0.0,0.0,0.0,0.0,0.0,0.0,0.0,0.0,0.0,0.0,0.0,0.0,0.0,0.0,0.0,0.0,0.0,0.0,0.0,0.0,0.0,0.0,0.0,0.0,0.0,0.0,0.0,0.0,0.0,0.0,0.0,0.0,0.0,0.0,0.0,0.0,0.0,0.0,0.0,0.0,0.0,0.0,0.0,0.0,0.0,0.0,0.0,0.0,0.0,0.0,0.0,0.0,0.0,0.0,0.0,0.0,0.0,0.0,0.0,0.0,0.0,0.0,0.0,0.0,0.0,0.0,0.0,0.0,0.0,0.0,0.0,0.0,0.0,0.0,0.0,0.0,0.0,0.0,0.0,0.0,0.0,0.0,0.0,0.0,0.0,0.0,0.0,0.0,0.0,0.0,0.0,0.0,0.0,0.0,0.0,0.0,0.0,0.0,0.0,0.0,0.0,0.0,0.0,0.0,0.0,0.0,0.0,0.0,0.0,0.0,0.0,0.0,0.0,0.0,0.0,0.0,0.0,0.0,0.0,0.0,0.0,0.0,0.0,0.0,0.0,0.0,0.0,0.0,0.0,0.0,0.0,0.0,0.0,0.0,0.0,0.0,0.0,0.0,0.0,0.0,0.0,0.0,0.0,0.0,0.0,0.0,0.0,0.0,0.0,0.0,0.0,0.0,0.0,0.0,0.0,0.0,0.0,0.0,0.0,0.0,0.0,0.0,0.0,0.0,0.0,0.0,0.0,0.0,0.0,0.0,0.0,0.0,0.0,0.0,0.0,0.0,0.0,0.0,0.0,0.0,0.0,0.0,0.0,0.0,0.0,0.0,0.0,0.0,0.0,0.0,0.0,0.0,0.0,0.0,0.0,0.0,0.0,0.0,0.0,0.0,0.0,0.0,0.0,0.0,0.0,0.0,0.0,0.0,0.0,0.0,0.0,0.0,0.0,0.0,0.0,0.0,0.0,0.0,0.0,0.0,0.0,0.0,0.0,0.0,0.0,0.0,0.0,0.0,0.0,0.0,0.0,0.0,0.0,0.0,0.0,0.0,0.0,0.0,0.0,0.0,0.0,0.0,0.0,0.0,0.0,0.0,0.0,0.0,0.0,0.0,0.0,0.0,0.0,0.0,0.0,0.0,0.0,0.0,0.0,0.0,0.0,0.0,0.0,0.0,0.0,0.0,0.0,0.0,0.0,0.0,0.0,0.0,0.0,0.0,0.0,0.0,0.0,0.0,0.0,0.0,0.0,0.0,0.0,0.0,0.0,0.0,0.0,0.0,0.0,0.0,0.0,0.0,0.0,0.0,0.0,0.0,0.0,0.0,0.0,0.0,0.0,0.0,0.0,0.0,0.0,0.0,0.0,0.0,0.0,0.0,0.0,0.0,0.0,0.0,0.0,0.0,0.0,0.0,0.0,0.0,0.0,0.0,0.0,0.0,0.0,0.0,0.0,0.0,0.0,0.0,0.0,0.0,0.0,0.0,0.0,0.0,0.0,0.0,0.0,0.0,0.0,0.0,0.0,0.0,0.0,0.0,0.0,0.0,0.0,0.0,0.0,0.0,0.0,0.0,0.0,0.0,0.0,0.0,0.0,0.0,0.0,0.0,0.0,0.0,0.0,0.0,0.0,0.0,0.0,0.0,0.0,0.0,0.0,0.0,0.0,0.0,0.0,0.0,0.0,0.0,0.0,0.0,0.0,0.0,0.0,0.0,0.0,0.0,0.0,0.0,0.0,0.0,0.0,0.0,0.0,0.0,0.0,0.0,0.0,0.0,0.0,0.0,0.0,0.0,0.0,0.0,0.0,0.0,0.0,0.0,0.0,0.0,0.0,0.0,0.0,0.0,0.0,0.0,0.0,0.0,0.0,0.0,0.0,0.0,0.0,0.0,0.0,0.0,0.0,0.0,0.0,0.0,0.0,0.0,0.0,0.0,0.0,0.0,0.0,0.0,0.0,0.0,0.0,0.0,0.0,0.0,0.0,0.0,0.0,0.0,0.0,0.0,0.0,0.0,0.0,0.0,0.0,0.0,0.0,0.0,0.0,0.0,0.0,0.0,0.0,0.0,0.0,0.0,0.0,0.0,0.0,0.0,0.0,0.0,0.0,0.0,0.0,0.0,0.0,0.0,0.0,0.0,0.0,0.0,0.0,0.0,0.0,0.0,0.0,0.0,0.0,0.0,0.0,0.0,0.0,0.0,0.0,0.0,0.0,0.0,0.0,0.0,0.0,0.0,0.0,0.0,0.0,0.0,0.0,0.0,0.0,0.0,0.0,0.0,0.0,0.0,0.0,0.0,0.0,0.0,0.0,0.0,0.0,0.0,0.0,0.0,0.0,0.0,0.0,0.0,0.0,0.0,0.0,0.0,0.0,0.0,0.0,0.0,0.0,0.0,0.0,0.0,0.0,0.0,0.0,0.0,0.0,0.0,0.0,0.0,0.0,0.0,0.0,0.0,0.0,0.0,0.0,0.0,0.0,0.0,0.0,0.0,0.0,0.0,0.0,0.0,0.0,0.0,0.0,0.0,0.0,0.0,0.0,0.0,0.0,0.0,0.0,0.0,0.0,0.0,0.0,0.0,0.0,0.0,0.0,0.0,0.0,0.0,0.0,0.0,0.0,0.0,0.0,0.0,0.0,0.0,0.0,0.0,0.0,0.0,0.0,0.0,0.0,0.0,0.0,0.0,0.0,0.0,0.0,0.0,0.0,0.0,0.0,0.0,0.0,0.0,0.0,0.0,0.0,0.0,0.0,0.0,0.0,0.0,0.0,0.0,0.0,0.0,0.0,0.0,0.0,0.0,0.0,0.0,0.0,0.0,0.0,0.0,0.0,0.0,0.0,0.0,0.0,0.0,0.0,0.0,0.0,0.0,0.0,0.0,0.0,0.0,0.0,0.0,0.0,0.0,0.0,0.0,0.0,0.0,0.0,0.0,0.0,0.0,0.0,0.0,0.0,0.0,0.0,0.0,0.0,0.0,0.0,0.0,0.0,0.0,0.0,0.0,0.0,0.0,0.0,0.0,0.0,0.0,0.0,0.0,0.0,0.0,0.0,0.0,0.0,0.0,0.0,0.0,0.0,0.0,0.0,0.0,0.0,0.0,0.0,0.0,0.0,0.0,0.0,0.0,0.0,0.0,0.0,0.0,0.0,0.0,0.0,0.0,0.0,0.0,0.0,0.0,0.0,0.0,0.0,0.0,0.0,0.0,0.0,0.0,0.0,0.0,0.0,0.0,0.0,0.0,0.0,0.0,0.0,0.0,0.0,0.0,0.0,0.0,0.0,0.0,0.0,0.0,0.0,0.0,0.0,0.0,0.0,0.0,0.0,0.0,0.0,0.0,0.0,0.0,0.0,0.0,0.0,0.0,0.0,0.0,0.0,0.0,0.0,0.0,0.0,0.0,0.0,0.0,0.0,0.0,0.0,0.0,-0.5734,0.0,0.0,0.0,0.0,0.0,0.0,0.0,0.0,0.0,0.0,0.0,0.0,0.0,0.0,0.0,0.0,0.0,0.0,0.0,0.0,0.0,0.0,0.0,0.0,0.0,0.0,0.0,0.0,0.0,0.0,0.0,0.0,0.0,0.0,0.0,0.0,0.0,0.0,0.0,0.0,0.0,0.0,0.0,0.0,0.0,0.0,0.0,0.0,0.0,0.0,0.0,0.0,0.0,0.0,0.0,0.0,0.0,0.0,0.0,0.0,0.0,0.0,0.0,0.0,0.0,0.0,0.0,0.0,0.0,0.0,0.0,0.0,0.0,0.0,0.0,0.0,0.0,0.0,0.0,0.0,0.0,0.0,0.0,0.0,0.0,0.0,0.0,0.0,0.0,0.0,0.0,0.0,0.0,0.0,0.0,0.0,0.0,0.0,0.0,0.0,0.0,0.0,0.0,0.0,0.0,0.0,0.0,0.0,0.0,0.0,-0.7596,-0.7405,-0.7039,-0.6798,-0.6777,0.0,0.0,0.0,0.0,0.0,0.0,0.0,0.0,0.0,0.0,0.0,0.0,0.0,0.0,0.0,0.0,0.0,0.0,0.0,0.0,0.0,0.0,0.0,0.0,0.0,0.0,0.0,0.0,0.0,0.0,0.0,0.0,0.0,0.0,0.0,0.0,0.0,0.0,0.0,0.0,0.0,0.0,0.0,0.0,0.0,0.0,0.0,0.0,0.0,0.0,0.0,0.0,0.0,0.0,0.0,0.0,0.0,0.0,0.0,0.0,0.0,0.0,0.0,0.0,0.0,0.0,0.0,0.0,0.0,0.0,0.0,0.0,0.0,0.0,0.0,0.0,0.0,0.0,0.0,0.0,0.0,0.0,0.0,0.0,0.0,0.0,0.0,0.0,0.0,0.0,0.0,0.0,0.0,0.0,0.0,0.0,0.0,0.0,0.0,0.0,0.0,0.0,0.0,0.0,0.0,0.0,0.0,0.0,0.0,0.0,0.0,0.0,-0.8063,-0.7691,-0.763,0.0,0.0,0.0,0.0,0.0,0.0,0.0,0.0,0.0,0.0,0.0,0.0,0.0,0.0,0.0,0.0,0.0,0.0,0.0,0.0,0.0,0.0,0.0,0.0,0.0,0.0,0.0,0.0,0.0,0.0,0.0,0.0,0.0,0.0,0.0,0.0,0.0,0.0,0.0,0.0,0.0,0.0,0.0,0.0,0.0,0.0,0.0,0.0,0.0,0.0,0.0,0.0,0.0,0.0,0.0,0.0,0.0,0.0,0.0,0.0,0.0,0.0,0.0,0.0,0.0,0.0,0.0,0.0,0.0,0.0,0.0,0.0,0.0,0.0,0.0,0.0,0.0,0.0,0.0,0.0,0.0,0.0,0.0,0.0,0.0,0.0,0.0,0.0,0.0,0.0,0.0,0.0,0.0,0.0,0.0,0.0,0.0,0.0,0.0,0.0,0.0,0.0,0.0,0.0,0.0,0.0,0.0,0.0,0.0,0.0,-0.9441,-0.916,-0.9221,0.0,-0.8136,0.0,0.0,0.0,0.0,0.0,0.0,0.0,0.0,0.0,0.0,0.0,0.0,0.0,0.0,0.0,0.0,0.0,0.0,0.0,0.0,0.0,0.0,0.0,0.0,0.0,0.0,0.0,0.0,0.0,0.0,0.0,0.0,0.0,0.0,0.0,0.0,0.0,0.0,0.0,0.0,0.0,0.0,0.0,0.0,0.0,0.0,0.0,0.0,0.0,0.0,0.0,0.0,0.0,0.0,0.0,0.0,0.0,0.0,0.0,0.0,0.0,0.0,0.0,0.0,0.0,0.0,0.0,0.0,0.0,0.0,0.0,0.0,0.0,0.0,0.0,0.0,0.0,0.0,0.0,0.0,0.0,0.0,0.0,0.0,0.0,0.0,0.0,0.0,0.0,0.0,0.0,0.0,0.0,0.0,0.0,0.0,0.0,0.0,0.0,0.0,0.0,0.0,0.0,0.0,0.0,0.0,0.0,0.0,0.0,0.0,-1.0033,-0.9972,-0.9886,-0.9564,0.0,0.0,0.0,0.0,0.0,0.0,0.0,0.0,0.0,0.0,0.0,0.0,0.0,0.0,0.0,0.0,0.0,0.0,0.0,0.0,0.0,0.0,0.0,0.0,0.0,0.0,0.0,0.0,0.0,0.0,0.0,0.0,0.0,0.0,0.0,0.0,0.0,0.0,0.0,0.0,0.0,0.0,0.0,0.0,0.0,0.0,0.0,0.0,0.0,0.0,0.0,0.0,0.0,0.0,0.0,0.0,0.0,0.0,0.0,0.0,0.0,0.0,0.0,0.0,0.0,0.0,0.0,0.0,0.0,0.0,0.0,0.0,0.0,0.0,0.0,0.0,0.0,0.0,0.0,0.0,0.0,0.0,0.0,0.0,0.0,0.0,0.0,0.0,0.0,0.0,0.0,0.0,0.0,0.0,0.0,0.0,0.0,0.0,0.0,0.0,0.0,0.0,0.0,0.0,0.0,0.0,0.0,0.0,0.0,0.0,-1.0224,-1.046,-1.0643,-1.0528,-1.0236,-0.9793,0.0,0.0,0.0,0.0,0.0,0.0,0.0,0.0,0.0,0.0,0.0,0.0,0.0,0.0,0.0,0.0,0.0,0.0,0.0,0.0,0.0,0.0,0.0,0.0,0.0,0.0,0.0,0.0,0.0,0.0,0.0,0.0,0.0,0.0,0.0,0.0,0.0,0.0,0.0,0.0,0.0,0.0,0.0,0.0,0.0,0.0,0.0,0.0,0.0,0.0,0.0,0.0,0.0,0.0,0.0,0.0,0.0,0.0,0.0,0.0,0.0,0.0,0.0,0.0,0.0,0.0,0.0,0.0,0.0,0.0,0.0,0.0,0.0,0.0,0.0,0.0,0.0,0.0,0.0,0.0,0.0,0.0,0.0,0.0,0.0,0.0,0.0,0.0,0.0,0.0,0.0,0.0,0.0,0.0,0.0,0.0,0.0,0.0,0.0,0.0,0.0,0.0,0.0,0.0,0.0,0.0,0.0,0.0,-1.0274,-1.0485,-1.0753,-1.1062,-1.1219,-1.1067,0.0,0.0,0.0,0.0,0.0,0.0,0.0,0.0,0.0,0.0,0.0,0.0,0.0,0.0,0.0,0.0,0.0,0.0,0.0,0.0,0.0,0.0,0.0,0.0,0.0,0.0,0.0,0.0,0.0,0.0,0.0,0.0,0.0,0.0,0.0,0.0,0.0,0.0,0.0,0.0,0.0,0.0,0.0,0.0,0.0,0.0,0.0,0.0,0.0,0.0,0.0,0.0,0.0,0.0,0.0,0.0,0.0,0.0,0.0,0.0,0.0,0.0,0.0,0.0,0.0,0.0,0.0,0.0,0.0,0.0,0.0,0.0,0.0,0.0,0.0,0.0,0.0,0.0,0.0,0.0,0.0,0.0,0.0,0.0,0.0,0.0,0.0,0.0,0.0,0.0,0.0,0.0,0.0,0.0,0.0,0.0,0.0,0.0,0.0,0.0,0.0,0.0,0.0,0.0,0.0,0.0,0.0,0.0,0.0,-1.0498,-1.0777,-1.1052,-1.1353,-1.1421,-1.1409,0.0,0.0,0.0,0.0,0.0,0.0,0.0,0.0,0.0,0.0,0.0,0.0,0.0,0.0,0.0,0.0,0.0,0.0,0.0,0.0,0.0,0.0,0.0,0.0,0.0,0.0,0.0,0.0,0.0,0.0,0.0,0.0,0.0,0.0,0.0,0.0,0.0,0.0,0.0,0.0,0.0,0.0,0.0,0.0,0.0,0.0,0.0,0.0,0.0,0.0,0.0,0.0,0.0,0.0,0.0,0.0,0.0,0.0,0.0,0.0,0.0,0.0,0.0,0.0,0.0,0.0,0.0,0.0,0.0,0.0,0.0,0.0,0.0,0.0,0.0,0.0,0.0,0.0,0.0,0.0,0.0,0.0,0.0,0.0,0.0,0.0,0.0,0.0,0.0,0.0,0.0,0.0,0.0,0.0,0.0,0.0,0.0,0.0,0.0,0.0,0.0,0.0,0.0,0.0,0.0,0.0,0.0,0.0,0.0,-1.1351,0.0,-1.1933,-1.2114,-1.2209,-1.2169,0.0,0.0,0.0,0.0,0.0,0.0,0.0,0.0,0.0,0.0,0.0,0.0,0.0,0.0,0.0,0.0,0.0,0.0,0.0,0.0,0.0,0.0,0.0,0.0,0.0,0.0,0.0,0.0,0.0,0.0,0.0,0.0,0.0,0.0,0.0,0.0,0.0,0.0,0.0,0.0,0.0,0.0,0.0,0.0,0.0,0.0,0.0,0.0,0.0,0.0,0.0,0.0,0.0,0.0,0.0,0.0,0.0,0.0,0.0,0.0,0.0,0.0,0.0,0.0,0.0,0.0,0.0,0.0,0.0,0.0,0.0,0.0,0.0,0.0,0.0,0.0,0.0,0.0,0.0,0.0,0.0,0.0,0.0,0.0,0.0,0.0,0.0,0.0,0.0,0.0,0.0,0.0,0.0,0.0,0.0,0.0,0.0,0.0,0.0,0.0,0.0,0.0,0.0,0.0,0.0,0.0,0.0,0.0,-1.1912,-1.2953,-1.3277,-1.3394,-1.3435,-1.3649,-1.3475,0.0,0.0,0.0,0.0,0.0,0.0,0.0,0.0,0.0,0.0,0.0,0.0,0.0,0.0,0.0,0.0,0.0,0.0,0.0,0.0,0.0,0.0,0.0,0.0,0.0,0.0,0.0,0.0,0.0,0.0,0.0,0.0,0.0,0.0,0.0,0.0,0.0,0.0,0.0,0.0,0.0,0.0,0.0,0.0,0.0,0.0,0.0,0.0,0.0,0.0,0.0,0.0,0.0,0.0,0.0,0.0,0.0,0.0,0.0,0.0,0.0,0.0,0.0,0.0,0.0,0.0,0.0,0.0,0.0,0.0,0.0,0.0,0.0,0.0,0.0,0.0,0.0,0.0,0.0,0.0,0.0,0.0,0.0,0.0,0.0,0.0,0.0,0.0,0.0,0.0,0.0,0.0,0.0,0.0,0.0,0.0,0.0,0.0,0.0,0.0,0.0,0.0,0.0,0.0,0.0,0.0,0.0,0.0,0.0,-1.4009,-1.4456,-1.4832,-1.503,-1.468,-1.4457,0.0,0.0,0.0,0.0,0.0,0.0,0.0,0.0,0.0,0.0,0.0,0.0,0.0,0.0,0.0,0.0,0.0,0.0,0.0,0.0,0.0,0.0,0.0,0.0,0.0,0.0,0.0,0.0,0.0,0.0,0.0,0.0,0.0,0.0,0.0,0.0,0.0,0.0,0.0,0.0,0.0,0.0,0.0,0.0,0.0,0.0,0.0,0.0,0.0,0.0,0.0,0.0,0.0,0.0,0.0,0.0,0.0,0.0,0.0,0.0,0.0,0.0,0.0,0.0,0.0,0.0,0.0,0.0,0.0,0.0,0.0,0.0,0.0,0.0,0.0,0.0,0.0,0.0,0.0,0.0,0.0,0.0,0.0,0.0,0.0,0.0,0.0,0.0,0.0,0.0,0.0,0.0,0.0,0.0,0.0,0.0,0.0,0.0,0.0,0.0,0.0,0.0,0.0,0.0,0.0,0.0,0.0,0.0,0.0,-1.6743,-1.7081,-1.7385,-1.7627,-1.709,-1.647,-1.5823,0.0,0.0,0.0,0.0,0.0,0.0,0.0,0.0,0.0,0.0,0.0,0.0,0.0,0.0,0.0,0.0,0.0,0.0,0.0,0.0,0.0,0.0,0.0,0.0,0.0,0.0,0.0,0.0,0.0,0.0,0.0,0.0,0.0,0.0,0.0,0.0,0.0,0.0,0.0,0.0,0.0,0.0,0.0,0.0,0.0,0.0,0.0,0.0,0.0,0.0,0.0,0.0,0.0,0.0,0.0,0.0,0.0,0.0,0.0,0.0,0.0,0.0,0.0,0.0,0.0,0.0,0.0,0.0,0.0,0.0,0.0,0.0,0.0,0.0,0.0,0.0,0.0,0.0,0.0,0.0,0.0,0.0,0.0,0.0,0.0,0.0,0.0,0.0,0.0,0.0,0.0,0.0,0.0,0.0,0.0,0.0,0.0,0.0,0.0,0.0,0.0,0.0,0.0,0.0,0.0,0.0,0.0,0.0,-2.0801,-2.0876,-2.0923,-2.0911,-2.0406,-1.9326,0.0,0.0,0.0,0.0,0.0,0.0,0.0,0.0,0.0,0.0,0.0,0.0,0.0,0.0,0.0,0.0,0.0,0.0,0.0,0.0,0.0,0.0,0.0,0.0,0.0,0.0,0.0,0.0,0.0,0.0,0.0,0.0,0.0,0.0,0.0,0.0,0.0,0.0,0.0,0.0,0.0,0.0,0.0,0.0,0.0,0.0,0.0,0.0,0.0,0.0,0.0,0.0,0.0,0.0,0.0,0.0,0.0,0.0,0.0,0.0,0.0,0.0,0.0,0.0,0.0,0.0,0.0,0.0,0.0,0.0,0.0,0.0,0.0,0.0,0.0,0.0,0.0,0.0,0.0,0.0,0.0,0.0,0.0,0.0,0.0,0.0,0.0,0.0,0.0,0.0,0.0,0.0,0.0,0.0,0.0,0.0,0.0,0.0,0.0,0.0,0.0,0.0,0.0,0.0,0.0,0.0,0.0,0.0,0.0,-2.342,-2.4492,-2.4608,-2.3661,-2.187,-2.0674,0.0,0.0,0.0,0.0,0.0,0.0,0.0,0.0,0.0,0.0,0.0,0.0,0.0,0.0,0.0,0.0,0.0,0.0,0.0,0.0,0.0,0.0,0.0,0.0,0.0,0.0,0.0,0.0,0.0,0.0,0.0,0.0,0.0,0.0,0.0,0.0,0.0,0.0,0.0,0.0,0.0,0.0,0.0,0.0,0.0,0.0,0.0,0.0,0.0,0.0,0.0,0.0,0.0,0.0,0.0,0.0,0.0,0.0,0.0,0.0,0.0,0.0,0.0,0.0,0.0,0.0,0.0,0.0,0.0,0.0,0.0,0.0,0.0,0.0,0.0,0.0,0.0,0.0,0.0,0.0,0.0,0.0,0.0,0.0,0.0,0.0,0.0,0.0,0.0,0.0,0.0,0.0,0.0,0.0,0.0,0.0,0.0,0.0,0.0,0.0,0.0,0.0,0.0,0.0,0.0,0.0,0.0,0.0,-2.3288,-2.507,-2.6579,-2.7288,-2.7032,-2.4437,-2.2723,0.0,0.0,0.0,0.0,0.0,0.0,0.0,0.0,0.0,0.0,0.0,0.0,0.0,0.0,0.0,0.0,0.0,0.0,0.0,0.0,0.0,0.0,0.0,0.0,0.0,0.0,0.0,0.0,0.0,0.0,0.0,0.0,0.0,0.0,0.0,0.0,0.0,0.0,0.0,0.0,0.0,0.0,0.0,0.0,0.0,0.0,0.0,0.0,0.0,0.0,0.0,0.0,0.0,0.0,0.0,0.0,0.0,0.0,0.0,0.0,0.0,0.0,0.0,0.0,0.0,0.0,0.0,0.0,0.0,0.0,0.0,0.0,0.0,0.0,0.0,0.0,0.0,0.0,0.0,0.0,0.0,0.0,0.0,0.0,0.0,0.0,0.0,0.0,0.0,0.0,0.0,0.0,0.0,0.0,0.0,0.0,0.0,0.0,0.0,0.0,0.0,0.0,0.0,0.0,0.0,0.0,0.0,0.0,-2.4621,-2.6157,-2.7764,-2.9134,-3.0143,-2.7259,-2.4997,0.0,0.0,0.0,0.0,0.0,0.0,0.0,0.0,0.0,0.0,0.0,0.0,0.0,0.0,0.0,0.0,0.0,0.0,0.0,0.0,0.0,0.0,0.0,0.0,0.0,0.0,0.0,0.0,0.0,0.0,0.0,0.0,0.0,0.0,0.0,0.0,0.0,0.0,0.0,0.0,0.0,0.0,0.0,0.0,0.0,0.0,0.0,0.0,0.0,0.0,0.0,0.0,0.0,0.0,0.0,0.0,0.0,0.0,0.0,0.0,0.0,0.0,0.0,0.0,0.0,0.0,0.0,0.0,0.0,0.0,0.0,0.0,0.0,0.0,0.0,0.0,0.0,0.0,0.0,0.0,0.0,0.0,0.0,0.0,0.0,0.0,0.0,0.0,0.0,0.0,0.0,0.0,0.0,0.0,0.0,0.0,0.0,0.0,0.0,0.0,0.0,0.0,0.0,0.0,0.0,0.0,0.0,0.0,-2.6199,-2.7828,-2.8745,-2.954,-3.0276,-2.7745,-2.5913,0.0,0.0,0.0,0.0,0.0,0.0,0.0,0.0,0.0,0.0,0.0,0.0,0.0,0.0,0.0,0.0,0.0,0.0,0.0,0.0,0.0,0.0,0.0,0.0,0.0,0.0,0.0,0.0,0.0,0.0,0.0,0.0,0.0,0.0,0.0,0.0,0.0,0.0,0.0,0.0,0.0,0.0,0.0,0.0,0.0,0.0,0.0,0.0,-1.6987,0.0,0.0,0.0,0.0,0.0,0.0,0.0,0.0,0.0,0.0,0.0,0.0,0.0,0.0,0.0,0.0,0.0,0.0,0.0,0.0,0.0,0.0,0.0,0.0,0.0,0.0,0.0,0.0,0.0,0.0,0.0,0.0,0.0,0.0,0.0,0.0,0.0,0.0,0.0,0.0,0.0,0.0,0.0,0.0,0.0,0.0,0.0,0.0,0.0,0.0,0.0,0.0,0.0,0.0,0.0,0.0,0.0,0.0,0.0,-2.6777,-2.8501,-2.9389,-3.0123,-3.0608,-2.9036,-2.7412,0.0,0.0,0.0,0.0,0.0,0.0,0.0,0.0,0.0,0.0,0.0,0.0,0.0,0.0,0.0,0.0,0.0,0.0,0.0,0.0,0.0,0.0,0.0,0.0,0.0,0.0,0.0,0.0,0.0,0.0,0.0,0.0,0.0,0.0,0.0,0.0,0.0,0.0,0.0,0.0,0.0,0.0,0.0,0.0,0.0,0.0,0.0,0.0,0.0,0.0,0.0,0.0,0.0,0.0,0.0,0.0,0.0,0.0,0.0,0.0,0.0,0.0,0.0,0.0,0.0,0.0,0.0,0.0,0.0,0.0,0.0,0.0,0.0,0.0,0.0,0.0,0.0,0.0,0.0,0.0,0.0,0.0,0.0,0.0,0.0,0.0,0.0,0.0,0.0,0.0,0.0,0.0,0.0,0.0,0.0,0.0,0.0,0.0,0.0,0.0,0.0,0.0,0.0,0.0,0.0,0.0,0.0,-2.567,-2.7387,-2.9163,-3.0029,-3.0683,-3.119,-3.0386,-2.8824,-2.65,0.0,0.0,0.0,0.0,0.0,0.0,0.0,0.0,0.0,0.0,0.0,0.0,0.0,0.0,0.0,0.0,0.0,0.0,0.0,0.0,0.0,0.0,0.0,0.0,0.0,0.0,0.0,0.0,0.0,0.0,0.0,0.0,0.0,0.0,0.0,0.0,0.0,0.0,-1.4332,-1.6141,0.0,0.0,0.0,0.0,0.0,0.0,0.0,0.0,-2.0942,0.0,0.0,0.0,0.0,0.0,0.0,0.0,0.0,0.0,0.0,0.0,0.0,0.0,0.0,0.0,0.0,0.0,0.0,0.0,0.0,0.0,0.0,0.0,0.0,0.0,0.0,0.0,0.0,0.0,0.0,0.0,0.0,0.0,0.0,0.0,0.0,0.0,0.0,0.0,0.0,0.0,0.0,0.0,0.0,0.0,0.0,0.0,0.0,0.0,0.0,0.0,0.0,0.0,0.0,0.0,0.0,-2.7208,-2.8249,-2.9707,-3.1631,-3.1268,-3.1095,-3.1173,-3.048,-2.8969,-2.6673,0.0,0.0,0.0,0.0,0.0,0.0,0.0,0.0,0.0,0.0,0.0,0.0,0.0,0.0,0.0,0.0,0.0,0.0,0.0,0.0,0.0,0.0,0.0,0.0,0.0,0.0,0.0,0.0,0.0,0.0,0.0,0.0,0.0,0.0,0.0,0.0,0.0,0.0,0.0,-1.8284,-1.8954,0.0,0.0,0.0,0.0,0.0,0.0,0.0,0.0,-2.2924,0.0,0.0,0.0,0.0,0.0,0.0,0.0,0.0,0.0,0.0,0.0,0.0,0.0,0.0,0.0,0.0,0.0,0.0,0.0,0.0,0.0,0.0,0.0,0.0,0.0,0.0,0.0,0.0,0.0,0.0,0.0,0.0,0.0,0.0,0.0,0.0,0.0,0.0,0.0,0.0,0.0,0.0,0.0,0.0,0.0,0.0,0.0,0.0,0.0,0.0,0.0,0.0,0.0,0.0,0.0,-2.7656,-2.9659,-3.1199,-3.2326,-3.1999,-3.1749,-3.1732,-3.07,-2.9191,0.0,0.0,0.0,0.0,0.0,0.0,0.0,0.0,0.0,0.0,0.0,0.0,0.0,0.0,0.0,0.0,0.0,0.0,0.0,0.0,0.0,0.0,0.0,0.0,0.0,0.0,0.0,0.0,0.0,0.0,0.0,0.0,0.0,0.0,0.0,0.0,0.0,0.0,0.0,0.0,-2.0323,-2.1191,-2.2236,0.0,0.0,0.0,0.0,0.0,0.0,-2.4655,-2.4102,0.0,0.0,0.0,0.0,0.0,0.0,0.0,0.0,0.0,0.0,0.0,0.0,0.0,0.0,0.0,0.0,0.0,0.0,0.0,0.0,0.0,0.0,0.0,0.0,0.0,0.0,0.0,0.0,0.0,0.0,0.0,0.0,0.0,0.0,0.0,0.0,0.0,0.0,0.0,0.0,0.0,0.0,0.0,0.0,0.0,0.0,0.0,0.0,0.0,0.0,0.0,0.0,0.0,0.0,0.0,-2.8288,-3.0799,-3.2383,-3.2885,-3.2656,-3.2425,-3.2256,-3.0869,-2.9397,0.0,0.0,0.0,0.0,0.0,0.0,0.0,0.0,0.0,0.0,0.0,0.0,0.0,0.0,0.0,0.0,0.0,0.0,0.0,0.0,0.0,0.0,0.0,0.0,0.0,0.0,0.0,0.0,0.0,0.0,0.0,0.0,0.0,0.0,0.0,0.0,0.0,0.0,0.0,0.0,0.0,-2.3109,-2.4046,-2.4243,0.0,0.0,0.0,0.0,-2.6437,-2.5694,0.0,0.0,0.0,0.0,0.0,0.0,0.0,0.0,0.0,0.0,0.0,0.0,0.0,0.0,0.0,0.0,0.0,0.0,0.0,0.0,0.0,0.0,0.0,0.0,0.0,0.0,0.0,0.0,0.0,0.0,0.0,0.0,0.0,0.0,0.0,0.0,0.0,0.0,0.0,0.0,0.0,0.0,0.0,0.0,0.0,0.0,0.0,0.0,0.0,0.0,0.0,0.0,0.0,0.0,0.0,0.0,-3.1113,-3.2376,-3.3412,-3.4182,-3.3617,-3.2949,-3.229,-3.0869,-2.9397,0.0,0.0,0.0,0.0,0.0,0.0,0.0,0.0,0.0,0.0,0.0,0.0,0.0,0.0,0.0,0.0,0.0,0.0,0.0,0.0,0.0,0.0,0.0,0.0,0.0,0.0,0.0,0.0,0.0,0.0,0.0,0.0,0.0,0.0,0.0,0.0,0.0,0.0,0.0,0.0,0.0,-2.3235,-2.4158,-2.4368,-2.4523,0.0,0.0,-2.5832,-2.6433,-2.6395,0.0,0.0,0.0,0.0,0.0,0.0,0.0,0.0,0.0,0.0,0.0,0.0,0.0,0.0,0.0,0.0,0.0,0.0,0.0,0.0,0.0,0.0,0.0,0.0,0.0,0.0,0.0,0.0,0.0,0.0,0.0,0.0,0.0,0.0,0.0,0.0,0.0,0.0,0.0,0.0,0.0,0.0,0.0,0.0,0.0,0.0,0.0,0.0,0.0,0.0,0.0,0.0,0.0,0.0,0.0,-2.9708,-3.1791,-3.3604,-3.4722,-3.5098,-3.4421,-3.366,-3.2933,-3.1495,-2.982,0.0,0.0,0.0,0.0,0.0,0.0,0.0,0.0,0.0,0.0,0.0,0.0,0.0,0.0,0.0,0.0,0.0,0.0,0.0,0.0,0.0,0.0,0.0,0.0,0.0,0.0,0.0,0.0,0.0,0.0,0.0,0.0,0.0,0.0,0.0,0.0,0.0,0.0,0.0,0.0,0.0,0.0,-2.4874,-2.5458,0.0,0.0,0.0,-2.7099,-2.7402,0.0,0.0,0.0,0.0,0.0,0.0,0.0,0.0,0.0,0.0,0.0,0.0,0.0,0.0,0.0,0.0,0.0,0.0,0.0,0.0,0.0,0.0,0.0,0.0,0.0,0.0,0.0,0.0,0.0,0.0,0.0,0.0,0.0,0.0,0.0,0.0,0.0,0.0,0.0,0.0,0.0,0.0,0.0,0.0,0.0,0.0,0.0,0.0,0.0,0.0,0.0,0.0,0.0,0.0,0.0,0.0,0.0,-3.2176,-3.4459,-3.5639,-3.5605,-3.5081,-3.4421,-3.3677,-3.2239,0.0,0.0,0.0,0.0,0.0,0.0,0.0,0.0,0.0,0.0,0.0,0.0,0.0,0.0,0.0,0.0,0.0,0.0,0.0,0.0,0.0,0.0,0.0,0.0,0.0,0.0,0.0,-1.8326,0.0,0.0,0.0,0.0,0.0,0.0,0.0,0.0,0.0,0.0,0.0,0.0,0.0,0.0,-2.4891,-2.5664,-2.6572,-2.7349,0.0,0.0,-2.8557,-2.8744,-2.859,-2.824,0.0,0.0,0.0,0.0,0.0,0.0,0.0,0.0,0.0,0.0,0.0,0.0,0.0,0.0,0.0,0.0,0.0,0.0,0.0,0.0,0.0,0.0,0.0,0.0,0.0,0.0,0.0,0.0,0.0,0.0,0.0,0.0,0.0,0.0,0.0,0.0,0.0,0.0,0.0,0.0,0.0,0.0,0.0,0.0,0.0,0.0,0.0,0.0,0.0,0.0,0.0,0.0,0.0,0.0,0.0,-3.3024,-3.4711,-3.5639,-3.5622,-3.5571,-3.5182,-3.4421,-3.3025,-3.1512,0.0,0.0,0.0,0.0,0.0,0.0,0.0,0.0,0.0,0.0,0.0,0.0,0.0,0.0,0.0,0.0,0.0,0.0,0.0,0.0,0.0,0.0,0.0,0.0,0.0,0.0,0.0,0.0,0.0,0.0,0.0,0.0,0.0,0.0,0.0,0.0,0.0,0.0,0.0,0.0,0.0,-2.5697,-2.6438,-2.7386,-2.8441,0.0,0.0,-2.9902,-3.0279,-3.052,-3.0143,-2.8585,0.0,0.0,0.0,0.0,0.0,0.0,0.0,0.0,0.0,0.0,0.0,0.0,0.0,0.0,0.0,0.0,0.0,0.0,0.0,0.0,0.0,0.0,0.0,0.0,0.0,0.0,0.0,0.0,0.0,0.0,0.0,0.0,0.0,0.0,0.0,0.0,0.0,0.0,0.0,0.0,0.0,0.0,0.0,0.0,0.0,0.0,0.0,0.0,0.0,0.0,0.0,0.0,0.0,-3.1466,-3.3091,-3.4728,-3.5639,-3.5622,-3.5941,-3.5719,-3.5022,-3.4438,-3.3201,0.0,0.0,0.0,0.0,0.0,0.0,0.0,0.0,0.0,0.0,0.0,0.0,0.0,0.0,0.0,0.0,0.0,0.0,0.0,0.0,0.0,0.0,0.0,0.0,0.0,0.0,0.0,0.0,-2.3664,-2.4149,-2.3995,0.0,0.0,0.0,0.0,0.0,0.0,0.0,0.0,0.0,0.0,-2.6691,-2.7908,-2.8455,0.0,0.0,-2.9674,-2.9919,-3.0368,-3.0575,-3.0404,-2.9526,-2.8816,0.0,0.0,0.0,0.0,0.0,0.0,0.0,0.0,0.0,0.0,0.0,0.0,0.0,0.0,0.0,0.0,0.0,0.0,0.0,0.0,0.0,0.0,0.0,0.0,0.0,0.0,0.0,0.0,0.0,0.0,0.0,0.0,0.0,0.0,0.0,0.0,0.0,0.0,0.0,0.0,0.0,0.0,0.0,0.0,0.0,0.0,0.0,0.0,0.0,0.0,0.0,0.0,-3.1784,-3.3151,-3.479,-3.5694,-3.5871,-3.6224,-3.6173,-3.5636,-3.5434,-3.4367,0.0,0.0,0.0,0.0,0.0,0.0,0.0,0.0,0.0,0.0,0.0,0.0,0.0,0.0,0.0,0.0,0.0,0.0,0.0,0.0,0.0,0.0,0.0,0.0,0.0,0.0,0.0,0.0,-2.5154,-2.5607,-2.47,0.0,0.0,0.0,0.0,0.0,0.0,0.0,0.0,0.0,0.0,-2.8049,-2.9417,-2.9659,-2.9833,-3.0162,-3.0437,-3.075,-3.1201,-3.1379,-3.1299,-3.0808,0.0,0.0,0.0,0.0,0.0,0.0,0.0,0.0,0.0,0.0,0.0,0.0,0.0,0.0,0.0,0.0,0.0,0.0,0.0,0.0,0.0,0.0,0.0,0.0,0.0,0.0,0.0,0.0,0.0,0.0,-1.7327,0.0,0.0,0.0,0.0,0.0,0.0,0.0,0.0,0.0,0.0,0.0,0.0,0.0,0.0,0.0,0.0,0.0,0.0,0.0,0.0,0.0,0.0,-3.2345,-3.3304,-3.479,-3.5854,-3.6333,-3.6392,-3.6399,-3.6364,-3.5671,-3.4708,-3.3363,0.0,0.0,0.0,0.0,0.0,0.0,0.0,0.0,0.0,0.0,0.0,0.0,0.0,0.0,0.0,0.0,0.0,0.0,0.0,0.0,0.0,0.0,0.0,0.0,0.0,0.0,-2.5319,-2.6398,-2.6375,0.0,0.0,0.0,0.0,0.0,0.0,0.0,0.0,0.0,0.0,-2.8728,-2.9899,-3.08,-3.1091,-3.1421,-3.2158,-3.2449,-3.2777,-3.3196,-3.3314,-3.3193,0.0,0.0,0.0,0.0,0.0,0.0,0.0,0.0,0.0,0.0,0.0,0.0,0.0,0.0,0.0,0.0,0.0,0.0,0.0,0.0,0.0,0.0,0.0,0.0,0.0,0.0,0.0,-2.0301,-2.0213,0.0,0.0,0.0,0.0,0.0,0.0,0.0,0.0,0.0,0.0,0.0,-2.5944,-2.6258,0.0,0.0,0.0,0.0,0.0,0.0,0.0,0.0,0.0,0.0,0.0,0.0,-3.2387,-3.3304,-3.4851,-3.5854,-3.6374,-3.6781,-3.6921,-3.696,-3.6696,-3.5588,-3.3465,0.0,0.0,0.0,0.0,0.0,0.0,0.0,0.0,0.0,0.0,0.0,0.0,0.0,0.0,0.0,0.0,0.0,0.0,0.0,0.0,0.0,0.0,0.0,0.0,0.0,-2.4997,0.0,0.0,0.0,0.0,0.0,0.0,0.0,0.0,0.0,0.0,0.0,-2.8934,-2.9964,-3.0486,-3.1003,-3.174,-3.1897,-3.2036,0.0,0.0,0.0,0.0,0.0,0.0,0.0,0.0,0.0,0.0,0.0,0.0,0.0,0.0,-2.7622,-2.7206,-2.7276,-2.7402,-2.7402,0.0,0.0,0.0,0.0,0.0,0.0,0.0,0.0,0.0,0.0,0.0,0.0,0.0,0.0,0.0,0.0,-2.3271,0.0,0.0,0.0,0.0,0.0,0.0,0.0,0.0,-2.824,-2.8786,-2.8562,-2.9063,-2.9549,0.0,-3.0115,-2.9243,0.0,0.0,0.0,0.0,0.0,0.0,0.0,0.0,-3.2967,-3.3964,-3.5241,-3.6207,-3.6904,-3.7285,-3.7433,-3.7433,-3.7097,-3.5948,-3.3872,-3.2611,-3.1016,0.0,0.0,0.0,0.0,0.0,0.0,0.0,0.0,0.0,0.0,0.0,0.0,0.0,0.0,0.0,0.0,0.0,0.0,0.0,0.0,0.0,0.0,0.0,-2.685,0.0,0.0,0.0,0.0,0.0,0.0,0.0,0.0,0.0,-2.8182,-2.9287,-3.054,-3.1583,-3.1836,-3.2147,-3.2645,0.0,0.0,0.0,0.0,0.0,0.0,0.0,-3.3087,-3.2866,-3.2876,-3.2773,-3.2309,-3.1336,-3.0668,-3.0858,0.0,0.0,-2.9292,-2.9475,-2.9843,-2.9843,-2.9843,-2.9824,-2.9843,-2.9843,-2.9843,0.0,0.0,0.0,0.0,0.0,0.0,0.0,0.0,-2.3876,-2.4494,0.0,-2.5269,0.0,0.0,0.0,0.0,0.0,-2.8016,0.0,0.0,-3.1348,-3.2176,-3.1473,-3.2342,-3.287,-3.3016,-3.2602,-3.255,-3.2613,-3.1305,0.0,0.0,0.0,0.0,0.0,0.0,-3.3964,-3.5215,-3.5935,-3.6865,-3.779,-3.7877,-3.7877,-3.7843,-3.6904,-3.5778,-3.4583,-3.3812,-3.2705,-3.1122,-2.8979,0.0,0.0,0.0,0.0,0.0,0.0,0.0,0.0,0.0,0.0,0.0,0.0,0.0,0.0,0.0,0.0,0.0,0.0,0.0,0.0,-2.7691,0.0,0.0,0.0,0.0,0.0,0.0,0.0,0.0,0.0,0.0,-2.8766,-3.0395,-3.19,-3.2292,0.0,0.0,0.0,0.0,-3.3404,-3.3147,-3.316,-3.3268,-3.3393,-3.3462,-3.353,-3.3652,0.0,0.0,-3.3758,-3.2482,-3.1666,-3.2164,-3.2419,-3.2412,-3.1586,-3.1439,-3.1458,-3.1458,-3.1458,-3.1458,-3.1458,-3.1476,-3.1476,-2.2139,0.0,0.0,0.0,0.0,-2.3778,-2.4707,-2.5473,-2.7018,-2.763,-2.7533,-2.8234,0.0,0.0,0.0,0.0,0.0,0.0,-2.979,-3.0004,-3.1763,-3.2493,-3.2292,-3.3038,-3.363,-3.4136,-3.4034,-3.425,-3.4723,-3.4381,-3.3436,-3.2127,0.0,0.0,0.0,0.0,-3.432,-3.4763,-3.5479,-3.6374,-3.7396,-3.7396,-3.7396,-3.7396,-3.6399,-3.5681,-3.5284,-3.4573,-3.3744,-3.2739,-3.0988,0.0,0.0,0.0,0.0,0.0,0.0,0.0,0.0,0.0,0.0,0.0,0.0,0.0,0.0,0.0,0.0,0.0,0.0,0.0,-2.8459,-2.9489,-3.0003,0.0,0.0,0.0,0.0,0.0,0.0,0.0,0.0,0.0,-3.1364,-3.2338,-3.3166,0.0,0.0,-3.3502,-3.3556,-3.3567,-3.3549,-3.3538,0.0,0.0,0.0,-3.3615,-3.3643,-3.3698,-3.3734,-3.3762,-3.3797,-3.343,-3.3146,-3.3301,-3.3403,-3.3366,-3.3183,-3.3109,-3.3091,-3.3109,-3.3109,-3.3109,-3.3109,-3.3109,-3.3109,-2.4897,-2.3826,-2.3781,-2.419,-2.4853,-2.5331,-2.6232,-2.749,-2.8236,-2.882,-2.9213,-2.9826,-2.9668,-2.9029,-2.9086,0.0,0.0,0.0,-3.0783,-3.1248,-3.2423,-3.313,-3.3443,-3.4103,-3.4592,-3.4988,-3.4988,-3.5207,-3.5639,-3.5639,-3.5093,-3.4112,0.0,0.0,-3.3794,-3.4216,-3.4797,-3.5559,-3.6008,-3.6746,-3.7756,-3.7791,-3.7703,-3.747,-3.6666,-3.6122,-3.5924,-3.5314,-3.4607,-3.3846,-3.2638,-3.1038,0.0,0.0,0.0,0.0,0.0,0.0,0.0,0.0,0.0,0.0,0.0,-2.3884,0.0,0.0,0.0,0.0,-2.775,-2.866,-3.0335,-3.0716,0.0,0.0,0.0,0.0,0.0,0.0,0.0,-3.1401,-3.2038,-3.2592,-3.293,-3.3414,-3.3753,-3.3753,-3.3698,-3.3689,-3.3679,0.0,-3.3716,-3.3726,-3.3716,-3.3698,-3.3726,-3.3753,-3.3734,-3.3753,-3.3762,-3.3807,-3.3807,-3.3807,-3.3807,-3.3807,-3.3807,-3.3807,-3.3807,-3.3807,-3.3807,-3.3807,-3.3807,-3.3807,-3.3807,-3.3807,-3.3807,-2.7447,-2.8126,-2.6436,-2.6433,-2.7442,-2.6845,-2.7603,-2.9058,-2.8325,-2.8798,-3.0133,-3.0329,-3.0323,-3.0201,-3.0201,0.0,-3.0416,-3.1126,-3.1823,-3.2656,-3.3339,-3.3987,-3.4624,-3.527,-3.5639,-3.5639,-3.5639,-3.5639,-3.5622,-3.5639,-3.5639,-3.5605,-3.4928,-3.459,-3.4573,-3.4617,-3.5459,-3.7079,-3.719,-3.7667,-3.8596,-3.8627,-3.8364,-3.7859,-3.7433,-3.6904,-3.635,-3.5881,-3.5345,-3.4607,-3.388,-3.279,-3.124,0.0,0.0,0.0,0.0,0.0,0.0,0.0,0.0,0.0,0.0,0.0,0.0,0.0,0.0,0.0,-2.9677,0.0,-3.1934,-3.1411,0.0,0.0,0.0,-3.1073,-3.1193,-3.1274,-3.1574,-3.2338,0.0,0.0,-3.3588,0.0,-3.3807,-3.3807,-3.3807,-3.3807,-3.3807,-3.3807,-3.3807,-3.3807,-3.3807,-3.3807,-3.3807,-3.3807,-3.3807,-3.3807,-3.3807,-3.3807,-3.3807,-3.3807,-3.3807,-3.3807,-3.3807,-3.3807,-3.3807,-3.3807,-3.3807,-3.3807,-3.3807,-3.3807,-3.3807,-3.3807,-3.3807,-2.9619,-2.983,-2.9722,-2.9821,-3.0115,-3.004,-3.0291,-3.0654,-3.0592,-3.0777,-3.1146,-3.1219,-3.1203,-3.1185,-3.117,-3.117,-3.1243,-3.1987,-3.2382,-3.2695,-3.3836,-3.4431,-3.4624,-3.5253,-3.5639,-3.5639,-3.5639,-3.5639,-3.5639,-3.5639,-3.5639,-3.5622,-3.5436,-3.5351,-3.5351,-3.5754,-3.616,-3.6563,-3.6999,-3.7487,-3.8065,-3.8099,-3.7843,-3.7414,-3.7248,-3.6746,-3.5854,-3.6054,-3.5925,-3.5334,-3.4641,-3.3829,-3.2857,-3.1252,0.0,0.0,0.0,0.0,0.0,0.0,0.0,0.0,0.0,-2.7159,-2.7395,0.0,-2.9559,0.0,-3.0497,-3.1121,-3.16,-3.1811,0.0,0.0,-3.2697,-3.2871,-3.29,-3.2994,-3.315,-3.3332,-3.3433,-3.356,-3.3743,-3.3788,-3.3807,-3.3807,-3.3807,-3.3807,-3.3807,-3.3807,-3.3807,-3.3807,-3.3807,-3.3807,-3.3807,-3.3807,-3.3807,-3.3807,-3.3807,-3.3807,-3.3807,-3.3807,-3.3807,-3.3807,-3.3807,-3.3807,-3.3807,-3.3807,-3.3807,-3.3807,-3.3807,-3.3807,-3.3807,-3.3807,-3.3807,-3.101,-3.146,-3.2095,-3.2577,-3.2933,-3.1661,-3.153,-3.2232,-3.1955,-3.2019,-3.2407,-3.2407,-3.2407,-3.2407,-3.2407,-3.2407,-3.2466,-3.3176,-3.3708,-3.4006,-3.5064,-3.576,-3.6083,-3.6434,-3.6468,-3.6146,-3.6129,-3.596,-3.5639,-3.5639,-3.5639,-3.5639,-3.5639,-3.5711,-3.5924,-3.6249,-3.6603,-3.7079,-3.7578,-3.7998,-3.8267,-3.8267,-3.8099,-3.7773,-3.7487,-3.7038,-3.6416,-3.6326,-3.6174,-3.5783,-3.5321,-3.4701,-3.3914,-3.2797,-3.1512,0.0,0.0,0.0,0.0,0.0,0.0,0.0,0.0,0.0,0.0,0.0,-3.0598,-3.0598,-3.1113,-3.1545,-3.1731,-3.2265,-3.2666,-3.2975,-3.3345,-3.3577,-3.3633,-3.3698,-3.3753,-3.3753,-3.378,-3.3807,-3.3807,-3.3807,-3.3807,-3.3807,-3.3807,-3.3807,-3.3807,-3.3807,-3.3807,-3.3807,-3.3807,-3.3807,-3.3807,-3.3807,-3.3807,-3.3807,-3.3807,-3.3807,-3.3807,-3.3807,-3.3807,-3.3807,-3.3807,-3.3807,-3.3807,-3.3807,-3.3807,-3.3807,-3.3807,-3.3807,-3.3807,-3.3807,-3.3807,-3.1888,-3.2876,-3.3822,-3.4691,-3.5285,-3.2663,-3.2342,-3.3543,-3.2723,-3.2819,-3.3499,-3.3499,-3.3499,-3.3499,-3.3607,-3.3668,-3.3728,-3.4558,-3.5284,-3.5857,-3.6596,-3.7253,-3.7905,-3.7922,-3.7567,-3.6941,-3.6941,-3.6569,-3.5926,-3.591,-3.591,-3.591,-3.5825,-3.6007,-3.6513,-3.6509,-3.6981,-3.7893,-3.8433,-3.8707,-3.8707,-3.8707,-3.8609,-3.8396,-3.7895,-3.7505,-3.7301,-3.6673,-3.6191,-3.6019,-3.5861,-3.5423,-3.4658,-3.3931,-3.2966,0.0,-3.0852,0.0,0.0,0.0,0.0,0.0,0.0,0.0,0.0,-3.0784,-3.119,-3.119,-3.1565,-3.1897,-3.2057,-3.2598,-3.3093,-3.3415,-3.3577,-3.3671,-3.378,-3.3807,-3.3807,-3.3807,-3.3807,-3.3825,-3.3972,-3.3954,-3.3972,-3.4174,-3.4174,-3.4174,-3.4156,-3.4137,-3.41,-3.3972,-3.4045,-3.4321,-3.4284,-3.4211,-3.4211,-3.4174,-3.4247,-3.4119,-3.4229,-3.4192,-3.4156,-3.4174,-3.4247,-3.4192,-3.4119,-3.4174,-3.4174,-3.4247,-3.4266,-3.4174,-3.388,-3.3807,-3.3807,-3.289,-3.3822,-3.4773,-3.5344,-3.5409,-3.4881,-3.453,-3.4262,-3.36,-3.3347,-3.3499,-3.3499,-3.3499,-3.3561,-3.4178,-3.4472,-3.4574,-3.5786,-3.6476,-3.6631,-3.7336,-3.7776,-3.7922,-3.7922,-3.7838,-3.7702,-3.7686,-3.7618,-3.7483,-3.7483,-3.7483,-3.7449,-3.6874,-3.6819,-3.7257,0.0,0.0,0.0,-3.8415,-3.8707,-3.8707,-3.8707,-3.8433,-3.7964,-3.8117,0.0,-3.6816,-3.6873,-3.6615,-3.6019,-3.5861,0.0,0.0,0.0,0.0,0.0,0.0,0.0,0.0,0.0,0.0,0.0,-3.0226,-2.9918,-3.0108,-3.0784,-3.119,-3.119,-3.1582,-3.1808,-3.1861,-3.2648,-3.3166,-3.3262,-3.3569,-3.3762,-3.3807,-3.3825,-3.3807,-3.3807,-3.3825,-3.4082,-3.4688,-3.4752,-3.5055,-3.5587,-3.542,-3.5384,-3.5734,-3.5413,-3.5101,-3.489,-3.5275,-3.5752,-3.5826,-3.5752,-3.5661,-3.5826,-3.5826,-3.5771,-3.5734,-3.5752,-3.5789,-3.5752,-3.5844,-3.5771,-3.5771,-3.5826,-3.5716,-3.5826,-3.5789,-3.5422,-3.41,-3.3825,-3.3807,-3.3084,0.0,-3.492,-3.5489,0.0,-3.5489,-3.531,-3.4966,-3.4637,-3.4502,-3.4487,-3.4487,-3.4487,-3.4487,-3.4894,-3.5079,-3.5141,-3.6222,-3.6925,-3.7324,-3.8063,-3.864,-3.8988,-3.8971,-3.8802,-3.8447,-3.8447,-3.8261,-3.7922,-3.7922,-3.7922,-3.7905,-3.7516,-3.7723,-3.8467,-3.8525,-3.843,-3.83,-3.8564,-3.8707,-3.8707,-3.8707,-3.8515,-3.8183,0.0,0.0,0.0,0.0,0.0,0.0,0.0,0.0,0.0,0.0,0.0,-3.4506,-3.3778,-3.322,-3.2848,-3.2138,-3.1901,-3.2239,-3.1613,-3.1038,-3.0683,-3.0987,-3.119,-3.123,-3.177,-3.2127,-3.2161,-3.2965,-3.3494,-3.3522,-3.368,-3.3935,-3.4302,-3.4412,-3.4578,-3.4963,-3.5037,-3.5202,-3.5605,-3.5661,-3.5807,-3.6211,-3.6072,-3.6017,-3.6248,-3.6323,-3.614,-3.5716,-3.5973,-3.6285,-3.6285,-3.6285,-3.6303,-3.6285,-3.6285,-3.6285,-3.6285,-3.6285,-3.6285,-3.6285,-3.6285,-3.6285,-3.6285,-3.6285,-3.6285,-3.6285,-3.6285,-3.6083,-3.5183,-3.5037,-3.5037,-3.3526,-3.3565,-3.506,-3.5684,-3.5669,-3.5564,-3.5489,-3.5489,0.0,0.0,0.0,-3.5489,-3.5489,-3.5504,-3.5604,-3.5797,-3.5973,-3.6676,-3.7424,-3.8206,-3.8816,-3.9489,-4.007,-4.0087,-3.9783,-3.9191,-3.9191,-3.887,-3.8311,-3.8294,-3.8294,-3.8278,-3.8176,-3.8517,-3.9294,-3.9554,-3.9352,-3.8784,-3.8731,-3.8658,-3.8546,-3.8658,-3.864,-3.851,-3.8368,-3.807,-3.7523,-3.715,-3.6678,-3.6156,-3.5949,-3.5728,-3.5622,-3.5639,-3.5351,-3.4759,-3.4692,-3.4421,-3.3846,-3.3677,-3.3541,-3.3423,-3.2795,-3.2111,-3.1397,-3.123,-3.1269,-3.1428,-3.2092,-3.2535,-3.2616,-3.3477,-3.4009,-3.4009,-3.4156,-3.4541,-3.5147,-3.521,-3.5514,-3.6156,-3.6211,-3.6358,-3.6486,-3.6505,-3.6578,-3.6707,-3.6835,-3.6725,-3.6743,-3.7004,-3.704,-3.6835,-3.6909,-3.6798,-3.6743,-3.6817,-3.6725,-3.6853,-3.6817,-3.6725,-3.6725,-3.6725,-3.6725,-3.6853,-3.6725,-3.678,-3.6762,-3.6835,-3.6725,-3.6707,-3.6707,-3.6725,-3.6725,-3.6725,-3.6597,-3.5194,-3.6719,-3.6485,-3.6342,-3.6297,-3.5744,-3.5489,-3.5489,-3.5489,-3.5489,-3.5489,-3.5489,-3.5489,-3.5569,-3.618,-3.6798,-3.7515,-3.8246,-3.9032,0.0,-3.9885,-3.9969,-4.007,-4.0087,-4.002,-3.9935,-3.9918,-3.9868,-3.9783,-3.9766,-3.9766,-3.9681,-3.914,-3.8845,-3.8729,-3.8771,-3.881,-3.8957,-3.8793,-3.8465,-3.8013,-3.8465,-3.8609,-3.8491,-3.8415,-3.8285,-3.8,-3.7376,-3.6917,-3.6603,-3.6071,-3.5711,-3.5622,-3.5639,-3.5571,-3.547,-3.5453,-3.5419,-3.5284,-3.4709,-3.4066,-3.344,-3.3066,-3.2562,-3.1765,-3.1389,-3.1504,-3.2231,-3.2468,-3.2681,-3.3081,-3.416,-3.4853,-3.4908,-3.5495,-3.5991,-3.6101,-3.6119,-3.6193,-3.6376,-3.6285,-3.6633,-3.7202,-3.7342,-3.7569,-3.8138,-3.8102,-3.8285,-3.8138,-3.7808,-3.7783,-3.8193,-3.8358,-3.8358,-3.8175,-3.834,-3.823,-3.8358,-3.8267,-3.8175,-3.8157,-3.8157,-3.8175,-3.8303,-3.8193,-3.823,-3.8248,-3.8358,-3.823,-3.8175,-3.8157,-3.8212,-3.8175,-3.8212,-3.7863,-3.4706,-3.5755,-3.6079,-3.6478,-3.6941,-3.6312,-3.5833,-3.5519,-3.5489,-3.5489,-3.5489,-3.5489,-3.5489,-3.5504,-3.5831,-3.618,-3.66,-3.7306,-3.806,-3.8832,-3.9279,-3.9662,-4.007,-4.0087,-4.0087,-4.0087,-4.0087,-4.0087,-4.0087,-4.0087,-4.0087,-4.0087,-4.0027,-3.9967,-3.9818,-3.973,-3.9752,-3.9899,-3.9245,-3.8704,-3.835,-3.8578,-3.8528,-3.8198,-3.8415,-3.8117,-3.721,-3.717,-3.6803,-3.6122,-3.581,-3.5667,-3.5622,-3.5639,-3.5639,-3.5639,-3.5639,-3.5639,-3.5639,-3.5301,-3.4907,-3.4494,-3.4323,-3.4152,-3.3878,-3.2652,-3.2092,-3.2502,-3.3087,-3.3615,-3.3851,-3.4973,-3.5697,-3.5716,-3.6083,-3.6468,-3.6853,-3.6945,-3.711,-3.7514,-3.7606,-3.7753,-3.8102,-3.8138,-3.823,-3.8652,-3.8707,-3.8707,-3.8707,-3.8395,-3.8248,-3.8615,-3.8707,-3.8689,-3.8707,-3.8707,-3.8707,-3.8707,-3.8707,-3.8707,-3.8707,-3.8707,-3.8707,-3.8707,-3.8707,-3.8707,-3.8707,-3.8707,-3.8707,-3.8707,-3.8707,-3.8707,-3.8707,-3.8707,-3.8432,-3.4258,-3.4879,-3.5736,-3.6602,-3.736,-3.6896,-3.6312,-3.5759,-3.5729,-3.5639,-3.5504,-3.5489,-3.5489,-3.5489,-3.5489,-3.5619,-3.5846,-3.6337,-3.7144,-3.8035,-3.8635,-3.9315,-4.002,-4.0087,-4.0087,-4.0087,-4.0087,-4.0087,-4.0087,-4.0087,-4.0087,-4.0121,-4.0528,-4.0685,-4.0733,-4.0575,-4.0498,-4.0447,-3.9753,-3.9174,-3.8807,-3.8884,-3.8679,-3.815,-3.8465,-3.8083,-3.6865,-3.7135,-3.6847,-3.5854,-3.5783,-3.5739,-3.5622,-3.5639,-3.5639,-3.5639,-3.5639,-3.565,-3.5783,-3.5881,-3.5882,-3.5745,-3.5636,-3.5701,-3.5702,-3.4347,-3.3362,-3.3448,-3.4209,-3.4677,-3.4939,-3.5871,-3.656,-3.656,-3.6743,-3.7129,-3.7643,-3.7753,-3.7973,-3.8597,-3.8707,-3.867,-3.8707,-3.8707,-3.8689,-3.867,-3.8707,-3.8707,-3.8707,-3.8707,-3.8707,-3.8707,-3.8707,-3.8707,-3.8707,-3.8707,-3.8707,-3.8707,-3.8707,-3.8707,-3.8707,-3.8707,-3.8707,-3.8707,-3.8707,-3.8707,-3.8707,-3.8707,-3.8707,-3.8707,-3.8707,-3.8707,-3.8707,-3.8707,-3.8707,-3.5157,-3.6027,-3.6443,-3.6952,-3.7366,-3.736,-3.6971,-3.6432,-3.6402,-3.6058,-3.5564,-3.5504,-3.5519,-3.5489,-3.5489,-3.5831,-3.6399,-3.6554,-3.7365,-3.8635,-3.8854,-3.9332,-4.0003,-4.0087,-4.0087,-4.0087,-4.0087,-4.0087,-4.0087,-4.0087,-4.0087,-4.0087,-4.0171,-4.0204,-4.0187,-4.0169,-4.0021,-3.9811,-4.0225,-3.9982,-3.9155,-3.9542,-3.9441,-3.8664,-3.8658,-3.8433,-3.7685,-3.7825,-3.7342,-3.6457,-3.6308,-3.6097,-3.5711,-3.5622,-3.5639,-3.5622,-3.5622,-3.581,-3.6308,-3.6764,-3.6985,-3.7011,-3.672,-3.6574,-3.6612,-3.6217,-3.5944,-3.5889,-3.5678,-3.5696,-3.6124,-3.6909,-3.7367,-3.7404,-3.7955,-3.8524,-3.8524,-3.8597,-3.8634,-3.867,-3.8707,-3.8707,-3.8707,-3.8707,-3.8707,-3.8707,-3.8707,-3.8707,-3.8707,-3.8707,-3.8707,-3.8707,-3.8707,-3.8707,-3.8707,-3.8707,-3.8707,-3.8707,-3.8707,-3.8707,-3.8707,-3.8707,-3.8707,-3.8707,-3.8707,-3.8707,-3.8707,-3.8707,-3.8707,-3.8707,-3.8707,-3.8707,-3.8707,-3.8707,-3.8707,-3.4345,-3.5426,-3.6092,-3.7037,-3.7948,-3.7988,-3.7629,-3.7045,-3.703,-3.6671,-3.6118,-3.6088,-3.5878,-3.5504,-3.5489,-3.5668,-3.5943,-3.6384,-3.6888,-3.7584,-3.8453,-3.9086,-3.9385,-3.9901,-4.0087,-4.0087,-4.0087,-4.0087,-4.0087,-4.0087,-4.0087,-4.0087,-4.0087,-4.0087,-4.0087,-4.0087,-4.0214,-4.0406,-4.0617,-4.0531,-4.0018,-3.9607,-3.9286,-3.8907,-3.8217,-3.756,-3.7079,-3.702,-3.6666,-3.6028,-3.5941,-3.5985,-3.6071,-3.5783,-3.5739,-3.6028,-3.6054,-3.6291,-3.6825,-3.7076,-3.7323,-3.7578,-3.7505,-3.7535,-3.7826,-3.7778,-3.7723,-3.7631,-3.7138,-3.6796,-3.7055,-3.7734,-3.8212,-3.8248,-3.8505,-3.8707,-3.8707,-3.8707,-3.8707,-3.8707,-3.8707,-3.8707,-3.8707,-3.8707,-3.8707,-3.8707,-3.8707,-3.8707,-3.8707,-3.8707,-3.8707,-3.8707,-3.8707,-3.8707,-3.8707,-3.8707,-3.8707,-3.8707,-3.8707,-3.8707,-3.8707,-3.8707,-3.8707,-3.8707,-3.8707,-3.8707,-3.8707,-3.8707,-3.8707,-3.8707,-3.8707,-3.8707,-3.8707,-3.8707,-3.8707,-3.3556,-3.4345,-3.5346,-3.6753,-3.8218,-3.8204,-3.8061,-3.7719,-3.7674,-3.733,-3.6746,-3.6567,-3.6222,-3.5789,-3.5594,-3.5489,-3.5554,-3.607,-3.6399,-3.6722,-3.8003,-3.869,-3.8962,-3.9731,-4.0087,-4.0087,-4.0087,-4.0087,-4.0087,-4.0087,-4.0087,-4.0087,-4.0087,-4.0087,-4.0087,-4.0087,-4.0286,-4.0655,-4.0827,-4.0809,-4.0559,-3.9793,-3.9153,-3.8815,-3.7982,-3.7189,-3.6433,-3.6539,-3.6374,-3.5871,-3.581,-3.5985,-3.6333,-3.5898,-3.581,-3.6333,-3.6684,-3.6981,-3.736,-3.7524,-3.7756,-3.8083,-3.8122,-3.8292,-3.8614,-3.8707,-3.8707,-3.8615,-3.8157,-3.7808,-3.7881,-3.8358,-3.8689,-3.8707,-3.8707,-3.8707,-3.8707,-3.8707,-3.8707,-3.8707,-3.8707,-3.8707,-3.8707,-3.8707,-3.8707,-3.8707,-3.8707,-3.8707,-3.8707,-3.8707,-3.8707,-3.8707,-3.8707,-3.8707,-3.8707,-3.8707,-3.8707,-3.8707,-3.8707,-3.8707,-3.8707,-3.8707,-3.8707,-3.8707,-3.8707,-3.8707,-3.8707,-3.8707,-3.8707,-3.8707,-3.8707,-3.8707,-3.8707,-3.8707,-3.8707,-3.3167,-3.3398,-3.4358,-3.5974,-3.7861,-3.7846,-3.8033,-3.8362,-3.8347,-3.7988,-3.733,-3.6806,-3.6492,-3.6372,-3.5818,-3.5519,-3.5504,-3.5554,-3.5958,-3.6554,-3.744,-3.8189,-3.8924,-3.9731,-4.007,-4.002,-3.9969,-4.002,-4.007,-4.0087,-4.0087,-4.0087,-4.0087,-4.0087,-4.0087,-4.0087,-4.0121,-4.0254,-4.0625,-4.0868,-4.0793,-4.0145,-3.9311,-3.8488,-3.8245,-3.7562,-3.662,-3.69,-3.6865,-3.6374,-3.6291,-3.6333,-3.635,-3.5924,-3.5898,-3.6457,-3.7305,-3.7825,-3.7893,-3.8285,-3.8596,-3.8627,-3.8596,-3.8645,-3.8676,-3.8707,-3.8707,-3.8707,-3.8615,-3.856,-3.856,-3.8615,-3.8707,-3.8707,-3.8707,-3.8707,-3.8707,-3.8707,-3.8707,-3.8707,-3.8707,-3.8707,-3.8707,-3.8707,-3.8707,-3.8707,-3.8707,-3.8707,-3.8707,-3.8707,-3.8707,-3.8707,-3.8707,-3.8707,-3.8707,-3.8707,-3.8707,-3.8707,-3.8707,-3.8707,-3.8707,-3.8707,-3.8707,-3.8707,-3.8707,-3.8707,-3.8707,-3.8707,-3.8707,-3.8707,-3.8707,-3.8707,-3.8707,-3.8707,-3.8719,-3.3484,-3.4121,-3.4511,-3.5935,-3.7753,-3.7843,-3.8237,-3.8979,-3.905,-3.8676,-3.8078,-3.7793,-3.7255,-3.6477,-3.6237,-3.5908,-3.5519,-3.5489,-3.5683,-3.6022,-3.6692,-3.7188,-3.7483,-3.8246,-3.8887,-3.9262,-3.9332,-3.961,-4.007,-4.0087,-4.0087,-4.0087,-4.0087,-4.0087,-4.0087,-4.0087,-4.0087,-4.0121,-4.0336,-4.0368,-4.04,-4.0095,-3.9624,-3.8751,-3.7833,-3.7284,-3.7084,-3.6508,-3.6097,-3.5915,-3.5898,-3.6071,-3.6374,-3.6522,-3.6865,-3.7305,-3.772,-3.8065,-3.8382,-3.8578,-3.8707,-3.8707,-3.8707,-3.8707,-3.8707,-3.8707,-3.8707,-3.8707,-3.8707,-3.8707,-3.8707,-3.8707,-3.8707,-3.8707,-3.8707,-3.8707,-3.8707,-3.8707,-3.8707,-3.8707,-3.8707,-3.8707,-3.8707,-3.8707,-3.8707,-3.8707,-3.8707,-3.8707,-3.8707,-3.8707,-3.8707,-3.8707,-3.8707,-3.8707,-3.8707,-3.8707,-3.8707,-3.8707,-3.8707,-3.8707,-3.8707,-3.8707,-3.8707,-3.8707,-3.8707,-3.8707,-3.8707,-3.8707,-3.8707,-3.8707,-3.8707,-3.8707,-3.8707,-3.8707,-3.8773,-3.3556,-3.4108,-3.4191,-3.5142,-3.6724,-3.719,-3.789,-3.887,-3.925,-3.9155,-3.8751,-3.8482,-3.7898,-3.7105,-3.6686,-3.6267,-3.5818,-3.5609,-3.5489,-3.5554,-3.6275,-3.66,-3.6737,-3.7397,-3.8035,-3.8525,-3.8799,-3.9315,-4.002,-4.0087,-4.0087,-4.0087,-4.0087,-4.0087,-4.0087,-4.0087,-4.0087,-4.0087,-4.0087,-4.0121,-4.0087,-4.0087,-3.9851,-3.9259,-3.8125,-3.7381,-3.7308,-3.6174,-3.5694,-3.5827,-3.5694,-3.5854,-3.6374,-3.6921,-3.7396,-3.7843,-3.8065,-3.8318,-3.8627,-3.8707,-3.8707,-3.8707,-3.8707,-3.8707,-3.8707,-3.8707,-3.8707,-3.8707,-3.8707,-3.8762,-3.9038,-3.9093,-3.8982,-3.8781,-3.8707,-3.8817,-3.905,-3.9093,-3.9111,-3.9148,-3.9148,-3.9019,-3.8762,-3.8707,-3.8707,-3.8707,-3.8707,-3.8707,-3.8707,-3.8707,-3.8707,-3.8707,-3.8707,-3.8707,-3.8707,-3.8707,-3.8707,-3.8707,-3.8707,-3.8707,-3.8707,-3.8707,-3.8707,-3.8707,-3.8707,-3.8707,-3.8707,-3.8707,-3.8707,-3.8707,-3.8707,-3.8707,-3.8707,-3.8707,-3.8815,-3.3081,-3.3167,-3.3167,-3.3869,-3.5061,-3.5828,-3.6774,-3.7829,-3.8767,-3.9045,-3.8969,-3.8635,-3.8251,-3.8078,-3.715,-3.6552,-3.6312,-3.5848,-3.5564,-3.5569,-3.6165,-3.6492,-3.6569,-3.716,-3.7648,-3.7806,-3.8525,-3.9262,-3.9952,-3.9952,-4.002,-4.007,-4.0087,-4.0087,-4.0087,-4.0087,-4.0087,-4.0087,-4.0087,-4.0087,-4.0087,-4.0087,-4.0054,-3.9935,-3.9225,-3.8258,-3.6971,-3.6113,-3.5895,-3.6182,-3.5871,-3.5854,-3.6374,-3.6882,-3.736,-3.7843,-3.835,-3.8627,-3.8658,-3.8658,-3.8707,-3.8707,-3.8707,-3.8707,-3.8707,-3.8707,-3.8707,-3.8707,-3.8817,-3.9056,-3.968,-3.9882,-3.9662,-3.8909,-3.9001,-3.9289,-3.9724,-3.9908,-3.9882,-3.9882,-3.99,-3.957,-3.9019,-3.9001,-3.9074,-3.9056,-3.8964,-3.8982,-3.9056,-3.9038,-3.8799,-3.8781,-3.8762,-3.8707,-3.8707,-3.8707,-3.8707,-3.8707,-3.8707,-3.8707,-3.8707,-3.8707,-3.8707,-3.8707,-3.8707,-3.8707,-3.8707,-3.8707,-3.8707,-3.8707,-3.8707,-3.8707,-3.8707,-3.8719,-3.8913,-3.342,-3.3093,-3.3081,-3.3725,-3.4664,-3.5047,-3.5762,-3.6696,-3.7084,-3.7587,-3.8175,-3.809,-3.8135,-3.8322,-3.7928,-3.7315,-3.6507,-3.6252,-3.5953,-3.5629,-3.5718,-3.5894,-3.5894,-3.6133,-3.6477,-3.704,-3.779,-3.8541,-3.9156,-3.9262,-3.9542,-4.002,-4.007,-4.0087,-4.0087,-4.0087,-4.0087,-4.0087,-4.0087,-4.0087,-4.0087,-4.0087,-4.0087,-4.0003,-3.9377,-3.8734,-3.8278,-3.7094,-3.6271,-3.5922,-3.5711,-3.5871,-3.6291,-3.6563,-3.6865,-3.7396,-3.7877,-3.8132,-3.8198,-3.8496,-3.8707,-3.8707,-3.8707,-3.8707,-3.8707,-3.8707,-3.8707,-3.8781,-3.9184,-3.968,-3.9918,-4.0432,-4.0579,-4.0377,-4.0359,-4.0359,-4.0648,-4.0744,-4.0726,-4.0726,-4.0726,-4.0598,-4.0432,-4.0322,-4.023,-4.0194,-3.9978,-3.9855,-4.0143,-3.9882,-3.973,-3.957,-3.9203,-3.8927,-3.9074,-3.9184,-3.9166,-3.9038,-3.8909,-3.8726,-3.8707,-3.8707,-3.8707,-3.8707,-3.8707,-3.8707,-3.8707,-3.8707,-3.8707,-3.8707,-3.8707,-3.8707,-3.8707,-3.8792,-3.8913,-3.3696,-3.337,-3.3156,-3.3484,-3.4108,-3.4511,-3.5061,-3.5668,-3.6039,-3.6774,-3.7587,-3.7343,-3.7837,-3.8451,-3.8127,-3.743,-3.6866,-3.6611,-3.6148,-3.5579,-3.5489,-3.5489,-3.5489,-3.5489,-3.5894,-3.6554,-3.7084,-3.7732,-3.8469,-3.8799,-3.9139,-3.961,-3.9952,-4.0087,-4.0087,-4.0087,-4.0087,-4.0087,-4.0087,-4.0087,-4.0087,-4.0087,-4.0087,-4.0003,-3.9631,-3.9292,-3.8971,-3.8075,-3.711,-3.6214,-3.5808,-3.5854,-3.635,-3.6433,-3.6706,-3.736,-3.772,-3.798,-3.8183,-3.8546,-3.8707,-3.8707,-3.8707,-3.8707,-3.8707,-3.8707,-3.8781,-3.9184,-3.9588,-4.0139,-4.0744,-4.1203,-4.1662,-4.1974,-4.1387,-4.1295,-4.146,-4.1827,-4.1809,-4.168,-4.157,-4.1423,-4.1203,-4.1097,-4.1097,-4.1024,-4.0808,-4.0661,-4.0932,-4.0763,-4.0543,-4.0341,-4.0139,-3.99,-3.9698,-3.968,-3.968,-3.9441,-3.9203,-3.8909,-3.8707,-3.8707,-3.8707,-3.8707,-3.8707,-3.8707,-3.8707,-3.8707,-3.8707,-3.8707,-3.8854,-3.8707,-3.8707,-3.8707,-3.8862,-3.3972,-3.3834,-3.3345,-3.3217,-3.3326,-3.4108,-3.4498,-3.4733,-3.5507,-3.6383,-3.7112,-3.6696,-3.7391,-3.8532,-3.7843,-3.7443,-3.7282,-3.6866,-3.6282,-3.5774,-3.5549,-3.5489,-3.5489,-3.5489,-3.5831,-3.6384,-3.6492,-3.6964,-3.7748,-3.823,-3.8854,-3.9032,-3.961,-4.007,-4.007,-4.0087,-4.0087,-4.0087,-4.0087,-4.0087,-4.0087,-4.0087,-4.0087,-4.0087,-4.002,-3.9732,-3.9225,-3.8768,-3.8075,-3.6874,-3.6011,-3.5827,-3.6224,-3.635,-3.6706,-3.7488,-3.7755,-3.798,-3.8382,-3.8596,-3.8658,-3.8596,-3.8658,-3.8707,-3.8707,-3.8854,-3.9148,-3.9698,-4.0065,-4.0726,-4.1827,-4.2304,-4.2653,-4.3112,-4.2249,-4.1846,-4.2304,-4.2965,-4.2892,-4.2488,-4.2323,-4.2139,-4.1552,-4.1479,-4.146,-4.1442,-4.1409,-4.1482,-4.1409,-4.1479,-4.124,-4.1075,-4.091,-4.0634,-4.0359,-4.0359,-4.0341,-4.0194,-3.9882,-3.9515,-3.8982,-3.8854,-3.8707,-3.8707,-3.8927,-3.8872,-3.8927,-3.9111,-3.9239,-3.9405,-3.9294,-3.8927,-3.8982,-3.9239,-3.9441,-3.4638,-3.3897,-3.3746,-3.3445,-3.3192,-3.3398,-3.3556,-3.3556,-3.3784,-3.465,-3.5453,-3.6067,-3.6852,-3.8115,-3.859,-3.8537,-3.7978,-3.7419,-3.6836,-3.6222,-3.5699,-3.5519,-3.5489,-3.5489,-3.5619,-3.5846,-3.5894,-3.6165,-3.6859,-3.7188,-3.7815,-3.8908,-3.9069,-3.9542,-4.002,-4.007,-4.0087,-4.0087,-4.0087,-4.0087,-4.0087,-4.0087,-4.0087,-4.0087,-4.0087,-3.9986,-3.9681,-3.8751,-3.7787,-3.684,-3.6045,-3.5667,-3.581,-3.5854,-3.6054,-3.6399,-3.7002,-3.7248,-3.7285,-3.8101,-3.8483,-3.8201,-3.8515,-3.8707,-3.8726,-3.9258,-3.9625,-4.0102,-4.0873,-4.1791,-4.2323,-4.2818,-4.324,-4.3369,-4.2965,-4.2818,-4.3094,-4.3332,-4.3369,-4.3204,-4.313,-4.2947,-4.2818,-4.2727,-4.2727,-4.2727,-4.2708,-4.2708,-4.247,-4.2213,-4.1992,-4.1754,-4.1552,-4.1258,-4.1005,-4.1005,-4.102,-4.0928,-4.0689,-4.0396,-3.9753,-3.9203,-3.8927,-3.8707,-3.946,-3.9625,-3.9863,-4.0102,-4.0175,-4.0139,-4.0212,-4.0102,-4.0341,-4.0579,-4.0652,-3.5165,-3.455,-3.4098,-3.3721,-3.3395,-3.3169,-3.3081,-3.3081,-3.3167,-3.3725,-3.4581,-3.4719,-3.5748,-3.7098,-3.7724,-3.7915,-3.7664,-3.7466,-3.706,-3.6447,-3.5804,-3.5519,-3.5489,-3.5489,-3.5489,-3.5489,-3.5489,-3.5718,-3.618,-3.6446,-3.7128,-3.7873,-3.8619,-3.9139,-3.9542,-3.9952,-4.0087,-4.0087,-4.0087,-4.0087,-4.0087,-4.0087,-4.0087,-4.0087,-4.0087,-4.0087,-3.9918,-3.8954,-3.7905,-3.6907,-3.6079,-3.5639,-3.5639,-3.5639,-3.5711,-3.5898,-3.6522,-3.6803,-3.6943,-3.7773,-3.8183,-3.8065,-3.8382,-3.8658,-3.8836,-3.9423,-3.9937,-4.0524,-4.1625,-4.2341,-4.2818,-4.324,-4.3442,-4.3479,-4.3479,-4.3479,-4.3479,-4.3461,-4.3479,-4.3479,-4.3479,-4.3479,-4.3479,-4.3479,-4.3479,-4.3442,-4.3332,-4.3351,-4.3314,-4.3002,-4.2727,-4.2488,-4.2415,-4.2249,-4.2158,-4.2158,-4.2084,-4.1956,-4.1607,-4.1295,-4.0616,-3.9918,-3.979,-3.9753,-4.0157,-4.0487,-4.0744,-4.0873,-4.0763,-4.0818,-4.106,-4.1185,-4.124,-4.146,-4.1575,-3.5592,-3.5454,-3.4412,-3.3947,-3.3796,-3.3319,-3.3081,-3.3081,-3.3081,-3.3556,-3.4191,-3.3641,-3.465,-3.6053,-3.6448,-3.6543,-3.701,-3.7075,-3.6767,-3.6276,-3.5774,-3.5489,-3.5489,-3.5489,-3.5489,-3.5489,-3.5489,-3.5489,-3.5718,-3.6165,-3.6492,-3.7008,-3.8044,-3.869,-3.9032,-3.9489,-3.9901,-4.007,-3.9901,-3.9969,-4.007,-4.0087,-4.0087,-4.0087,-4.0087,-4.0087,-3.9901,-3.9292,-3.8396,-3.711,-3.6214,-3.5808,-3.5707,-3.5639,-3.5783,-3.6139,-3.6333,-3.6603,-3.6943,-3.7379,-3.7843,-3.7843,-3.8267,-3.875,-3.8988,-3.968,-4.0451,-4.1185,-4.1974,-4.2745,-4.324,-4.3479,-4.3479,-4.3479,-4.3479,-4.3479,-4.3479,-4.3479,-4.3479,-4.3479,-4.3479,-4.3479,-4.3479,-4.3479,-4.3479,-4.3479,-4.3479,-4.3479,-4.3479,-4.3296,-4.3204,-4.3204,-4.324,-4.3351,-4.3314,-4.3314,-4.3204,-4.3075,-4.2616,-4.2194,-4.1519,-4.1024,-4.0969,-4.1038,-4.1056,-4.1258,-4.1622,-4.1603,-4.1515,-4.1644,-4.2011,-4.1754,-4.1534,-4.1919,-4.2143,-3.5943,-3.5491,-3.4826,-3.4299,-3.3847,-3.3319,-3.3081,-3.3081,-3.3081,-3.324,-3.3556,-3.4037,-3.4498,-3.5061,-3.5814,-3.6676,-3.7171,-3.6664,-3.604,-3.5774,-3.5609,-3.5504,-3.5489,-3.5489,-3.5489,-3.5489,-3.5489,-3.5489,-3.5604,-3.5718,-3.6054,-3.6615,-3.7008,-3.77,-3.8674,-3.8596,-3.8995,-3.9731,-3.9558,-3.961,-4.002,-4.0087,-4.0087,-4.0087,-4.0087,-4.0087,-3.9935,-3.9377,-3.8853,-3.8278,-3.728,-3.6315,-3.5842,-3.5656,-3.5711,-3.5854,-3.6182,-3.6249,-3.6207,-3.6825,-3.736,-3.7433,-3.7879,-3.854,-3.9643,-4.0322,-4.1148,-4.1974,-4.2745,-4.324,-4.3442,-4.3479,-4.3479,-4.3479,-4.3479,-4.3479,-4.3479,-4.3479,-4.3479,-4.3479,-4.3479,-4.3479,-4.3479,-4.3479,-4.3479,-4.3479,-4.3479,-4.3479,-4.3479,-4.3479,-4.3479,-4.3479,-4.3479,-4.3479,-4.3479,-4.3479,-4.3479,-4.3479,-4.3204,-4.2983,-4.2326,-4.1867,-4.1754,-4.1699,-4.1699,-4.1974,-4.2356,-4.2705,-4.2671,-4.28,-4.2818,-4.2653,-4.2525,-4.2708,-4.2848,-3.6194,-3.5843,-3.5064,-3.4562,-3.4186,-3.3432,-3.3081,-3.3081,-3.3081,-3.3081,-3.324,-3.3713,-3.3953,-3.4037,-3.4966,-3.5842,-3.6198,-3.6137,-3.5799,-3.5547,-3.5504,-3.5504,-3.5489,-3.5489,-3.5489,-3.5489,-3.5489,-3.5489,-3.5489,-3.5489,-3.5733,-3.6117,-3.6384,-3.7008,-3.7873,-3.806,-3.8761,-3.9385,-3.9542,-3.9714,-4.002,-4.0087,-4.0087,-4.0087,-4.0087,-4.0087,-4.002,-3.9749,-3.9343,-3.8819,-3.7922,-3.6958,-3.6231,-3.5825,-3.5639,-3.565,-3.581,-3.5941,-3.5898,-3.6333,-3.696,-3.7228,-3.7649,-3.835,-3.9369,-4.0377,-4.1222,-4.1882,-4.269,-4.3479,-4.3479,-4.3479,-4.3479,-4.3479,-4.3479,-4.3479,-4.3479,-4.3479,-4.3479,-4.3479,-4.3479,-4.3479,-4.3479,-4.3479,-4.3479,-4.3479,-4.3479,-4.3479,-4.3479,-4.3479,-4.3479,-4.3479,-4.3479,-4.3479,-4.3479,-4.3479,-4.3479,-4.3479,-4.3406,-4.3314,-4.3057,-4.269,-4.2359,-4.2396,-4.247,-4.269,-4.3039,-4.3406,-4.3479,-4.3314,-4.324,-4.3406,-4.3406,-4.3167,-4.3452,-3.637,-3.627,-3.5177,-3.4726,-3.455,-3.3545,-3.3081,-3.3081,-3.3081,-3.3081,-3.3081,-3.3081,-3.324,-3.3313,-3.4024,-3.4446,-3.466,-3.5527,-3.5715,-3.5119,-3.5439,-3.5489,-3.5489,-3.5489,-3.5489,-3.5489,-3.5489,-3.5489,-3.5489,-3.5489,-3.5554,-3.5668,-3.6054,-3.6569,-3.6948,-3.76,-3.8286,-3.869,-3.8962,-3.942,-3.9731,-3.985,-3.9901,-4.0087,-4.0087,-4.0087,-4.0087,-3.9969,-3.9783,-3.9157,-3.8362,-3.7635,-3.6958,-3.6113,-3.5639,-3.5639,-3.5667,-3.5667,-3.5739,-3.6139,-3.6684,-3.719,-3.7614,-3.8259,-3.9095,-4.0249,-4.1111,-4.1809,-4.2598,-4.3479,-4.3479,-4.3479,-4.3479,-4.3479,-4.3479,-4.3479,-4.3479,-4.3479,-4.3479,-4.3479,-4.3479,-4.3479,-4.3479,-4.3479,-4.3479,-4.3479,-4.3479,-4.3479,-4.3479,-4.3479,-4.3479,-4.3479,-4.3479,-4.3479,-4.3479,-4.3479,-4.3479,-4.3479,-4.3479,-4.3479,-4.3479,-4.3222,-4.2928,-4.3149,-4.3296,-4.3369,-4.3351,-4.3442,-4.3479,-4.3479,-4.3479,-4.3479,-4.3479,-4.3479,-4.3868,-3.637,-3.627,-3.5177,-3.4726,-3.455,-3.3545,-3.3081,-3.3081,-3.3081,-3.3081,-3.3081,-3.3081,-3.3081,-3.3167,-3.324,-3.3296,-3.3688,-3.4845,-3.5265,-3.4651,-3.5067,-3.5489,-3.5489,-3.5489,-3.5489,-3.5489,-3.5489,-3.5489,-3.5489,-3.5489,-3.5489,-3.5569,-3.5668,-3.5943,-3.629,-3.6477,-3.704,-3.7774,-3.7831,-3.8173,-3.8908,-3.9209,-3.9489,-3.9901,-4.002,-4.0087,-4.0087,-4.0087,-4.002,-3.9783,-3.8616,-3.7973,-3.7432,-3.6383,-3.5774,-3.5639,-3.5639,-3.5639,-3.5667,-3.6054,-3.6603,-3.7135,-3.7578,-3.8425,-3.941,-4.0524,-4.1332,-4.2158,-4.2837,-4.3479,-4.3479,-4.3479,-4.3479,-4.3479,-4.3479,-4.3479,-4.3479,-4.3479,-4.3479,-4.3479,-4.3479,-4.3479,-4.3479,-4.3479,-4.3479,-4.3479,-4.3479,-4.3479,-4.3479,-4.3479,-4.3479,-4.3479,-4.3479,-4.3479,-4.3479,-4.3479,-4.3479,-4.3479,-4.3479,-4.3479,-4.3479,-4.3479,-4.3479,-4.3479,-4.3479,-4.3442,-4.3461,-4.3479,-4.3479,-4.3479,-4.3479,-4.3479,-4.3479,-4.3513,-4.366,-3.637,-3.6245,-3.519,-3.4726,-3.4525,-3.3545,-3.3081,-3.3081,-3.3081,-3.3081,-3.3081,-3.3081,-3.3081,-3.3081,-3.3081,-3.3002,-3.3317,-3.4266,-3.4625,-3.4272,-3.4986,-3.5489,-3.5489,-3.5489,-3.5489,-3.5489,-3.5489,-3.5489,-3.5489,-3.5489,-3.5489,-3.5489,-3.5489,-3.5668,-3.6006,-3.6165,-3.6399,-3.704,-3.7219,-3.7499,-3.8302,-3.8635,-3.9139,-3.9437,-3.9901,-4.007,-4.0087,-4.0087,-4.0087,-3.9868,-3.9056,-3.8379,-3.7686,-3.6941,-3.6028,-3.5723,-3.5639,-3.5639,-3.5622,-3.5898,-3.6224,-3.6724,-3.7248,-3.7917,-3.8997,-4.0141,-4.1537,-4.2616,-4.3094,-4.3479,-4.3479,-4.3479,-4.3479,-4.3479,-4.3479,-4.3479,-4.3479,-4.3479,-4.3479,-4.3479,-4.3479,-4.3479,-4.3479,-4.3479,-4.3479,-4.3479,-4.3479,-4.3479,-4.3479,-4.3479,-4.3479,-4.3479,-4.3479,-4.3479,-4.3479,-4.3479,-4.3479,-4.3479,-4.3479,-4.3479,-4.3479,-4.3479,-4.3479,-4.3479,-4.3479,-4.3479,-4.3479,-4.3479,-4.3479,-4.3479,-4.3479,-4.3479,-4.3479,-4.3529,-4.3693,-3.637,-3.627,-3.5177,-3.4726,-3.455,-3.3545,-3.3081,-3.3081,-3.3081,-3.3081,-3.3081,-3.3081,-3.3081,-3.3081,-3.3028,-3.2944,-3.2672,-3.3517,-3.3799,-3.3884,-3.461,-3.5198,-3.5489,-3.5489,-3.5489,-3.5489,-3.5489,-3.5489,-3.5489,-3.5489,-3.5489,-3.5489,-3.5489,-3.5489,-3.5604,-3.5943,-3.6337,-3.6569,-3.6935,-3.7354,-3.769,-3.8246,-3.869,-3.8745,-3.9437,-3.9833,-3.9782,-4.002,-4.007,-3.9884,-3.9343,-3.8667,-3.7922,-3.7195,-3.6434,-3.5774,-3.5639,-3.5639,-3.5622,-3.581,-3.6097,-3.6498,-3.6921,-3.7377,-3.8133,-3.9708,-4.1492,-4.2858,-4.3442,-4.3479,-4.3479,-4.3479,-4.3479,-4.3479,-4.3479,-4.3479,-4.3479,-4.3479,-4.3479,-4.3479,-4.3479,-4.3479,-4.3479,-4.3479,-4.3479,-4.3479,-4.3479,-4.3479,-4.3479,-4.3479,-4.3479,-4.3479,-4.3479,-4.3479,-4.3479,-4.3479,-4.3479,-4.3479,-4.3479,-4.3479,-4.3479,-4.3479,-4.3479,-4.3479,-4.3479,-4.3479,-4.3479,-4.3479,-4.3479,-4.3479,-4.3479,-4.3479,-4.3479,-4.3513,-4.3597,-3.637,-3.627,-3.5177,-3.4726,-3.4537,-3.3533,-3.3081,-3.3081,-3.3081,-3.3081,-3.3081,-3.3081,-3.3081,-3.3068,-3.3031,-3.2475,-3.2128,-3.2529,-3.2955,-3.2931,-3.3822,-3.4758,-3.5344,-3.5489,-3.5489,-3.5489,-3.5489,-3.5489,-3.5489,-3.5489,-3.5489,-3.5489,-3.5489,-3.5489,-3.5554,-3.5733,-3.5619,-3.5683,-3.5797,-3.6133,-3.6737,-3.7515,-3.7847,-3.8133,-3.858,-3.9086,-3.9262,-3.9662,-4.002,-3.9986,-3.9394,-3.8684,-3.7939,-3.7178,-3.6434,-3.5876,-3.5639,-3.5639,-3.565,-3.5898,-3.6139,-3.6333,-3.6825,-3.7135,-3.7932,-3.9193,-4.0961,-4.2286,-4.3004,-4.3461,-4.3479,-4.3479,-4.3479,-4.3479,-4.3479,-4.3479,-4.3479,-4.3479,-4.3479,-4.3479,-4.3479,-4.3479,-4.3479,-4.3479,-4.3479,-4.3479,-4.3479,-4.3479,-4.3479,-4.3479,-4.3479,-4.3479,-4.3479,-4.3479,-4.3479,-4.3479,-4.3479,-4.3479,-4.3479,-4.3479,-4.3479,-4.3479,-4.3479,-4.3479,-4.3479,-4.3479,-4.3479,-4.3479,-4.3479,-4.3479,-4.3479,-4.3479,-4.3479,-4.3513,-4.3548,-3.5906,-3.583,-3.5052,-3.4537,-3.4173,-3.3395,-3.3081,-3.3081,-3.3081,-3.3081,-3.3081,-3.3081,-3.3081,-3.3031,-3.278,-3.2152,-3.1681,-3.2071,-3.2137,-3.2268,-3.3171,-3.4177,-3.4691,-3.5198,-3.5489,-3.5489,-3.5489,-3.5489,-3.5489,-3.5489,-3.5489,-3.5489,-3.5489,-3.5489,-3.5489,-3.5489,-3.5489,-3.5489,-3.5554,-3.5683,-3.607,-3.6692,-3.7084,-3.716,-3.7889,-3.8398,-3.8854,-3.9156,-3.9714,-3.9902,-3.9698,-3.9039,-3.8176,-3.7516,-3.6958,-3.574,-3.5639,-3.5639,-3.5622,-3.5854,-3.5941,-3.6097,-3.6474,-3.7036,-3.7877,-3.9017,-4.0378,-4.1723,-4.2578,-4.3105,-4.3444,-4.3479,-4.3479,-4.3479,-4.3479,-4.3479,-4.3479,-4.3479,-4.3479,-4.3479,-4.3479,-4.3479,-4.3479,-4.3479,-4.3479,-4.3479,-4.3479,-4.3479,-4.3479,-4.3479,-4.3479,-4.3479,-4.3479,-4.3479,-4.3479,-4.3479,-4.3479,-4.3479,-4.3479,-4.3479,-4.3479,-4.3479,-4.3479,-4.3479,-4.3479,-4.3479,-4.3479,-4.3479,-4.3479,-4.3479,-4.3479,-4.3479,-4.3479,-4.3479,-4.3513,-3.5391,-3.5102,-3.4688,-3.4274,-3.3847,-3.3307,-3.3081,-3.3081,-3.3081,-3.3081,-3.3081,-3.3081,-3.3081,-3.2943,-3.2503,-3.1951,-3.1442,-3.1564,-3.1431,-3.1844,-3.2522,-3.3449,-3.4109,-3.4824,-3.5198,-3.5489,-3.5489,-3.5489,-3.5489,-3.5489,-3.5489,-3.5489,-3.5489,-3.5489,-3.5489,-3.5489,-3.5489,-3.5489,-3.5489,-3.5489,-3.5668,-3.6054,-3.6275,-3.6569,-3.7084,-3.779,-3.823,-3.858,-3.8978,-3.9594,-3.9697,-3.8992,-3.8063,-3.7787,-3.706,-3.6011,-3.5639,-3.5639,-3.5639,-3.5667,-3.5639,-3.5739,-3.5915,-3.6606,-3.7584,-3.8607,-3.9708,-4.1034,-4.1884,-4.2668,-4.3266,-4.3479,-4.3479,-4.3479,-4.3479,-4.3479,-4.3479,-4.3479,-4.3479,-4.3479,-4.3479,-4.3479,-4.3479,-4.3479,-4.3479,-4.3479,-4.3479,-4.3479,-4.3479,-4.3479,-4.3479,-4.3479,-4.3479,-4.3479,-4.3479,-4.3479,-4.3479,-4.3479,-4.3479,-4.3479,-4.3479,-4.3479,-4.3479,-4.3479,-4.3479,-4.3479,-4.3479,-4.3479,-4.3479,-4.3479,-4.3479,-4.3479,-4.3479,-4.3479,-4.3479,-3.4939,-3.401,-3.3972,-3.3922,-3.3834,-3.3307,-3.3081,-3.3081,-3.3081,-3.3081,-3.3081,-3.3081,-3.3068,-3.288,-3.2378,-3.1825,-3.1336,-3.0926,-3.0842,-3.1039,-3.1462,-3.2464,-3.3325,-3.4041,-3.4624,-3.5279,-3.5424,-3.5489,-3.5489,-3.5489,-3.5489,-3.5489,-3.5489,-3.5489,-3.5489,-3.5489,-3.5489,-3.5489,-3.5489,-3.5489,-3.5489,-3.5604,-3.5668,-3.5782,-3.6275,-3.6722,-3.6843,-3.7499,-3.8206,-3.8924,-3.9139,-3.8702,-3.7884,-3.7891,-3.7097,-3.6028,-3.5639,-3.5639,-3.5639,-3.5639,-3.5639,-3.5622,-3.5711,-3.6019,-3.671,-3.7332,-3.8549,-4.0217,-4.1191,-4.2232,-4.3011,-4.3479,-4.3479,-4.3479,-4.3479,-4.3479,-4.3479,-4.3479,-4.3479,-4.3479,-4.3479,-4.3479,-4.3479,-4.3479,-4.3479,-4.3479,-4.3479,-4.3479,-4.3479,-4.3479,-4.3479,-4.3479,-4.3479,-4.3479,-4.3479,-4.3479,-4.3479,-4.3479,-4.3479,-4.3479,-4.3479,-4.3479,-4.3479,-4.3479,-4.3479,-4.3479,-4.3479,-4.3479,-4.3479,-4.3479,-4.3479,-4.3479,-4.3479,-4.3479,-4.3479,-3.4286,-3.3872,-3.3533,-3.3395,-3.3395,-3.3169,-3.3081,-3.3081,-3.3081,-3.3081,-3.3081,-3.3068,-3.2867,-3.2478,-3.1964,-3.1411,-3.0884,-3.0357,-3.0291,-3.0496,-3.0983,-3.1609,-3.2536,-3.3463,-3.423,-3.4691,-3.5133,-3.5489,-3.5489,-3.5489,-3.5489,-3.5489,-3.5489,-3.5489,-3.5489,-3.5489,-3.5489,-3.5489,-3.5489,-3.5489,-3.5489,-3.5489,-3.5489,-3.5554,-3.5668,-3.6228,-3.6569,-3.6859,-3.7499,-3.8076,-3.858,-3.8137,-3.7553,-3.7715,-3.7097,-3.5881,-3.5707,-3.5639,-3.5639,-3.5639,-3.5639,-3.5639,-3.5622,-3.5694,-3.6019,-3.6652,-3.7965,-3.9398,-4.0563,-4.1607,-4.3173,-4.3479,-4.3479,-4.3479,-4.3479,-4.3479,-4.3479,-4.3479,-4.3479,-4.3479,-4.3479,-4.3479,-4.3479,-4.3479,-4.3479,-4.3479,-4.3479,-4.3479,-4.3479,-4.3479,-4.3479,-4.3479,-4.3479,-4.3479,-4.3479,-4.3479,-4.3479,-4.3479,-4.3479,-4.3479,-4.3479,-4.3479,-4.3479,-4.3479,-4.3479,-4.3479,-4.3479,-4.3479,-4.3479,-4.3479,-4.3479,-4.3479,-4.3479,-4.3479,-4.3479,-3.352,-3.3621,-3.3244,-3.3081,-3.3081,-3.3081,-3.3081,-3.3081,-3.3081,-3.3081,-3.3068,-3.2905,-3.2616,-3.2114,-3.1449,-3.1022,-3.0583,-3.0131,-2.988,-3.0062,-3.0419,-3.0895,-3.1683,-3.2607,-3.3656,-3.4095,-3.4905,-3.5489,-3.5489,-3.5489,-3.5489,-3.5489,-3.5489,-3.5489,-3.5489,-3.5489,-3.5489,-3.5489,-3.5489,-3.5489,-3.5489,-3.5489,-3.5489,-3.5489,-3.5554,-3.5733,-3.6054,-3.629,-3.6707,-3.7338,-3.7703,-3.7747,-3.7439,-3.7203,-3.6925,-3.6291,-3.5757,-3.5639,-3.5639,-3.5639,-3.5639,-3.5639,-3.5639,-3.5622,-3.5774,-3.6209,-3.7318,-3.9345,-4.0219,-4.1214,-4.3065,-4.3479,-4.3479,-4.3479,-4.3479,-4.3479,-4.3479,-4.3479,-4.3479,-4.3479,-4.3479,-4.3479,-4.3479,-4.3479,-4.3479,-4.3479,-4.3479,-4.3479,-4.3479,-4.3479,-4.3479,-4.3479,-4.3479,-4.3479,-4.3479,-4.3479,-4.3479,-4.3479,-4.3479,-4.3479,-4.3479,-4.3479,-4.3479,-4.3479,-4.3479,-4.3479,-4.3479,-4.3479,-4.3479,-4.3479,-4.3479,-4.3479,-4.3479,-4.3479,-4.3479,-3.2475,-3.3106,-3.3081,-3.3081,-3.3081,-3.3081,-3.3081,-3.3081,-3.3081,-3.3081,-3.3006,-3.2579,-3.2252,-3.1926,-3.1148,-3.067,-3.0432,-3.0005,-2.9779,-2.9856,-2.9998,-3.0406,-3.1254,-3.2177,-3.3227,-3.4095,-3.4905,-3.5489,-3.5489,-3.5489,-3.5489,-3.5489,-3.5489,-3.5489,-3.5489,-3.5489,-3.5489,-3.5489,-3.5489,-3.5489,-3.5489,-3.5489,-3.5489,-3.5489,-3.5489,-3.5619,-3.5733,-3.5718,-3.607,-3.6569,-3.6904,-3.7023,-3.7275,-3.6943,-3.6754,-3.6518,-3.5915,-3.5673,-3.5639,-3.5639,-3.5639,-3.5639,-3.5639,-3.5639,-3.5639,-3.5915,-3.6886,-3.9181,-3.9789,-4.1007,-4.2395,-4.3479,-4.3479,-4.3479,-4.3479,-4.3479,-4.3479,-4.3479,-4.3479,-4.3479,-4.3479,-4.3479,-4.3479,-4.3479,-4.3479,-4.3479,-4.3479,-4.3479,-4.3479,-4.3479,-4.3479,-4.3479,-4.3479,-4.3479,-4.3479,-4.3479,-4.3479,-4.3479,-4.3479,-4.3479,-4.3479,-4.3479,-4.3479,-4.3479,-4.3479,-4.3479,-4.3479,-4.3479,-4.3479,-4.3479,-4.3479,-4.3479,-4.3479,-4.3479,-4.3479,-3.0929,-3.1865,-3.1865,-3.2326,-3.3068,-3.3081,-3.3081,-3.3081,-3.3081,-3.3081,-3.2955,-3.2466,-3.1964,-3.1524,-3.0972,-3.0407,-3.0068,-2.998,-2.9779,-2.9779,-2.9779,-2.9921,-3.0633,-3.1756,-3.2735,-3.3463,-3.4476,-3.5359,-3.5489,-3.5424,-3.5424,-3.5489,-3.5489,-3.5489,-3.5489,-3.5489,-3.5489,-3.5489,-3.5489,-3.5489,-3.5489,-3.5489,-3.5489,-3.5489,-3.5489,-3.5489,-3.5489,-3.5489,-3.5668,-3.6006,-3.6212,-3.6531,-3.6685,-3.6383,-3.6521,-3.6235,-3.5659,-3.5656,-3.5639,-3.5639,-3.5639,-3.5639,-3.5639,-3.5639,-3.5639,-3.5639,-3.7094,-3.883,-3.9554,-4.1011,-4.283,-4.3371,-4.3479,-4.3479,-4.3479,-4.3479,-4.3479,-4.3479,-4.3479,-4.3479,-4.3479,-4.3479,-4.3479,-4.3479,-4.3479,-4.3479,-4.3479,-4.3479,-4.3479,-4.3479,-4.3479,-4.3479,-4.3479,-4.3479,-4.3479,-4.3479,-4.3479,-4.3479,-4.3479,-4.3479,-4.3479,-4.3479,-4.3479,-4.3479,-4.3479,-4.3479,-4.3479,-4.3479,-4.3479,-4.3479,-4.3479,-4.3479,-4.3479,-4.3479,-4.3479,-2.9772,-3.1122,-3.1223,-3.1952,-3.2982,-3.3081,-3.3081,-3.3043,-3.288,-3.278,-3.2604,-3.2001,-3.1474,-3.1035,-3.057,-3.0206,-2.9792,-2.9779,-2.9779,-2.9779,-2.9779,-2.9856,-3.0343,-3.1328,-3.2164,-3.282,-3.3685,-3.4639,-3.5424,-3.5133,-3.5213,-3.5424,-3.5489,-3.5489,-3.5489,-3.5489,-3.5489,-3.5489,-3.5489,-3.5489,-3.5489,-3.5489,-3.5489,-3.5489,-3.5489,-3.5489,-3.5489,-3.5489,-3.5489,-3.5668,-3.5867,-3.6307,-3.624,-3.615,-3.6413,-3.6273,-3.584,-3.5712,-3.5639,-3.5639,-3.5639,-3.5639,-3.5639,-3.5639,-3.5639,-3.5639,-3.7172,-3.8661,-3.9403,-4.1139,-4.2848,-4.3281,-4.3444,-4.3444,-4.3479,-4.3479,-4.3479,-4.3479,-4.3479,-4.3479,-4.3479,-4.3479,-4.3479,-4.3479,-4.3479,-4.3479,-4.3479,-4.3479,-4.3479,-4.3479,-4.3479,-4.3479,-4.3479,-4.3479,-4.3479,-4.3479,-4.3479,-4.3479,-4.3479,-4.3479,-4.3479,-4.3479,-4.3479,-4.3479,-4.3479,-4.3479,-4.3479,-4.3479,-4.3479,-4.3479,-4.3479,-4.3479,-4.3479,-4.3479,-4.3479,-2.8958,-3.0944,-3.1122,-3.1865,-3.2884,-3.3006,-3.3006,-3.298,-3.2478,-3.224,-3.2127,-3.1148,-3.0771,-3.057,-3.008,-2.9842,-2.9804,-2.9792,-2.9779,-2.9779,-2.9779,-2.9779,-3.0062,-3.0833,-3.1683,-3.2236,-3.2961,-3.3973,-3.5133,-3.4986,-3.4986,-3.5344,-3.5489,-3.5489,-3.5489,-3.5489,-3.5489,-3.5489,-3.5489,-3.5489,-3.5489,-3.5489,-3.5489,-3.5489,-3.5489,-3.5489,-3.5489,-3.5489,-3.5489,-3.5554,-3.5539,-3.6446,-3.6688,-3.6334,-3.6803,-3.69,-3.6151,-3.578,-3.5639,-3.5639,-3.5639,-3.5639,-3.5639,-3.5639,-3.5639,-3.5735,-3.699,-3.8419,-3.9464,-4.1227,-4.2795,-4.3103,-4.3428,-4.3444,-4.3479,-4.3479,-4.3479,-4.3479,-4.3479,-4.3479,-4.3479,-4.3479,-4.3479,-4.3479,-4.3479,-4.3479,-4.3479,-4.3479,-4.3479,-4.3479,-4.3479,-4.3479,-4.3479,-4.3479,-4.3479,-4.3479,-4.3479,-4.3479,-4.3479,-4.3479,-4.3479,-4.3479,-4.3479,-4.3479,-4.3479,-4.3479,-4.3479,-4.3479,-4.3479,-4.3479,-4.3479,-4.3479,-4.3479,-4.3479,-4.3513,-2.721,-2.868,-2.959,-3.0598,-3.1728,-3.2264,-3.2453,-3.2416,-3.2252,-3.2026,-3.1587,-3.0922,-3.057,-3.057,-3.0055,-2.9842,-2.9779,-2.9779,-2.9779,-2.9779,-2.9779,-2.9779,-3.0139,-3.0696,-3.1328,-3.1756,-3.2321,-3.3017,-3.4327,-3.4476,-3.4986,-3.5439,-3.5489,-3.5489,-3.5489,-3.5489,-3.5489,-3.5489,-3.5489,-3.5489,-3.5489,-3.5489,-3.5489,-3.5489,-3.5489,-3.5489,-3.5489,-3.5489,-3.5489,-3.5489,-3.5489,-3.5948,-3.5885,-3.5783,-3.6052,-3.6101,-3.5746,-3.5639,-3.5639,-3.5639,-3.5639,-3.5639,-3.5639,-3.5639,-3.5639,-3.5881,-3.673,-3.8241,-3.9282,-4.076,-4.2395,-4.3087,-4.3339,-4.3444,-4.3479,-4.3479,-4.3479,-4.3479,-4.3479,-4.3479,-4.3479,-4.3479,-4.3479,-4.3479,-4.3479,-4.3479,-4.3479,-4.3479,-4.3479,-4.3479,-4.3479,-4.3479,-4.3479,-4.3479,-4.3479,-4.3479,-4.3479,-4.3479,-4.3479,-4.3479,-4.3479,-4.3479,-4.3479,-4.3479,-4.3479,-4.3479,-4.3479,-4.3479,-4.3479,-4.3479,-4.3479,-4.3479,-4.3479,-4.3479,-4.3529,-2.6486,-2.7558,-2.8196,-2.9285,-3.0656,-3.1499,-3.1788,-3.1625,-3.1587,-3.1373,-3.1047,-3.0507,-3.0281,-3.0231,-2.993,-2.9779,-2.9779,-2.9779,-2.9779,-2.9779,-2.9779,-2.9779,-3.0062,-3.0419,-3.0846,-3.1193,-3.1549,-3.196,-3.3325,-3.4394,-3.492,-3.5504,-3.5489,-3.5489,-3.5489,-3.5489,-3.5489,-3.5489,-3.5489,-3.5489,-3.5489,-3.5489,-3.5489,-3.5489,-3.5489,-3.5489,-3.5489,-3.5489,-3.5489,-3.5489,-3.5489,-3.5702,-3.5857,-3.6088,-3.5809,-3.5864,-3.5673,-3.5639,-3.5639,-3.5639,-3.5639,-3.5639,-3.5639,-3.5639,-3.5639,-3.5751,-3.7189,-3.8611,-3.9147,-4.0005,-4.1674,-4.3069,-4.325,-4.3444,-4.3479,-4.3479,-4.3479,-4.3479,-4.3479,-4.3479,-4.3479,-4.3479,-4.3479,-4.3479,-4.3479,-4.3479,-4.3479,-4.3479,-4.3479,-4.3479,-4.3479,-4.3479,-4.3479,-4.3479,-4.3479,-4.3479,-4.3479,-4.3479,-4.3479,-4.3479,-4.3479,-4.3479,-4.3479,-4.3479,-4.3479,-4.3479,-4.3479,-4.3479,-4.3479,-4.3479,-4.3479,-4.3479,-4.3479,-4.3479,-4.3563,-2.629,-2.7223,-2.7104,-2.8254,-2.993,-3.0984,-3.1047,-3.0583,-3.0608,-3.0557,-3.0444,-3.003,-2.9854,-2.9892,-2.9792,-2.9779,-2.9779,-2.9779,-2.9779,-2.9779,-2.9779,-2.9779,-2.9779,-2.9856,-3.0355,-3.057,-3.0771,-3.1132,-3.2393,-3.3463,-3.4327,-3.5344,-3.5279,-3.5279,-3.5504,-3.5489,-3.5489,-3.5489,-3.5489,-3.5489,-3.5489,-3.5489,-3.5489,-3.5489,-3.5489,-3.5489,-3.5489,-3.5489,-3.5489,-3.5489,-3.5593,-3.5859,-3.6165,-3.6422,-3.6055,-3.5881,-3.5656,-3.5639,-3.5639,-3.5639,-3.5639,-3.5639,-3.5639,-3.5639,-3.5639,-3.5639,-3.6886,-3.8313,-3.8998,-4.0206,-4.1791,-4.2775,-4.3178,-4.3375,-4.3479,-4.3479,-4.3479,-4.3479,-4.3479,-4.3479,-4.3479,-4.3479,-4.3479,-4.3479,-4.3479,-4.3479,-4.3479,-4.3479,-4.3479,-4.3479,-4.3479,-4.3479,-4.3479,-4.3479,-4.3479,-4.3479,-4.3479,-4.3479,-4.3479,-4.3479,-4.3479,-4.3479,-4.3479,-4.3479,-4.3479,-4.3479,-4.3479,-4.3479,-4.3479,-4.3479,-4.3479,-4.3479,-4.3513,-4.3529,-4.366,-2.5208,-2.5358,-2.7012,-2.8699,-3.0325,-3.0716,-3.0495,-2.9993,-2.9993,-3.0005,-2.9967,-2.9854,-2.9779,-2.9779,-2.9779,-2.9779,-2.9779,-2.9779,-2.9779,-2.9779,-2.9779,-2.9779,-2.9779,-2.9779,-3.0011,-3.0011,-3.0075,-3.0432,-3.1623,-3.2607,-3.338,-3.4245,-3.4461,-3.4758,-3.5359,-3.5359,-3.5489,-3.5489,-3.5489,-3.5489,-3.5489,-3.5489,-3.5489,-3.5489,-3.5489,-3.5489,-3.5489,-3.5489,-3.5489,-3.5489,-3.5489,-3.563,-3.5864,-3.5893,-3.5836,-3.5656,-3.5639,-3.5639,-3.5639,-3.5639,-3.5639,-3.5639,-3.5639,-3.5639,-3.5639,-3.5639,-3.6293,-3.7727,-3.9138,-4.0506,-4.1707,-4.2497,-4.3087,-4.3286,-4.3479,-4.3479,-4.3479,-4.3479,-4.3479,-4.3479,-4.3479,-4.3479,-4.3479,-4.3479,-4.3479,-4.3479,-4.3479,-4.3479,-4.3479,-4.3479,-4.3479,-4.3479,-4.3479,-4.3479,-4.3479,-4.3479,-4.3479,-4.3479,-4.3479,-4.3479,-4.3479,-4.3479,-4.3479,-4.3479,-4.3479,-4.3479,-4.3479,-4.3479,-4.3479,-4.3479,-4.3513,-4.3513,-4.3612,-4.3693,-4.3818,-2.4639,-2.4569,-2.6129,-2.7589,-2.87,-2.9309,-2.9559,-2.9739,-2.9779,-2.9779,-2.9779,-2.9779,-2.9779,-2.9779,-2.9779,-2.9779,-2.9779,-2.9779,-2.9779,-2.9779,-2.9779,-2.9779,-2.9779,-2.9779,-2.9779,-2.9792,-2.9869,-3.0292,-3.1119,-3.1683,-3.2379,-3.331,-3.3656,-3.4245,-3.492,-3.5198,-3.5424,-3.5489,-3.5489,-3.5489,-3.5489,-3.5489,-3.5489,-3.5489,-3.5489,-3.5489,-3.5489,-3.5489,-3.5489,-3.5495,-3.5506,-3.553,-3.5636,-3.5694,-3.5638,-3.5639,-3.5639,-3.5639,-3.5639,-3.5639,-3.5639,-3.5639,-3.5639,-3.5639,-3.5639,-3.5707,-3.6553,-3.7929,-3.8986,-4.0286,-4.1905,-4.2903,-4.3214,-4.3444,-4.3479,-4.3479,-4.3479,-4.3479,-4.3479,-4.3479,-4.3479,-4.3479,-4.3479,-4.3479,-4.3479,-4.3479,-4.3479,-4.3479,-4.3479,-4.3479,-4.3479,-4.3479,-4.3479,-4.3479,-4.3479,-4.3479,-4.3479,-4.3479,-4.3479,-4.3479,-4.3479,-4.3479,-4.3479,-4.3479,-4.3479,-4.3479,-4.3479,-4.3479,-4.3479,-4.3479,-4.3513,-4.3529,-4.3693,-4.3881,-4.4117,-2.4379,-2.4554,-2.5321,-2.6042,-2.6846,-2.7947,-2.8949,-2.9702,-2.9779,-2.9779,-2.9779,-2.9779,-2.9779,-2.9779,-2.9779,-2.9779,-2.9779,-2.9779,-2.9779,-2.9779,-2.9779,-2.9779,-2.9779,-2.9779,-2.9779,-2.9779,-2.9779,-3.0203,-3.0833,-3.1119,-3.1476,-3.2379,-3.3087,-3.3739,-3.4177,-3.4773,-3.5213,-3.5424,-3.5489,-3.5489,-3.5489,-3.5489,-3.5489,-3.5489,-3.5489,-3.5489,-3.5489,-3.5489,-3.5489,-3.5503,-3.5577,-3.5606,-3.5605,-3.5629,-3.5618,-3.5639,-3.5639,-3.5639,-3.5639,-3.5639,-3.5639,-3.5639,-3.5639,-3.5639,-3.5639,-3.6044,-3.6847,-3.787,-3.8923,-4.0099,-4.1701,-4.2939,-4.3214,-4.341,-4.3444,-4.3479,-4.3479,-4.3479,-4.3479,-4.3479,-4.3479,-4.3479,-4.3479,-4.3479,-4.3479,-4.3479,-4.3479,-4.3479,-4.3479,-4.3479,-4.3479,-4.3479,-4.3479,-4.3479,-4.3479,-4.3479,-4.3479,-4.3479,-4.3479,-4.3479,-4.3479,-4.3479,-4.3479,-4.3479,-4.3479,-4.3479,-4.3479,-4.3479,-4.3479,-4.3479,-4.3513,-4.3563,-4.3849,-4.4087,-4.4455,-2.4206,-2.4792,-2.5804,-2.688,-2.7867,-2.8949,-2.9611,-2.9779,-2.9779,-2.9779,-2.9779,-2.9779,-2.9779,-2.9779,-2.9779,-2.9779,-2.9779,-2.9779,-2.9779,-2.9779,-2.9779,-2.9779,-2.9779,-2.9779,-2.9779,-2.9779,-2.9779,-2.9921,-3.0343,-3.0279,-3.0558,-3.1462,-3.1596,-3.2593,-3.3959,-3.4476,-3.4905,-3.5279,-3.5489,-3.5489,-3.5489,-3.5489,-3.5489,-3.5489,-3.5489,-3.5489,-3.5489,-3.5489,-3.5489,-3.5516,-3.5556,-3.5586,-3.557,-3.5563,-3.5643,-3.5639,-3.5639,-3.5639,-3.5639,-3.5639,-3.5639,-3.5639,-3.5639,-3.5639,-3.5639,-3.5639,-3.6599,-3.7716,-3.8715,-3.9643,-4.1064,-4.2375,-4.2939,-4.3124,-4.3214,-4.341,-4.3479,-4.3479,-4.3479,-4.3479,-4.3479,-4.3479,-4.3479,-4.3479,-4.3479,-4.3479,-4.3479,-4.3479,-4.3479,-4.3479,-4.3479,-4.3479,-4.3479,-4.3479,-4.3479,-4.3479,-4.3479,-4.3479,-4.3479,-4.3479,-4.3479,-4.3479,-4.3479,-4.3479,-4.3479,-4.3479,-4.3479,-4.3479,-4.3479,-4.3479,-4.3479,-4.3597,-4.3912,-4.4204,-4.4455]}]]